GEFSMW_prec_meanprecacc_120.txt.gz
Total_Precipitation_Accumulation
0.00 0.00 0.00 0.00 0.00 0.00 0.00 0.00 0.00 0.00 0.01 0.02 0.03 0.03 0.03 0.02 0.02 0.02 0.03 0.02 0.02 0.02 0.03 0.03 0.03 0.03 0.05 0.05 0.06 0.07 0.07 0.06 0.07 0.11 0.11 0.14 0.17 0.18 0.19 0.24 0.38 0.51 0.54
0.00 0.00 0.00 0.00 0.00 0.00 0.00 0.00 0.00 0.00 0.00 0.01 0.01 0.01 0.01 0.01 0.01 0.01 0.01 0.01 0.01 0.01 0.01 0.01 0.02 0.02 0.02 0.02 0.02 0.03 0.04 0.03 0.03 0.07 0.13 0.10 0.09 0.13 0.14 0.13 0.22 0.34 0.43
0.00 0.00 0.00 0.00 0.00 0.00 0.00 0.00 0.00 0.00 0.00 0.00 0.01 0.01 0.01 0.00 0.00 0.00 0.00 0.00 0.00 0.00 0.00 0.00 0.00 0.01 0.01 0.01 0.01 0.02 0.04 0.06 0.04 0.06 0.21 0.28 0.18 0.11 0.06 0.08 0.13 0.16 0.20
0.00 0.00 0.00 0.00 0.00 0.00 0.00 0.00 0.00 0.00 0.00 0.00 0.01 0.01 0.00 0.00 0.00 0.00 0.00 0.00 0.00 0.00 0.00 0.00 0.00 0.01 0.01 0.01 0.02 0.02 0.04 0.08 0.09 0.07 0.10 0.19 0.23 0.28 0.15 0.03 0.03 0.03 0.05
0.00 0.00 0.00 0.00 0.00 0.00 0.00 0.00 0.00 0.00 0.00 0.00 0.00 0.00 0.00 0.00 0.00 0.00 0.00 0.00 0.00 0.00 0.00 0.00 0.01 0.01 0.01 0.02 0.03 0.03 0.05 0.08 0.12 0.13 0.13 0.12 0.12 0.17 0.27 0.13 0.03 0.03 0.03
0.00 0.00 0.00 0.00 0.00 0.00 0.00 0.00 0.00 0.00 0.00 0.00 0.00 0.00 0.00 0.00 0.00 0.00 0.00 0.00 0.01 0.01 0.00 0.01 0.01 0.01 0.02 0.03 0.04 0.06 0.07 0.09 0.11 0.14 0.17 0.22 0.24 0.19 0.25 0.21 0.07 0.03 0.03
0.00 0.00 0.00 0.00 0.00 0.00 0.00 0.00 0.00 0.00 0.00 0.00 0.00 0.00 0.00 0.00 0.00 0.00 0.01 0.01 0.02 0.02 0.01 0.01 0.02 0.03 0.04 0.05 0.07 0.10 0.11 0.12 0.14 0.17 0.19 0.21 0.23 0.22 0.28 0.30 0.17 0.07 0.02
0.00 0.00 0.00 0.00 0.00 0.00 0.00 0.00 0.00 0.00 0.00 0.00 0.00 0.00 0.00 0.00 0.00 0.00 0.01 0.01 0.03 0.02 0.02 0.02 0.03 0.03 0.05 0.07 0.10 0.14 0.15 0.17 0.19 0.19 0.21 0.23 0.20 0.22 0.28 0.35 0.39 0.30 0.09
0.00 0.00 0.00 0.00 0.00 0.00 0.00 0.00 0.00 0.00 0.00 0.00 0.00 0.00 0.00 0.00 0.00 0.00 0.01 0.01 0.01 0.01 0.02 0.03 0.05 0.06 0.08 0.09 0.12 0.15 0.17 0.20 0.23 0.25 0.27 0.29 0.25 0.24 0.26 0.31 0.44 0.61 0.42
0.00 0.00 0.00 0.00 0.00 0.00 0.00 0.00 0.00 0.00 0.00 0.00 0.00 0.00 0.00 0.00 0.00 0.01 0.01 0.01 0.01 0.02 0.02 0.04 0.07 0.11 0.14 0.15 0.17 0.19 0.19 0.21 0.24 0.28 0.32 0.34 0.35 0.33 0.33 0.33 0.35 0.46 0.57
0.00 0.00 0.00 0.00 0.00 0.00 0.00 0.00 0.00 0.00 0.00 0.00 0.00 0.00 0.00 0.00 0.01 0.02 0.02 0.03 0.03 0.03 0.05 0.07 0.10 0.13 0.18 0.22 0.25 0.26 0.27 0.28 0.28 0.28 0.31 0.33 0.37 0.43 0.43 0.42 0.42 0.40 0.45
0.00 0.00 0.00 0.00 0.00 0.00 0.00 0.01 0.01 0.01 0.00 0.00 0.00 0.00 0.00 0.01 0.02 0.04 0.06 0.06 0.06 0.07 0.09 0.12 0.16 0.20 0.23 0.26 0.33 0.36 0.37 0.42 0.41 0.38 0.37 0.39 0.41 0.45 0.48 0.51 0.49 0.44 0.40
0.00 0.00 0.00 0.00 0.00 0.01 0.01 0.02 0.02 0.01 0.00 0.00 0.00 0.00 0.00 0.01 0.03 0.06 0.10 0.15 0.19 0.21 0.23 0.26 0.31 0.38 0.41 0.43 0.46 0.50 0.58 0.64 0.63 0.60 0.59 0.54 0.52 0.55 0.52 0.54 0.54 0.49 0.42
0.00 0.00 0.00 0.00 0.01 0.01 0.02 0.02 0.01 0.01 0.01 0.00 0.00 0.00 0.01 0.04 0.06 0.09 0.15 0.24 0.34 0.41 0.46 0.50 0.54 0.59 0.67 0.78 0.83 0.81 0.81 0.81 0.78 0.77 0.77 0.76 0.75 0.74 0.71 0.69 0.63 0.58 0.56
0.00 0.00 0.00 0.01 0.02 0.02 0.02 0.02 0.01 0.01 0.01 0.01 0.01 0.02 0.05 0.10 0.17 0.20 0.23 0.31 0.40 0.48 0.52 0.53 0.55 0.59 0.81 1.15 1.27 1.11 0.90 0.76 0.72 0.71 0.72 0.79 0.90 0.96 1.00 1.05 0.91 0.78 0.79
0.00 0.01 0.01 0.02 0.03 0.03 0.03 0.02 0.02 0.03 0.02 0.02 0.03 0.06 0.11 0.18 0.25 0.29 0.32 0.39 0.45 0.48 0.47 0.48 0.48 0.50 0.67 1.07 1.21 0.93 0.65 0.52 0.55 0.60 0.58 0.60 0.72 0.80 0.86 0.99 1.01 1.01 1.08
0.01 0.01 0.03 0.03 0.04 0.04 0.04 0.04 0.03 0.03 0.02 0.04 0.06 0.10 0.13 0.17 0.20 0.23 0.28 0.33 0.31 0.27 0.29 0.35 0.34 0.34 0.45 0.81 0.94 0.66 0.36 0.26 0.31 0.40 0.43 0.44 0.51 0.63 0.65 0.69 0.70 0.78 0.91
0.04 0.04 0.04 0.04 0.03 0.03 0.03 0.03 0.02 0.01 0.02 0.04 0.07 0.10 0.12 0.16 0.14 0.13 0.17 0.20 0.17 0.16 0.19 0.21 0.18 0.15 0.23 0.56 0.75 0.53 0.23 0.17 0.21 0.29 0.34 0.34 0.38 0.51 0.68 0.75 0.63 0.56 0.66
0.04 0.04 0.04 0.03 0.02 0.02 0.02 0.02 0.01 0.01 0.02 0.04 0.05 0.07 0.10 0.14 0.12 0.10 0.11 0.14 0.14 0.13 0.12 0.11 0.08 0.06 0.10 0.38 0.70 0.55 0.22 0.17 0.16 0.21 0.29 0.29 0.26 0.42 0.60 0.66 0.59 0.48 0.51
0.02 0.03 0.02 0.01 0.01 0.01 0.01 0.01 0.00 0.00 0.01 0.02 0.03 0.03 0.04 0.06 0.05 0.04 0.03 0.04 0.06 0.06 0.06 0.04 0.04 0.03 0.04 0.20 0.62 0.68 0.30 0.21 0.16 0.17 0.23 0.31 0.32 0.43 0.51 0.52 0.54 0.57 0.51
0.01 0.01 0.01 0.01 0.00 0.00 0.00 0.00 0.00 0.00 0.00 0.00 0.00 0.00 0.00 0.01 0.01 0.02 0.02 0.02 0.03 0.03 0.03 0.03 0.03 0.02 0.03 0.07 0.39 0.77 0.54 0.32 0.23 0.21 0.26 0.27 0.32 0.37 0.41 0.46 0.52 0.64 0.55
0.00 0.00 0.00 0.00 0.00 0.00 0.00 0.00 0.00 0.00 0.00 0.00 0.00 0.00 0.00 0.01 0.01 0.02 0.02 0.02 0.03 0.04 0.04 0.04 0.03 0.03 0.03 0.06 0.24 0.52 0.65 0.50 0.31 0.28 0.21 0.21 0.25 0.29 0.35 0.38 0.43 0.45 0.45
0.00 0.00 0.00 0.00 0.00 0.00 0.00 0.00 0.00 0.00 0.00 0.00 0.00 0.00 0.01 0.01 0.02 0.02 0.03 0.03 0.04 0.06 0.08 0.07 0.06 0.05 0.05 0.09 0.22 0.27 0.32 0.41 0.37 0.37 0.34 0.23 0.22 0.24 0.22 0.23 0.29 0.32 0.34
0.00 0.00 0.00 0.00 0.00 0.00 0.00 0.00 0.00 0.00 0.00 0.00 0.01 0.01 0.01 0.02 0.02 0.03 0.04 0.05 0.08 0.19 0.23 0.18 0.15 0.11 0.10 0.20 0.36 0.27 0.18 0.24 0.32 0.33 0.29 0.22 0.19 0.17 0.13 0.12 0.15 0.19 0.25
0.00 0.00 0.00 0.00 0.00 0.00 0.00 0.00 0.00 0.00 0.00 0.01 0.01 0.01 0.02 0.03 0.03 0.04 0.04 0.06 0.09 0.27 0.40 0.32 0.31 0.31 0.33 0.40 0.51 0.45 0.40 0.40 0.41 0.41 0.38 0.29 0.23 0.21 0.17 0.13 0.10 0.12 0.18
0.00 0.00 0.00 0.00 0.00 0.00 0.00 0.00 0.00 0.00 0.01 0.01 0.02 0.02 0.04 0.04 0.04 0.05 0.05 0.05 0.08 0.14 0.17 0.20 0.28 0.29 0.40 0.43 0.38 0.39 0.41 0.42 0.42 0.45 0.44 0.28 0.21 0.19 0.17 0.16 0.14 0.12 0.14

GEFSMW_prec_meanprecacc_126.txt.gz
Total_Precipitation_Accumulation
0.00 0.00 0.00 0.00 0.00 0.00 0.00 0.00 0.00 0.00 0.01 0.03 0.04 0.04 0.04 0.03 0.03 0.03 0.03 0.03 0.03 0.04 0.04 0.04 0.04 0.04 0.05 0.06 0.06 0.07 0.07 0.07 0.08 0.11 0.12 0.14 0.17 0.18 0.19 0.24 0.38 0.51 0.54
0.00 0.00 0.00 0.00 0.00 0.00 0.00 0.00 0.00 0.00 0.01 0.01 0.02 0.02 0.02 0.02 0.02 0.02 0.02 0.02 0.02 0.02 0.02 0.03 0.03 0.02 0.02 0.02 0.02 0.03 0.04 0.03 0.03 0.07 0.13 0.10 0.09 0.13 0.14 0.13 0.22 0.34 0.43
0.00 0.00 0.00 0.00 0.00 0.00 0.00 0.00 0.00 0.00 0.00 0.01 0.01 0.01 0.02 0.01 0.01 0.01 0.01 0.01 0.01 0.01 0.01 0.01 0.01 0.01 0.01 0.01 0.01 0.02 0.04 0.06 0.04 0.07 0.21 0.28 0.18 0.11 0.06 0.08 0.13 0.16 0.20
0.00 0.00 0.00 0.00 0.00 0.00 0.00 0.00 0.00 0.00 0.00 0.01 0.01 0.01 0.01 0.01 0.00 0.00 0.00 0.00 0.00 0.00 0.00 0.00 0.00 0.01 0.01 0.01 0.02 0.02 0.04 0.08 0.09 0.07 0.10 0.19 0.23 0.28 0.15 0.03 0.03 0.03 0.05
0.00 0.00 0.00 0.00 0.00 0.00 0.00 0.00 0.00 0.00 0.00 0.00 0.01 0.01 0.01 0.00 0.00 0.00 0.00 0.00 0.00 0.00 0.00 0.00 0.01 0.01 0.01 0.02 0.03 0.04 0.05 0.08 0.12 0.13 0.13 0.12 0.12 0.17 0.27 0.13 0.03 0.03 0.03
0.00 0.00 0.00 0.00 0.00 0.00 0.00 0.00 0.00 0.00 0.00 0.00 0.00 0.01 0.00 0.00 0.00 0.00 0.00 0.01 0.01 0.01 0.00 0.01 0.01 0.01 0.02 0.03 0.04 0.06 0.07 0.09 0.11 0.14 0.17 0.22 0.24 0.19 0.25 0.21 0.07 0.03 0.03
0.00 0.00 0.00 0.00 0.00 0.00 0.00 0.00 0.00 0.00 0.00 0.00 0.00 0.01 0.00 0.00 0.00 0.00 0.01 0.01 0.02 0.02 0.01 0.01 0.02 0.03 0.04 0.05 0.07 0.10 0.11 0.12 0.14 0.17 0.19 0.21 0.23 0.22 0.28 0.30 0.17 0.07 0.02
0.00 0.00 0.00 0.00 0.00 0.00 0.00 0.00 0.00 0.00 0.00 0.00 0.00 0.00 0.00 0.00 0.00 0.00 0.01 0.02 0.03 0.02 0.02 0.02 0.03 0.03 0.05 0.07 0.10 0.14 0.15 0.17 0.19 0.19 0.21 0.23 0.20 0.22 0.28 0.35 0.39 0.30 0.09
0.00 0.00 0.00 0.00 0.00 0.00 0.00 0.00 0.00 0.00 0.00 0.00 0.00 0.00 0.00 0.00 0.00 0.00 0.01 0.01 0.01 0.01 0.02 0.03 0.05 0.06 0.08 0.09 0.12 0.15 0.17 0.20 0.23 0.25 0.27 0.29 0.25 0.24 0.26 0.31 0.44 0.61 0.42
0.00 0.00 0.00 0.00 0.00 0.00 0.00 0.00 0.00 0.00 0.00 0.00 0.00 0.00 0.00 0.00 0.00 0.01 0.01 0.01 0.01 0.02 0.02 0.04 0.07 0.11 0.14 0.15 0.17 0.19 0.19 0.21 0.24 0.28 0.32 0.34 0.35 0.33 0.33 0.33 0.35 0.46 0.57
0.00 0.00 0.00 0.00 0.00 0.00 0.00 0.00 0.00 0.00 0.00 0.00 0.00 0.00 0.00 0.00 0.01 0.02 0.02 0.03 0.03 0.03 0.05 0.07 0.10 0.13 0.18 0.22 0.25 0.26 0.27 0.28 0.28 0.28 0.31 0.33 0.37 0.43 0.43 0.42 0.42 0.40 0.45
0.00 0.00 0.00 0.00 0.00 0.00 0.00 0.01 0.01 0.01 0.00 0.00 0.00 0.00 0.00 0.01 0.02 0.04 0.06 0.06 0.06 0.07 0.09 0.12 0.16 0.20 0.23 0.26 0.33 0.36 0.37 0.42 0.41 0.38 0.37 0.39 0.41 0.45 0.48 0.51 0.49 0.44 0.40
0.00 0.00 0.00 0.00 0.00 0.01 0.01 0.02 0.02 0.01 0.00 0.00 0.00 0.00 0.00 0.01 0.03 0.06 0.10 0.15 0.19 0.21 0.23 0.26 0.31 0.38 0.41 0.43 0.46 0.50 0.58 0.64 0.63 0.60 0.59 0.54 0.52 0.55 0.52 0.54 0.54 0.49 0.42
0.00 0.00 0.00 0.00 0.01 0.01 0.02 0.02 0.01 0.01 0.01 0.00 0.00 0.00 0.01 0.04 0.06 0.09 0.15 0.25 0.34 0.41 0.46 0.50 0.54 0.59 0.67 0.78 0.83 0.81 0.81 0.81 0.78 0.77 0.77 0.76 0.75 0.74 0.71 0.69 0.63 0.58 0.56
0.00 0.00 0.00 0.01 0.02 0.02 0.02 0.02 0.01 0.01 0.01 0.01 0.01 0.02 0.05 0.10 0.17 0.20 0.23 0.31 0.40 0.48 0.52 0.53 0.55 0.59 0.81 1.15 1.27 1.11 0.90 0.76 0.72 0.71 0.72 0.79 0.90 0.96 1.00 1.05 0.91 0.79 0.80
0.00 0.01 0.01 0.02 0.03 0.03 0.03 0.02 0.02 0.03 0.02 0.02 0.03 0.06 0.11 0.18 0.25 0.29 0.32 0.39 0.45 0.48 0.47 0.48 0.48 0.50 0.67 1.07 1.21 0.93 0.65 0.52 0.55 0.60 0.58 0.60 0.72 0.80 0.86 0.99 1.01 1.02 1.08
0.01 0.01 0.03 0.03 0.04 0.04 0.04 0.04 0.03 0.03 0.02 0.04 0.06 0.10 0.13 0.17 0.20 0.23 0.28 0.33 0.31 0.27 0.29 0.35 0.34 0.34 0.45 0.81 0.94 0.66 0.36 0.26 0.31 0.40 0.43 0.44 0.51 0.63 0.65 0.69 0.70 0.78 0.92
0.04 0.04 0.04 0.04 0.03 0.03 0.03 0.03 0.02 0.01 0.02 0.04 0.07 0.10 0.12 0.16 0.14 0.13 0.17 0.20 0.17 0.16 0.19 0.21 0.18 0.15 0.23 0.56 0.75 0.53 0.23 0.17 0.21 0.29 0.34 0.34 0.38 0.51 0.68 0.75 0.63 0.56 0.67
0.04 0.04 0.04 0.03 0.02 0.02 0.02 0.02 0.01 0.01 0.02 0.04 0.05 0.07 0.10 0.14 0.12 0.10 0.11 0.14 0.14 0.13 0.12 0.11 0.08 0.06 0.10 0.38 0.70 0.56 0.22 0.17 0.16 0.21 0.29 0.29 0.26 0.42 0.60 0.66 0.60 0.48 0.51
0.02 0.03 0.02 0.01 0.01 0.01 0.01 0.01 0.00 0.00 0.01 0.02 0.03 0.03 0.04 0.06 0.05 0.04 0.03 0.04 0.06 0.06 0.06 0.04 0.04 0.03 0.04 0.20 0.62 0.68 0.30 0.21 0.16 0.17 0.23 0.31 0.33 0.43 0.51 0.53 0.55 0.58 0.52
0.01 0.01 0.01 0.01 0.00 0.00 0.00 0.00 0.00 0.00 0.00 0.00 0.00 0.00 0.00 0.01 0.01 0.02 0.02 0.02 0.03 0.03 0.03 0.03 0.03 0.03 0.03 0.07 0.39 0.77 0.54 0.32 0.23 0.22 0.26 0.27 0.32 0.38 0.42 0.47 0.54 0.65 0.57
0.00 0.00 0.00 0.00 0.00 0.00 0.00 0.00 0.00 0.00 0.00 0.00 0.00 0.00 0.00 0.01 0.01 0.02 0.02 0.02 0.03 0.04 0.04 0.04 0.03 0.03 0.03 0.06 0.24 0.52 0.65 0.50 0.31 0.28 0.21 0.21 0.25 0.30 0.36 0.39 0.45 0.47 0.48
0.00 0.00 0.00 0.00 0.00 0.00 0.00 0.00 0.00 0.00 0.00 0.00 0.00 0.00 0.01 0.01 0.02 0.02 0.03 0.03 0.04 0.06 0.08 0.07 0.06 0.05 0.05 0.09 0.22 0.27 0.32 0.41 0.37 0.37 0.34 0.24 0.23 0.25 0.23 0.24 0.30 0.33 0.35
0.00 0.00 0.00 0.00 0.00 0.00 0.00 0.00 0.00 0.00 0.00 0.00 0.01 0.01 0.01 0.02 0.02 0.03 0.04 0.05 0.08 0.19 0.23 0.18 0.15 0.11 0.10 0.20 0.36 0.27 0.19 0.24 0.32 0.34 0.30 0.22 0.20 0.17 0.14 0.12 0.15 0.20 0.26
0.00 0.00 0.00 0.00 0.00 0.00 0.00 0.00 0.00 0.00 0.00 0.01 0.01 0.01 0.02 0.03 0.03 0.04 0.04 0.06 0.09 0.27 0.40 0.32 0.31 0.31 0.33 0.40 0.52 0.46 0.41 0.40 0.42 0.42 0.39 0.30 0.23 0.22 0.18 0.14 0.11 0.13 0.19
0.00 0.00 0.00 0.00 0.00 0.00 0.00 0.00 0.00 0.00 0.01 0.01 0.02 0.02 0.04 0.04 0.04 0.05 0.05 0.05 0.08 0.14 0.17 0.20 0.28 0.29 0.40 0.43 0.38 0.39 0.41 0.42 0.43 0.46 0.45 0.29 0.21 0.20 0.18 0.17 0.15 0.13 0.15

GEFSMW_prec_meanprecacc_132.txt.gz
Total_Precipitation_Accumulation
0.00 0.00 0.00 0.00 0.00 0.00 0.00 0.00 0.00 0.00 0.01 0.03 0.04 0.04 0.04 0.04 0.03 0.03 0.03 0.04 0.04 0.04 0.05 0.05 0.04 0.04 0.05 0.06 0.06 0.07 0.07 0.07 0.08 0.11 0.12 0.14 0.17 0.18 0.19 0.24 0.38 0.51 0.54
0.00 0.00 0.00 0.00 0.00 0.00 0.00 0.00 0.00 0.00 0.01 0.01 0.02 0.02 0.02 0.02 0.02 0.02 0.02 0.02 0.02 0.03 0.03 0.03 0.03 0.02 0.02 0.02 0.02 0.03 0.04 0.03 0.03 0.07 0.13 0.10 0.09 0.13 0.14 0.13 0.22 0.34 0.43
0.00 0.00 0.00 0.00 0.00 0.00 0.00 0.00 0.00 0.00 0.00 0.01 0.01 0.02 0.02 0.01 0.01 0.02 0.02 0.01 0.01 0.01 0.01 0.01 0.01 0.01 0.01 0.02 0.02 0.02 0.05 0.06 0.04 0.07 0.21 0.28 0.18 0.11 0.06 0.08 0.13 0.16 0.20
0.00 0.00 0.00 0.00 0.00 0.00 0.00 0.00 0.00 0.00 0.00 0.01 0.01 0.01 0.01 0.01 0.01 0.01 0.00 0.01 0.01 0.01 0.01 0.01 0.01 0.01 0.01 0.02 0.02 0.03 0.04 0.08 0.09 0.07 0.10 0.19 0.23 0.28 0.15 0.03 0.03 0.03 0.05
0.00 0.00 0.00 0.00 0.00 0.00 0.00 0.00 0.00 0.00 0.00 0.01 0.01 0.01 0.01 0.00 0.00 0.00 0.01 0.01 0.01 0.01 0.01 0.01 0.01 0.01 0.02 0.02 0.03 0.04 0.05 0.08 0.12 0.13 0.13 0.12 0.12 0.17 0.27 0.13 0.03 0.03 0.03
0.00 0.00 0.00 0.00 0.00 0.00 0.00 0.00 0.00 0.00 0.00 0.00 0.01 0.01 0.01 0.00 0.00 0.01 0.01 0.01 0.01 0.01 0.01 0.01 0.02 0.02 0.02 0.03 0.04 0.06 0.07 0.09 0.11 0.15 0.17 0.22 0.24 0.19 0.25 0.21 0.07 0.03 0.03
0.00 0.00 0.00 0.00 0.00 0.00 0.00 0.00 0.00 0.00 0.00 0.00 0.01 0.01 0.00 0.00 0.00 0.01 0.01 0.01 0.03 0.02 0.02 0.02 0.02 0.03 0.04 0.05 0.07 0.10 0.11 0.12 0.14 0.17 0.19 0.21 0.23 0.22 0.28 0.30 0.17 0.07 0.02
0.00 0.00 0.00 0.00 0.00 0.00 0.00 0.00 0.00 0.00 0.00 0.00 0.00 0.00 0.00 0.00 0.00 0.00 0.01 0.02 0.03 0.03 0.02 0.02 0.03 0.03 0.05 0.07 0.11 0.14 0.15 0.17 0.20 0.20 0.21 0.23 0.20 0.22 0.28 0.35 0.39 0.30 0.09
0.00 0.00 0.00 0.00 0.00 0.00 0.00 0.00 0.00 0.00 0.00 0.00 0.00 0.00 0.00 0.00 0.00 0.01 0.01 0.01 0.01 0.01 0.02 0.03 0.05 0.07 0.08 0.10 0.12 0.15 0.17 0.20 0.24 0.25 0.27 0.29 0.25 0.24 0.26 0.31 0.44 0.61 0.42
0.00 0.00 0.00 0.00 0.00 0.00 0.00 0.00 0.00 0.00 0.00 0.00 0.00 0.00 0.00 0.00 0.00 0.01 0.01 0.01 0.01 0.02 0.03 0.04 0.08 0.12 0.14 0.16 0.17 0.19 0.19 0.21 0.24 0.28 0.32 0.35 0.35 0.33 0.33 0.33 0.35 0.46 0.57
0.00 0.00 0.00 0.00 0.00 0.00 0.00 0.00 0.00 0.01 0.00 0.00 0.00 0.00 0.00 0.00 0.01 0.02 0.02 0.03 0.03 0.03 0.05 0.07 0.10 0.13 0.18 0.22 0.25 0.26 0.27 0.29 0.28 0.28 0.31 0.33 0.37 0.43 0.43 0.42 0.42 0.40 0.45
0.00 0.00 0.00 0.00 0.00 0.00 0.00 0.01 0.01 0.01 0.00 0.00 0.00 0.00 0.00 0.01 0.02 0.04 0.06 0.06 0.06 0.07 0.09 0.13 0.16 0.20 0.23 0.27 0.33 0.36 0.37 0.42 0.41 0.38 0.37 0.39 0.41 0.45 0.48 0.51 0.49 0.44 0.40
0.00 0.00 0.00 0.00 0.00 0.01 0.01 0.02 0.02 0.01 0.00 0.00 0.00 0.00 0.00 0.01 0.03 0.06 0.10 0.15 0.19 0.21 0.23 0.26 0.32 0.38 0.41 0.43 0.46 0.50 0.58 0.64 0.63 0.60 0.59 0.54 0.53 0.55 0.52 0.54 0.54 0.49 0.42
0.00 0.00 0.00 0.00 0.01 0.01 0.02 0.02 0.01 0.01 0.01 0.00 0.00 0.01 0.01 0.04 0.06 0.09 0.15 0.25 0.34 0.41 0.47 0.51 0.54 0.60 0.67 0.78 0.83 0.81 0.82 0.81 0.78 0.77 0.77 0.77 0.75 0.74 0.71 0.69 0.63 0.58 0.56
0.00 0.00 0.00 0.01 0.02 0.02 0.02 0.02 0.01 0.01 0.01 0.01 0.01 0.02 0.05 0.10 0.17 0.20 0.23 0.31 0.40 0.48 0.52 0.54 0.55 0.60 0.81 1.15 1.27 1.11 0.90 0.76 0.72 0.71 0.72 0.80 0.90 0.96 1.00 1.05 0.91 0.79 0.80
0.00 0.01 0.01 0.02 0.03 0.03 0.03 0.02 0.02 0.03 0.02 0.02 0.03 0.06 0.11 0.18 0.25 0.29 0.32 0.39 0.45 0.48 0.47 0.48 0.48 0.50 0.68 1.07 1.21 0.93 0.65 0.53 0.55 0.60 0.59 0.60 0.72 0.80 0.86 1.00 1.01 1.02 1.09
0.01 0.01 0.03 0.03 0.04 0.04 0.04 0.04 0.03 0.03 0.02 0.04 0.06 0.10 0.13 0.17 0.20 0.23 0.28 0.33 0.31 0.27 0.30 0.35 0.35 0.34 0.45 0.81 0.94 0.66 0.36 0.27 0.32 0.40 0.44 0.45 0.52 0.63 0.66 0.69 0.71 0.79 0.92
0.04 0.04 0.04 0.04 0.03 0.03 0.03 0.03 0.02 0.01 0.02 0.04 0.07 0.10 0.12 0.16 0.14 0.13 0.17 0.20 0.17 0.17 0.20 0.21 0.18 0.16 0.23 0.56 0.75 0.53 0.23 0.17 0.21 0.29 0.34 0.34 0.38 0.51 0.69 0.75 0.64 0.56 0.67
0.04 0.04 0.04 0.03 0.02 0.02 0.02 0.02 0.01 0.01 0.02 0.04 0.05 0.07 0.10 0.14 0.12 0.10 0.11 0.14 0.14 0.13 0.12 0.11 0.08 0.06 0.10 0.38 0.70 0.56 0.22 0.17 0.16 0.21 0.30 0.29 0.26 0.43 0.61 0.67 0.60 0.48 0.51
0.02 0.03 0.02 0.01 0.01 0.01 0.01 0.01 0.00 0.00 0.01 0.02 0.03 0.03 0.04 0.06 0.05 0.04 0.03 0.04 0.06 0.06 0.06 0.04 0.04 0.03 0.04 0.21 0.62 0.68 0.30 0.21 0.16 0.17 0.23 0.31 0.33 0.44 0.52 0.53 0.55 0.58 0.52
0.01 0.01 0.01 0.01 0.00 0.00 0.00 0.00 0.00 0.00 0.00 0.00 0.00 0.00 0.00 0.01 0.01 0.02 0.02 0.02 0.03 0.03 0.03 0.03 0.03 0.03 0.03 0.07 0.39 0.77 0.55 0.33 0.23 0.22 0.26 0.28 0.32 0.38 0.43 0.48 0.54 0.66 0.58
0.00 0.00 0.00 0.00 0.00 0.00 0.00 0.00 0.00 0.00 0.00 0.00 0.00 0.00 0.00 0.01 0.01 0.02 0.02 0.02 0.03 0.04 0.04 0.04 0.03 0.03 0.03 0.06 0.24 0.52 0.65 0.50 0.32 0.29 0.21 0.21 0.25 0.31 0.36 0.40 0.46 0.48 0.49
0.00 0.00 0.00 0.00 0.00 0.00 0.00 0.00 0.00 0.00 0.00 0.00 0.00 0.00 0.01 0.01 0.02 0.02 0.03 0.03 0.04 0.06 0.08 0.07 0.06 0.05 0.05 0.09 0.22 0.27 0.33 0.42 0.38 0.37 0.35 0.24 0.23 0.25 0.23 0.24 0.31 0.34 0.36
0.00 0.00 0.00 0.00 0.00 0.00 0.00 0.00 0.00 0.00 0.00 0.00 0.01 0.01 0.01 0.02 0.02 0.03 0.04 0.05 0.08 0.19 0.23 0.18 0.15 0.11 0.10 0.20 0.36 0.27 0.19 0.24 0.33 0.34 0.30 0.23 0.20 0.18 0.14 0.13 0.16 0.20 0.27
0.00 0.00 0.00 0.00 0.00 0.00 0.00 0.00 0.00 0.00 0.00 0.01 0.01 0.01 0.02 0.03 0.03 0.04 0.04 0.06 0.09 0.27 0.40 0.32 0.31 0.31 0.33 0.40 0.52 0.46 0.41 0.40 0.42 0.42 0.39 0.30 0.24 0.22 0.18 0.14 0.11 0.14 0.20
0.00 0.00 0.00 0.00 0.00 0.00 0.00 0.00 0.00 0.00 0.01 0.01 0.02 0.02 0.04 0.04 0.04 0.05 0.05 0.05 0.08 0.14 0.17 0.20 0.28 0.29 0.40 0.43 0.38 0.39 0.41 0.43 0.43 0.46 0.46 0.29 0.22 0.20 0.19 0.18 0.15 0.13 0.15

GEFSMW_prec_meanprecacc_138.txt.gz
Total_Precipitation_Accumulation
0.00 0.00 0.00 0.00 0.00 0.00 0.00 0.00 0.00 0.00 0.01 0.03 0.04 0.05 0.04 0.04 0.04 0.04 0.03 0.04 0.04 0.04 0.05 0.05 0.04 0.05 0.06 0.06 0.06 0.07 0.07 0.07 0.08 0.11 0.12 0.14 0.17 0.18 0.19 0.24 0.38 0.51 0.54
0.00 0.00 0.00 0.00 0.00 0.00 0.00 0.00 0.00 0.00 0.01 0.01 0.02 0.02 0.02 0.02 0.02 0.02 0.03 0.02 0.02 0.03 0.03 0.04 0.03 0.03 0.03 0.02 0.02 0.03 0.04 0.04 0.03 0.08 0.13 0.10 0.09 0.13 0.14 0.13 0.22 0.34 0.43
0.00 0.00 0.00 0.00 0.00 0.00 0.00 0.00 0.00 0.00 0.00 0.01 0.01 0.02 0.02 0.02 0.02 0.02 0.02 0.01 0.02 0.02 0.02 0.01 0.02 0.02 0.01 0.02 0.02 0.03 0.05 0.06 0.04 0.07 0.21 0.29 0.18 0.11 0.06 0.08 0.13 0.16 0.20
0.00 0.00 0.00 0.00 0.00 0.00 0.00 0.00 0.00 0.00 0.00 0.01 0.01 0.01 0.01 0.01 0.01 0.01 0.01 0.01 0.02 0.02 0.02 0.01 0.02 0.02 0.02 0.02 0.03 0.03 0.05 0.09 0.10 0.07 0.10 0.19 0.23 0.28 0.15 0.03 0.03 0.03 0.05
0.00 0.00 0.00 0.00 0.00 0.00 0.00 0.00 0.00 0.00 0.00 0.01 0.01 0.01 0.01 0.00 0.00 0.00 0.01 0.01 0.01 0.02 0.02 0.02 0.02 0.02 0.03 0.03 0.04 0.05 0.06 0.09 0.13 0.14 0.13 0.13 0.12 0.17 0.27 0.13 0.03 0.03 0.03
0.00 0.00 0.00 0.00 0.00 0.00 0.00 0.00 0.00 0.00 0.00 0.01 0.01 0.01 0.01 0.00 0.00 0.01 0.01 0.02 0.02 0.02 0.02 0.02 0.03 0.03 0.03 0.04 0.06 0.07 0.08 0.09 0.12 0.15 0.17 0.22 0.24 0.19 0.25 0.22 0.07 0.03 0.03
0.00 0.00 0.00 0.00 0.00 0.00 0.00 0.00 0.00 0.00 0.00 0.00 0.01 0.01 0.00 0.00 0.01 0.01 0.01 0.02 0.03 0.03 0.02 0.02 0.03 0.04 0.05 0.06 0.08 0.11 0.12 0.12 0.15 0.17 0.19 0.22 0.23 0.23 0.28 0.31 0.17 0.07 0.02
0.00 0.00 0.00 0.00 0.00 0.00 0.00 0.00 0.00 0.00 0.00 0.00 0.00 0.00 0.00 0.01 0.01 0.01 0.01 0.02 0.03 0.03 0.03 0.03 0.04 0.04 0.06 0.08 0.12 0.15 0.16 0.18 0.20 0.20 0.22 0.24 0.20 0.23 0.28 0.35 0.39 0.30 0.09
0.00 0.00 0.00 0.00 0.00 0.00 0.00 0.00 0.00 0.00 0.00 0.00 0.00 0.00 0.00 0.00 0.00 0.01 0.01 0.02 0.02 0.02 0.03 0.04 0.06 0.07 0.09 0.10 0.13 0.16 0.18 0.21 0.24 0.26 0.28 0.30 0.26 0.25 0.27 0.31 0.45 0.61 0.42
0.00 0.00 0.00 0.00 0.00 0.00 0.00 0.00 0.00 0.00 0.00 0.00 0.00 0.00 0.00 0.00 0.00 0.01 0.01 0.02 0.02 0.02 0.03 0.05 0.08 0.12 0.15 0.16 0.18 0.20 0.20 0.22 0.24 0.29 0.32 0.35 0.35 0.34 0.33 0.34 0.36 0.47 0.57
0.00 0.00 0.00 0.00 0.00 0.00 0.00 0.00 0.00 0.01 0.00 0.00 0.00 0.00 0.00 0.00 0.01 0.02 0.03 0.03 0.03 0.04 0.05 0.07 0.10 0.14 0.19 0.23 0.26 0.27 0.28 0.29 0.28 0.29 0.31 0.33 0.38 0.44 0.43 0.42 0.42 0.40 0.45
0.00 0.00 0.00 0.00 0.00 0.00 0.00 0.01 0.01 0.01 0.00 0.00 0.00 0.00 0.00 0.01 0.02 0.04 0.06 0.06 0.07 0.08 0.10 0.13 0.16 0.21 0.24 0.27 0.33 0.37 0.38 0.43 0.42 0.38 0.38 0.39 0.41 0.46 0.48 0.51 0.49 0.44 0.40
0.00 0.00 0.00 0.00 0.00 0.01 0.01 0.02 0.02 0.01 0.00 0.00 0.00 0.00 0.00 0.01 0.03 0.06 0.10 0.15 0.19 0.22 0.24 0.27 0.32 0.38 0.42 0.44 0.46 0.51 0.59 0.65 0.63 0.61 0.60 0.55 0.53 0.55 0.53 0.54 0.54 0.49 0.42
0.00 0.00 0.00 0.00 0.01 0.01 0.02 0.02 0.01 0.01 0.01 0.01 0.00 0.01 0.02 0.04 0.07 0.09 0.15 0.25 0.34 0.42 0.47 0.51 0.54 0.60 0.68 0.79 0.84 0.82 0.83 0.82 0.79 0.77 0.78 0.77 0.75 0.74 0.72 0.70 0.63 0.59 0.57
0.00 0.00 0.00 0.01 0.02 0.02 0.02 0.02 0.01 0.01 0.01 0.01 0.01 0.02 0.05 0.11 0.17 0.20 0.23 0.31 0.40 0.48 0.53 0.54 0.55 0.60 0.82 1.16 1.28 1.12 0.91 0.77 0.73 0.71 0.73 0.80 0.91 0.96 1.00 1.05 0.91 0.79 0.80
0.00 0.01 0.01 0.02 0.03 0.03 0.03 0.02 0.02 0.03 0.02 0.02 0.03 0.06 0.11 0.18 0.26 0.29 0.33 0.40 0.45 0.48 0.48 0.48 0.49 0.51 0.69 1.09 1.22 0.94 0.66 0.53 0.56 0.61 0.59 0.60 0.72 0.80 0.86 1.00 1.02 1.02 1.09
0.01 0.01 0.03 0.03 0.04 0.04 0.04 0.04 0.03 0.03 0.02 0.04 0.06 0.10 0.13 0.17 0.20 0.23 0.28 0.33 0.31 0.27 0.30 0.36 0.36 0.36 0.47 0.82 0.95 0.67 0.37 0.27 0.32 0.41 0.44 0.45 0.52 0.63 0.66 0.69 0.71 0.79 0.92
0.04 0.04 0.04 0.04 0.03 0.03 0.03 0.03 0.02 0.01 0.02 0.04 0.07 0.10 0.12 0.16 0.14 0.13 0.17 0.20 0.17 0.17 0.20 0.22 0.19 0.16 0.24 0.57 0.76 0.53 0.23 0.17 0.21 0.29 0.34 0.34 0.38 0.51 0.69 0.76 0.64 0.57 0.67
0.04 0.04 0.04 0.03 0.02 0.02 0.02 0.02 0.01 0.01 0.02 0.04 0.05 0.07 0.10 0.14 0.12 0.10 0.11 0.14 0.14 0.13 0.12 0.11 0.08 0.06 0.10 0.39 0.70 0.56 0.22 0.17 0.16 0.21 0.30 0.29 0.26 0.43 0.61 0.67 0.60 0.49 0.52
0.02 0.03 0.02 0.01 0.01 0.01 0.01 0.01 0.00 0.00 0.01 0.02 0.03 0.03 0.04 0.06 0.05 0.04 0.04 0.04 0.06 0.06 0.06 0.05 0.04 0.03 0.04 0.21 0.62 0.69 0.30 0.21 0.16 0.17 0.23 0.32 0.33 0.44 0.53 0.54 0.56 0.59 0.53
0.01 0.01 0.01 0.01 0.00 0.00 0.00 0.00 0.00 0.00 0.00 0.00 0.00 0.00 0.00 0.01 0.01 0.02 0.02 0.02 0.03 0.03 0.03 0.03 0.03 0.03 0.03 0.07 0.39 0.77 0.55 0.33 0.23 0.22 0.26 0.28 0.33 0.39 0.44 0.49 0.55 0.68 0.59
0.01 0.00 0.00 0.00 0.00 0.00 0.00 0.00 0.00 0.00 0.00 0.00 0.00 0.00 0.00 0.01 0.01 0.02 0.02 0.02 0.03 0.04 0.04 0.04 0.03 0.03 0.03 0.06 0.24 0.52 0.65 0.50 0.32 0.29 0.22 0.21 0.26 0.31 0.37 0.41 0.47 0.49 0.50
0.00 0.01 0.00 0.00 0.00 0.00 0.00 0.00 0.00 0.00 0.00 0.00 0.00 0.00 0.01 0.01 0.02 0.02 0.03 0.03 0.04 0.06 0.08 0.07 0.06 0.05 0.05 0.09 0.22 0.27 0.33 0.42 0.38 0.38 0.35 0.25 0.24 0.26 0.23 0.25 0.31 0.35 0.36
0.00 0.00 0.00 0.00 0.00 0.00 0.00 0.00 0.00 0.00 0.00 0.00 0.01 0.01 0.01 0.02 0.02 0.03 0.04 0.05 0.08 0.19 0.23 0.18 0.15 0.11 0.10 0.20 0.36 0.27 0.19 0.24 0.33 0.34 0.30 0.23 0.20 0.18 0.14 0.13 0.16 0.20 0.27
0.00 0.00 0.00 0.00 0.00 0.00 0.00 0.00 0.00 0.00 0.00 0.01 0.01 0.01 0.02 0.03 0.03 0.04 0.04 0.06 0.09 0.27 0.40 0.32 0.31 0.31 0.33 0.40 0.52 0.46 0.41 0.41 0.42 0.43 0.40 0.30 0.24 0.22 0.18 0.14 0.11 0.14 0.20
0.00 0.00 0.00 0.00 0.00 0.00 0.00 0.00 0.00 0.00 0.01 0.01 0.02 0.02 0.04 0.04 0.04 0.05 0.05 0.05 0.08 0.14 0.17 0.20 0.28 0.29 0.40 0.43 0.38 0.39 0.41 0.43 0.43 0.47 0.46 0.30 0.22 0.21 0.19 0.18 0.15 0.13 0.15

GEFSMW_prec_meanprecacc_144.txt.gz
Total_Precipitation_Accumulation
0.00 0.00 0.00 0.00 0.00 0.00 0.00 0.00 0.00 0.00 0.01 0.03 0.05 0.05 0.05 0.04 0.04 0.04 0.04 0.04 0.04 0.04 0.05 0.05 0.04 0.05 0.06 0.07 0.06 0.07 0.07 0.07 0.08 0.11 0.12 0.14 0.17 0.18 0.19 0.24 0.38 0.51 0.54
0.00 0.00 0.00 0.00 0.00 0.00 0.00 0.00 0.00 0.00 0.01 0.01 0.02 0.02 0.02 0.02 0.02 0.02 0.03 0.03 0.03 0.03 0.04 0.04 0.04 0.03 0.03 0.03 0.03 0.03 0.04 0.04 0.03 0.08 0.13 0.10 0.09 0.13 0.14 0.13 0.22 0.34 0.43
0.00 0.00 0.00 0.00 0.00 0.00 0.00 0.00 0.00 0.00 0.01 0.01 0.02 0.02 0.02 0.02 0.02 0.02 0.02 0.02 0.02 0.02 0.02 0.02 0.02 0.02 0.02 0.02 0.02 0.03 0.05 0.07 0.04 0.07 0.21 0.29 0.18 0.11 0.06 0.08 0.13 0.16 0.20
0.00 0.00 0.00 0.00 0.00 0.00 0.00 0.00 0.00 0.00 0.00 0.01 0.01 0.02 0.01 0.01 0.01 0.01 0.01 0.02 0.02 0.02 0.03 0.03 0.02 0.03 0.03 0.03 0.04 0.04 0.05 0.09 0.10 0.07 0.10 0.19 0.23 0.29 0.15 0.03 0.03 0.03 0.05
0.00 0.00 0.00 0.00 0.00 0.00 0.00 0.00 0.00 0.00 0.00 0.01 0.01 0.01 0.01 0.01 0.00 0.01 0.01 0.01 0.02 0.02 0.02 0.02 0.03 0.03 0.04 0.04 0.05 0.06 0.07 0.10 0.13 0.14 0.14 0.13 0.12 0.18 0.28 0.13 0.03 0.03 0.03
0.00 0.00 0.00 0.00 0.00 0.00 0.00 0.00 0.00 0.00 0.00 0.01 0.01 0.01 0.01 0.00 0.01 0.01 0.01 0.02 0.02 0.02 0.02 0.02 0.03 0.03 0.04 0.05 0.06 0.08 0.09 0.10 0.13 0.16 0.18 0.22 0.24 0.19 0.26 0.22 0.07 0.03 0.03
0.00 0.00 0.00 0.00 0.00 0.00 0.00 0.00 0.00 0.00 0.00 0.01 0.01 0.01 0.01 0.01 0.01 0.01 0.02 0.02 0.03 0.03 0.02 0.03 0.03 0.04 0.05 0.07 0.09 0.12 0.13 0.13 0.15 0.18 0.20 0.22 0.23 0.23 0.28 0.31 0.17 0.07 0.02
0.00 0.00 0.00 0.00 0.00 0.00 0.00 0.00 0.00 0.00 0.00 0.00 0.01 0.01 0.00 0.01 0.01 0.01 0.02 0.03 0.04 0.03 0.03 0.03 0.04 0.05 0.07 0.09 0.12 0.15 0.16 0.18 0.21 0.20 0.22 0.24 0.21 0.23 0.29 0.36 0.40 0.30 0.09
0.00 0.00 0.00 0.00 0.00 0.00 0.00 0.00 0.00 0.00 0.00 0.00 0.00 0.01 0.00 0.01 0.01 0.01 0.02 0.02 0.02 0.02 0.03 0.05 0.07 0.08 0.09 0.11 0.14 0.17 0.18 0.22 0.25 0.27 0.28 0.30 0.26 0.25 0.27 0.32 0.45 0.62 0.43
0.00 0.00 0.00 0.00 0.00 0.00 0.00 0.00 0.00 0.00 0.00 0.00 0.00 0.00 0.00 0.00 0.01 0.01 0.02 0.02 0.02 0.02 0.03 0.05 0.08 0.13 0.16 0.17 0.18 0.20 0.21 0.23 0.25 0.29 0.33 0.35 0.35 0.34 0.34 0.34 0.36 0.48 0.58
0.00 0.00 0.00 0.00 0.00 0.00 0.00 0.00 0.01 0.01 0.00 0.00 0.00 0.00 0.00 0.01 0.01 0.02 0.03 0.03 0.03 0.04 0.06 0.07 0.11 0.14 0.19 0.23 0.27 0.27 0.28 0.30 0.29 0.29 0.32 0.34 0.38 0.44 0.43 0.43 0.42 0.40 0.46
0.00 0.00 0.00 0.00 0.00 0.00 0.00 0.01 0.01 0.01 0.00 0.00 0.00 0.00 0.00 0.01 0.02 0.04 0.06 0.07 0.07 0.08 0.10 0.13 0.17 0.21 0.24 0.27 0.34 0.37 0.38 0.43 0.42 0.39 0.38 0.40 0.42 0.46 0.49 0.52 0.50 0.45 0.41
0.00 0.00 0.00 0.00 0.00 0.01 0.01 0.02 0.02 0.01 0.00 0.00 0.00 0.00 0.01 0.02 0.03 0.06 0.11 0.15 0.19 0.22 0.24 0.27 0.33 0.39 0.42 0.44 0.47 0.51 0.59 0.65 0.64 0.61 0.61 0.56 0.54 0.56 0.54 0.55 0.55 0.50 0.43
0.00 0.00 0.00 0.00 0.01 0.01 0.02 0.02 0.01 0.01 0.01 0.01 0.00 0.01 0.02 0.04 0.07 0.10 0.16 0.25 0.35 0.42 0.47 0.52 0.55 0.61 0.68 0.79 0.85 0.83 0.83 0.82 0.80 0.78 0.79 0.78 0.77 0.76 0.73 0.71 0.64 0.60 0.57
0.00 0.00 0.00 0.01 0.02 0.02 0.02 0.02 0.01 0.01 0.01 0.01 0.01 0.02 0.05 0.11 0.17 0.20 0.23 0.31 0.41 0.49 0.53 0.54 0.56 0.61 0.82 1.17 1.29 1.14 0.92 0.78 0.74 0.72 0.74 0.81 0.92 0.98 1.01 1.06 0.92 0.80 0.81
0.00 0.01 0.01 0.02 0.03 0.03 0.03 0.02 0.02 0.03 0.02 0.02 0.03 0.06 0.11 0.18 0.26 0.29 0.33 0.40 0.45 0.48 0.48 0.49 0.49 0.52 0.70 1.10 1.24 0.96 0.67 0.54 0.57 0.62 0.60 0.61 0.73 0.81 0.87 1.01 1.02 1.03 1.10
0.01 0.01 0.03 0.03 0.04 0.04 0.04 0.04 0.03 0.03 0.02 0.04 0.06 0.10 0.13 0.18 0.21 0.23 0.28 0.33 0.31 0.27 0.30 0.36 0.36 0.36 0.48 0.83 0.96 0.68 0.38 0.28 0.33 0.41 0.44 0.45 0.52 0.64 0.67 0.70 0.71 0.79 0.93
0.04 0.04 0.04 0.04 0.03 0.03 0.03 0.03 0.02 0.01 0.02 0.04 0.07 0.10 0.13 0.16 0.14 0.13 0.17 0.20 0.17 0.17 0.21 0.22 0.19 0.17 0.24 0.57 0.76 0.54 0.24 0.17 0.22 0.29 0.35 0.35 0.39 0.52 0.69 0.76 0.64 0.57 0.67
0.04 0.04 0.04 0.03 0.02 0.02 0.02 0.02 0.01 0.01 0.02 0.04 0.05 0.07 0.10 0.14 0.12 0.10 0.11 0.14 0.14 0.14 0.13 0.11 0.09 0.06 0.10 0.39 0.71 0.56 0.22 0.18 0.17 0.22 0.30 0.29 0.26 0.43 0.61 0.67 0.61 0.49 0.52
0.02 0.03 0.02 0.01 0.01 0.01 0.01 0.01 0.00 0.00 0.01 0.02 0.03 0.03 0.04 0.06 0.05 0.04 0.04 0.05 0.06 0.07 0.06 0.05 0.04 0.04 0.05 0.21 0.63 0.69 0.31 0.23 0.18 0.18 0.23 0.32 0.33 0.44 0.53 0.54 0.57 0.59 0.53
0.01 0.01 0.01 0.01 0.00 0.00 0.00 0.00 0.00 0.00 0.00 0.00 0.00 0.00 0.00 0.01 0.01 0.02 0.02 0.03 0.03 0.03 0.04 0.03 0.03 0.03 0.03 0.07 0.39 0.77 0.55 0.33 0.23 0.22 0.26 0.28 0.33 0.39 0.44 0.49 0.56 0.68 0.60
0.01 0.00 0.00 0.00 0.00 0.00 0.00 0.00 0.00 0.00 0.00 0.00 0.00 0.00 0.00 0.01 0.01 0.02 0.02 0.03 0.03 0.04 0.04 0.04 0.03 0.03 0.03 0.07 0.24 0.52 0.65 0.50 0.32 0.29 0.22 0.21 0.26 0.32 0.38 0.41 0.47 0.50 0.51
0.00 0.01 0.00 0.00 0.00 0.00 0.00 0.00 0.00 0.00 0.00 0.00 0.00 0.00 0.01 0.01 0.02 0.03 0.03 0.04 0.04 0.07 0.08 0.07 0.06 0.05 0.05 0.09 0.22 0.27 0.33 0.42 0.38 0.38 0.35 0.25 0.24 0.26 0.24 0.25 0.32 0.35 0.37
0.00 0.00 0.00 0.00 0.00 0.00 0.00 0.00 0.00 0.00 0.00 0.00 0.01 0.01 0.01 0.02 0.02 0.03 0.04 0.05 0.08 0.19 0.23 0.18 0.15 0.11 0.10 0.20 0.36 0.27 0.19 0.25 0.33 0.34 0.31 0.23 0.21 0.18 0.14 0.13 0.16 0.20 0.27
0.00 0.00 0.00 0.00 0.00 0.00 0.00 0.00 0.00 0.00 0.00 0.01 0.01 0.01 0.02 0.03 0.03 0.04 0.04 0.06 0.09 0.27 0.40 0.32 0.31 0.31 0.33 0.40 0.52 0.46 0.41 0.41 0.42 0.43 0.40 0.31 0.24 0.22 0.19 0.14 0.12 0.14 0.20
0.00 0.00 0.00 0.00 0.00 0.00 0.00 0.00 0.00 0.00 0.01 0.01 0.02 0.02 0.04 0.04 0.04 0.05 0.05 0.05 0.08 0.15 0.17 0.20 0.28 0.30 0.40 0.43 0.39 0.39 0.42 0.43 0.43 0.47 0.46 0.30 0.22 0.21 0.19 0.18 0.16 0.13 0.16

GEFSMW_prec_meanprecacc_150.txt.gz
Total_Precipitation_Accumulation
0.00 0.00 0.00 0.00 0.00 0.00 0.00 0.00 0.00 0.01 0.01 0.03 0.05 0.06 0.05 0.04 0.04 0.04 0.04 0.04 0.04 0.04 0.05 0.05 0.04 0.05 0.06 0.07 0.07 0.07 0.07 0.07 0.08 0.11 0.12 0.14 0.17 0.18 0.19 0.24 0.38 0.51 0.54
0.00 0.00 0.00 0.00 0.00 0.00 0.00 0.00 0.00 0.00 0.01 0.01 0.02 0.02 0.02 0.02 0.02 0.03 0.03 0.03 0.03 0.03 0.04 0.04 0.04 0.04 0.04 0.03 0.03 0.04 0.05 0.04 0.03 0.08 0.13 0.10 0.09 0.13 0.14 0.13 0.22 0.34 0.43
0.00 0.00 0.00 0.00 0.00 0.00 0.00 0.00 0.00 0.00 0.01 0.01 0.02 0.02 0.03 0.02 0.02 0.02 0.02 0.02 0.02 0.02 0.02 0.02 0.03 0.02 0.02 0.03 0.03 0.03 0.05 0.07 0.05 0.07 0.22 0.29 0.18 0.11 0.06 0.08 0.13 0.16 0.20
0.00 0.00 0.00 0.00 0.00 0.00 0.00 0.00 0.00 0.00 0.00 0.01 0.01 0.02 0.02 0.01 0.01 0.01 0.01 0.02 0.02 0.03 0.03 0.03 0.03 0.03 0.03 0.03 0.04 0.04 0.06 0.10 0.10 0.07 0.11 0.19 0.24 0.29 0.15 0.03 0.03 0.03 0.05
0.00 0.00 0.00 0.00 0.00 0.00 0.00 0.00 0.00 0.00 0.00 0.01 0.01 0.01 0.01 0.01 0.00 0.01 0.01 0.02 0.02 0.02 0.02 0.03 0.03 0.03 0.04 0.04 0.05 0.06 0.07 0.10 0.14 0.15 0.14 0.13 0.13 0.18 0.28 0.13 0.03 0.03 0.04
0.00 0.00 0.00 0.00 0.00 0.00 0.00 0.00 0.00 0.00 0.00 0.01 0.01 0.01 0.01 0.01 0.01 0.01 0.02 0.02 0.02 0.03 0.02 0.02 0.03 0.04 0.04 0.05 0.06 0.08 0.09 0.11 0.13 0.16 0.19 0.23 0.25 0.20 0.26 0.22 0.07 0.03 0.03
0.00 0.00 0.00 0.00 0.00 0.00 0.00 0.00 0.00 0.00 0.00 0.01 0.01 0.01 0.01 0.01 0.01 0.01 0.02 0.02 0.03 0.03 0.03 0.03 0.04 0.05 0.06 0.07 0.09 0.12 0.13 0.13 0.16 0.18 0.21 0.23 0.24 0.23 0.28 0.31 0.18 0.07 0.02
0.00 0.00 0.00 0.00 0.00 0.00 0.00 0.00 0.00 0.00 0.00 0.00 0.01 0.01 0.01 0.01 0.01 0.01 0.02 0.03 0.04 0.04 0.03 0.03 0.04 0.05 0.07 0.09 0.13 0.16 0.17 0.19 0.21 0.21 0.23 0.25 0.21 0.24 0.29 0.36 0.40 0.31 0.09
0.00 0.00 0.00 0.00 0.00 0.00 0.00 0.00 0.00 0.00 0.00 0.00 0.00 0.01 0.01 0.01 0.01 0.01 0.02 0.02 0.03 0.03 0.03 0.05 0.07 0.08 0.10 0.11 0.14 0.17 0.19 0.22 0.25 0.27 0.28 0.30 0.26 0.26 0.28 0.32 0.46 0.63 0.44
0.00 0.00 0.00 0.00 0.00 0.00 0.00 0.00 0.00 0.00 0.00 0.00 0.00 0.00 0.00 0.01 0.01 0.01 0.02 0.02 0.02 0.03 0.04 0.05 0.09 0.13 0.16 0.17 0.19 0.21 0.21 0.23 0.26 0.30 0.33 0.36 0.36 0.35 0.34 0.35 0.37 0.48 0.59
0.00 0.00 0.00 0.00 0.00 0.00 0.00 0.00 0.01 0.01 0.00 0.00 0.00 0.00 0.01 0.01 0.01 0.02 0.03 0.04 0.03 0.04 0.06 0.08 0.11 0.15 0.19 0.23 0.27 0.28 0.29 0.30 0.29 0.30 0.32 0.34 0.39 0.45 0.44 0.44 0.43 0.41 0.47
0.00 0.00 0.00 0.00 0.00 0.00 0.00 0.01 0.01 0.01 0.00 0.00 0.00 0.00 0.00 0.01 0.03 0.05 0.06 0.07 0.07 0.08 0.10 0.13 0.17 0.21 0.24 0.27 0.34 0.37 0.38 0.44 0.43 0.39 0.39 0.41 0.42 0.47 0.50 0.53 0.52 0.47 0.43
0.00 0.00 0.00 0.00 0.00 0.01 0.01 0.02 0.02 0.01 0.00 0.00 0.00 0.00 0.01 0.02 0.04 0.06 0.11 0.15 0.20 0.22 0.24 0.27 0.33 0.39 0.42 0.44 0.47 0.51 0.59 0.65 0.64 0.62 0.61 0.56 0.54 0.57 0.54 0.56 0.57 0.52 0.45
0.00 0.00 0.00 0.00 0.01 0.01 0.02 0.02 0.01 0.01 0.01 0.01 0.00 0.01 0.02 0.04 0.07 0.10 0.16 0.25 0.35 0.42 0.48 0.52 0.55 0.61 0.69 0.80 0.85 0.84 0.84 0.83 0.80 0.79 0.79 0.79 0.78 0.77 0.74 0.72 0.65 0.61 0.59
0.00 0.00 0.00 0.01 0.02 0.02 0.02 0.02 0.01 0.01 0.02 0.01 0.01 0.02 0.05 0.11 0.17 0.20 0.24 0.32 0.41 0.49 0.53 0.54 0.56 0.61 0.83 1.17 1.29 1.14 0.93 0.79 0.75 0.73 0.75 0.82 0.93 0.99 1.02 1.07 0.93 0.81 0.82
0.00 0.01 0.01 0.02 0.03 0.03 0.03 0.02 0.02 0.03 0.02 0.02 0.03 0.06 0.11 0.18 0.26 0.30 0.33 0.40 0.46 0.49 0.48 0.49 0.49 0.52 0.70 1.11 1.24 0.96 0.67 0.55 0.58 0.63 0.61 0.62 0.75 0.82 0.89 1.02 1.04 1.04 1.11
0.01 0.02 0.03 0.03 0.04 0.04 0.04 0.04 0.03 0.03 0.02 0.04 0.07 0.10 0.14 0.18 0.21 0.23 0.28 0.33 0.32 0.28 0.31 0.36 0.36 0.36 0.48 0.84 0.97 0.68 0.38 0.28 0.33 0.42 0.45 0.45 0.53 0.65 0.68 0.71 0.73 0.80 0.94
0.04 0.04 0.04 0.04 0.03 0.03 0.03 0.03 0.02 0.01 0.02 0.04 0.07 0.10 0.13 0.16 0.14 0.14 0.17 0.20 0.18 0.17 0.21 0.22 0.19 0.17 0.24 0.58 0.77 0.54 0.24 0.17 0.22 0.30 0.35 0.36 0.40 0.52 0.70 0.77 0.65 0.57 0.67
0.04 0.04 0.04 0.03 0.02 0.02 0.02 0.02 0.01 0.01 0.02 0.04 0.05 0.07 0.11 0.14 0.12 0.10 0.11 0.14 0.14 0.14 0.13 0.11 0.09 0.07 0.11 0.40 0.71 0.57 0.23 0.18 0.18 0.23 0.31 0.30 0.27 0.44 0.62 0.68 0.61 0.49 0.52
0.02 0.03 0.02 0.01 0.01 0.01 0.01 0.01 0.00 0.00 0.01 0.02 0.03 0.03 0.04 0.06 0.05 0.04 0.04 0.05 0.06 0.07 0.06 0.05 0.04 0.04 0.05 0.22 0.63 0.70 0.31 0.23 0.18 0.19 0.24 0.33 0.34 0.45 0.53 0.54 0.57 0.59 0.53
0.01 0.01 0.01 0.01 0.00 0.00 0.00 0.00 0.00 0.00 0.00 0.00 0.00 0.00 0.00 0.01 0.01 0.02 0.02 0.03 0.03 0.04 0.04 0.03 0.03 0.03 0.03 0.08 0.39 0.78 0.55 0.33 0.23 0.22 0.27 0.28 0.33 0.40 0.44 0.50 0.56 0.68 0.60
0.01 0.00 0.00 0.00 0.00 0.00 0.00 0.00 0.00 0.00 0.00 0.00 0.00 0.00 0.01 0.01 0.01 0.02 0.02 0.03 0.03 0.04 0.04 0.04 0.04 0.03 0.03 0.07 0.25 0.53 0.65 0.51 0.32 0.29 0.22 0.22 0.27 0.32 0.38 0.41 0.48 0.50 0.51
0.00 0.01 0.00 0.00 0.00 0.00 0.00 0.00 0.00 0.00 0.00 0.00 0.00 0.00 0.01 0.01 0.02 0.03 0.03 0.04 0.05 0.07 0.08 0.08 0.07 0.05 0.05 0.09 0.23 0.28 0.33 0.42 0.38 0.38 0.35 0.25 0.24 0.26 0.24 0.25 0.32 0.35 0.37
0.00 0.00 0.00 0.00 0.00 0.00 0.00 0.00 0.00 0.00 0.00 0.00 0.01 0.01 0.01 0.02 0.02 0.03 0.04 0.05 0.08 0.19 0.23 0.18 0.15 0.11 0.10 0.20 0.36 0.28 0.19 0.25 0.33 0.34 0.31 0.23 0.21 0.18 0.14 0.13 0.16 0.20 0.27
0.00 0.00 0.00 0.00 0.00 0.00 0.00 0.00 0.00 0.00 0.00 0.01 0.01 0.01 0.02 0.03 0.04 0.04 0.04 0.06 0.09 0.27 0.40 0.32 0.31 0.31 0.33 0.41 0.52 0.46 0.41 0.41 0.42 0.43 0.40 0.31 0.24 0.22 0.19 0.14 0.12 0.14 0.20
0.00 0.00 0.00 0.00 0.00 0.00 0.00 0.00 0.00 0.00 0.01 0.01 0.02 0.02 0.04 0.04 0.04 0.05 0.05 0.06 0.08 0.15 0.17 0.20 0.28 0.30 0.40 0.43 0.39 0.39 0.42 0.43 0.44 0.47 0.46 0.30 0.22 0.21 0.19 0.18 0.16 0.14 0.16

GEFSMW_prec_meanprecacc_156.txt.gz
Total_Precipitation_Accumulation
0.00 0.00 0.00 0.00 0.00 0.00 0.01 0.01 0.02 0.02 0.02 0.04 0.06 0.06 0.05 0.05 0.04 0.04 0.04 0.04 0.04 0.04 0.05 0.05 0.04 0.05 0.06 0.07 0.07 0.07 0.07 0.07 0.08 0.11 0.12 0.14 0.17 0.18 0.19 0.24 0.38 0.51 0.54
0.00 0.00 0.00 0.00 0.00 0.00 0.00 0.01 0.01 0.01 0.01 0.02 0.02 0.02 0.02 0.03 0.02 0.03 0.03 0.03 0.03 0.03 0.04 0.04 0.04 0.04 0.04 0.03 0.03 0.04 0.05 0.04 0.03 0.08 0.13 0.10 0.09 0.13 0.14 0.13 0.22 0.34 0.43
0.00 0.00 0.00 0.00 0.00 0.00 0.00 0.00 0.01 0.01 0.01 0.01 0.02 0.02 0.03 0.03 0.02 0.02 0.02 0.02 0.02 0.02 0.02 0.02 0.03 0.03 0.02 0.03 0.03 0.03 0.05 0.07 0.05 0.07 0.22 0.29 0.18 0.11 0.06 0.08 0.13 0.16 0.20
0.00 0.00 0.00 0.00 0.00 0.00 0.00 0.00 0.00 0.00 0.01 0.01 0.02 0.02 0.02 0.01 0.01 0.01 0.01 0.02 0.02 0.03 0.03 0.03 0.03 0.03 0.03 0.03 0.04 0.04 0.06 0.10 0.10 0.07 0.11 0.20 0.24 0.29 0.16 0.04 0.03 0.03 0.05
0.00 0.00 0.00 0.00 0.00 0.00 0.00 0.00 0.00 0.00 0.01 0.01 0.01 0.01 0.01 0.01 0.00 0.01 0.01 0.02 0.02 0.02 0.02 0.03 0.03 0.03 0.04 0.05 0.05 0.06 0.07 0.10 0.14 0.15 0.14 0.14 0.13 0.19 0.29 0.13 0.03 0.04 0.04
0.00 0.00 0.00 0.00 0.00 0.00 0.00 0.00 0.01 0.01 0.01 0.01 0.01 0.01 0.01 0.01 0.01 0.01 0.02 0.02 0.02 0.03 0.02 0.03 0.03 0.04 0.04 0.05 0.07 0.08 0.09 0.11 0.14 0.17 0.19 0.24 0.26 0.21 0.27 0.23 0.07 0.03 0.03
0.00 0.00 0.00 0.00 0.00 0.00 0.00 0.00 0.00 0.01 0.01 0.01 0.01 0.01 0.01 0.01 0.01 0.01 0.02 0.02 0.03 0.03 0.03 0.03 0.04 0.05 0.06 0.07 0.09 0.12 0.13 0.14 0.16 0.19 0.21 0.23 0.25 0.24 0.29 0.32 0.19 0.07 0.02
0.00 0.00 0.00 0.00 0.00 0.00 0.00 0.00 0.00 0.00 0.01 0.00 0.01 0.01 0.01 0.01 0.01 0.01 0.02 0.03 0.04 0.04 0.03 0.04 0.04 0.05 0.07 0.10 0.13 0.16 0.18 0.19 0.22 0.22 0.24 0.26 0.22 0.25 0.30 0.37 0.41 0.31 0.10
0.00 0.00 0.00 0.00 0.00 0.00 0.00 0.00 0.00 0.00 0.00 0.00 0.01 0.01 0.01 0.01 0.01 0.01 0.02 0.02 0.03 0.03 0.04 0.05 0.07 0.09 0.10 0.12 0.14 0.18 0.20 0.23 0.26 0.28 0.29 0.31 0.27 0.26 0.28 0.33 0.47 0.64 0.45
0.00 0.00 0.00 0.00 0.00 0.00 0.00 0.00 0.00 0.00 0.00 0.00 0.00 0.01 0.01 0.01 0.01 0.02 0.02 0.02 0.02 0.03 0.04 0.05 0.09 0.13 0.16 0.17 0.19 0.21 0.22 0.24 0.26 0.30 0.34 0.37 0.36 0.35 0.34 0.35 0.37 0.49 0.60
0.00 0.00 0.00 0.00 0.00 0.00 0.00 0.00 0.01 0.01 0.01 0.01 0.00 0.01 0.01 0.01 0.01 0.02 0.03 0.04 0.03 0.04 0.06 0.08 0.11 0.15 0.20 0.23 0.27 0.28 0.29 0.31 0.30 0.30 0.33 0.35 0.39 0.45 0.45 0.44 0.44 0.42 0.49
0.00 0.00 0.00 0.00 0.00 0.00 0.01 0.01 0.01 0.01 0.01 0.00 0.00 0.00 0.01 0.01 0.03 0.05 0.06 0.07 0.07 0.08 0.10 0.14 0.17 0.21 0.25 0.28 0.34 0.38 0.39 0.44 0.43 0.40 0.40 0.41 0.43 0.47 0.50 0.54 0.52 0.48 0.44
0.01 0.00 0.00 0.00 0.00 0.01 0.01 0.02 0.02 0.01 0.01 0.00 0.01 0.01 0.01 0.02 0.04 0.06 0.11 0.15 0.20 0.22 0.25 0.28 0.33 0.39 0.43 0.44 0.47 0.51 0.59 0.66 0.65 0.62 0.62 0.57 0.55 0.58 0.55 0.57 0.58 0.53 0.46
0.01 0.01 0.00 0.00 0.01 0.01 0.02 0.02 0.02 0.01 0.01 0.01 0.01 0.01 0.02 0.04 0.07 0.10 0.16 0.25 0.35 0.42 0.48 0.52 0.55 0.61 0.69 0.80 0.85 0.84 0.84 0.83 0.81 0.79 0.80 0.80 0.78 0.78 0.75 0.73 0.66 0.62 0.60
0.01 0.02 0.01 0.01 0.02 0.02 0.02 0.02 0.01 0.01 0.02 0.01 0.02 0.03 0.05 0.11 0.17 0.20 0.24 0.32 0.41 0.49 0.53 0.55 0.56 0.61 0.83 1.17 1.30 1.14 0.93 0.80 0.75 0.74 0.75 0.83 0.94 1.00 1.03 1.08 0.94 0.82 0.84
0.02 0.02 0.02 0.03 0.04 0.03 0.03 0.02 0.02 0.03 0.02 0.02 0.03 0.06 0.12 0.19 0.26 0.30 0.33 0.40 0.46 0.49 0.48 0.49 0.50 0.52 0.70 1.11 1.25 0.96 0.68 0.56 0.58 0.64 0.62 0.64 0.76 0.84 0.90 1.03 1.05 1.05 1.12
0.03 0.02 0.03 0.04 0.04 0.04 0.04 0.04 0.03 0.03 0.02 0.04 0.07 0.10 0.14 0.18 0.21 0.24 0.29 0.34 0.32 0.28 0.31 0.37 0.36 0.36 0.48 0.85 0.97 0.69 0.39 0.29 0.34 0.42 0.45 0.46 0.53 0.66 0.68 0.72 0.73 0.81 0.95
0.06 0.05 0.05 0.04 0.03 0.03 0.03 0.03 0.02 0.01 0.02 0.04 0.07 0.10 0.13 0.16 0.15 0.14 0.18 0.21 0.18 0.18 0.21 0.22 0.19 0.17 0.25 0.59 0.77 0.55 0.24 0.18 0.22 0.30 0.35 0.36 0.40 0.53 0.70 0.77 0.65 0.58 0.68
0.06 0.06 0.06 0.04 0.03 0.02 0.02 0.02 0.01 0.01 0.02 0.04 0.05 0.07 0.11 0.14 0.12 0.10 0.11 0.14 0.15 0.14 0.13 0.12 0.09 0.07 0.11 0.40 0.71 0.57 0.23 0.19 0.19 0.24 0.32 0.30 0.27 0.45 0.63 0.68 0.61 0.50 0.53
0.03 0.04 0.04 0.02 0.01 0.01 0.01 0.01 0.00 0.00 0.01 0.02 0.03 0.03 0.04 0.06 0.05 0.04 0.04 0.05 0.06 0.07 0.06 0.05 0.04 0.04 0.05 0.22 0.64 0.70 0.32 0.24 0.19 0.19 0.24 0.33 0.34 0.45 0.54 0.55 0.57 0.60 0.54
0.02 0.02 0.02 0.02 0.01 0.01 0.00 0.00 0.00 0.00 0.00 0.00 0.00 0.00 0.01 0.01 0.01 0.02 0.02 0.03 0.03 0.04 0.04 0.04 0.03 0.03 0.03 0.08 0.40 0.78 0.56 0.34 0.24 0.23 0.27 0.28 0.34 0.41 0.45 0.50 0.56 0.69 0.60
0.02 0.02 0.01 0.01 0.00 0.00 0.00 0.00 0.00 0.00 0.00 0.00 0.00 0.00 0.01 0.01 0.01 0.02 0.03 0.03 0.03 0.04 0.05 0.04 0.04 0.03 0.03 0.07 0.25 0.53 0.66 0.51 0.33 0.29 0.22 0.22 0.27 0.33 0.39 0.42 0.48 0.51 0.52
0.02 0.01 0.01 0.00 0.00 0.00 0.00 0.00 0.00 0.00 0.00 0.00 0.00 0.01 0.01 0.01 0.02 0.03 0.03 0.04 0.05 0.07 0.09 0.08 0.07 0.05 0.05 0.09 0.23 0.28 0.34 0.43 0.38 0.38 0.36 0.26 0.25 0.27 0.24 0.26 0.33 0.36 0.37
0.01 0.01 0.01 0.00 0.00 0.00 0.00 0.00 0.00 0.00 0.00 0.00 0.01 0.01 0.01 0.02 0.02 0.03 0.04 0.05 0.08 0.19 0.23 0.18 0.15 0.12 0.10 0.20 0.37 0.28 0.19 0.25 0.33 0.35 0.31 0.24 0.21 0.19 0.15 0.14 0.17 0.21 0.28
0.01 0.01 0.01 0.00 0.00 0.00 0.00 0.00 0.00 0.00 0.00 0.01 0.01 0.01 0.02 0.03 0.04 0.04 0.04 0.07 0.10 0.27 0.40 0.32 0.31 0.31 0.33 0.41 0.52 0.46 0.41 0.41 0.43 0.44 0.41 0.32 0.25 0.23 0.19 0.15 0.12 0.14 0.20
0.01 0.01 0.01 0.00 0.00 0.00 0.00 0.00 0.00 0.00 0.01 0.02 0.02 0.03 0.04 0.04 0.04 0.05 0.05 0.06 0.08 0.15 0.18 0.20 0.29 0.30 0.40 0.44 0.39 0.40 0.42 0.44 0.44 0.48 0.47 0.31 0.22 0.21 0.20 0.18 0.16 0.14 0.16

GEFSMW_prec_meanprecacc_162.txt.gz
Total_Precipitation_Accumulation
0.00 0.01 0.01 0.02 0.02 0.03 0.03 0.04 0.04 0.04 0.04 0.05 0.06 0.06 0.06 0.05 0.04 0.04 0.04 0.04 0.04 0.04 0.05 0.05 0.04 0.05 0.06 0.07 0.07 0.07 0.07 0.07 0.08 0.11 0.12 0.14 0.17 0.18 0.19 0.24 0.38 0.51 0.54
0.00 0.01 0.01 0.02 0.02 0.02 0.03 0.03 0.03 0.04 0.04 0.03 0.03 0.03 0.03 0.03 0.03 0.03 0.03 0.03 0.03 0.03 0.04 0.04 0.04 0.04 0.04 0.03 0.03 0.04 0.05 0.04 0.03 0.08 0.14 0.10 0.09 0.13 0.14 0.13 0.22 0.34 0.43
0.00 0.01 0.01 0.02 0.02 0.02 0.02 0.03 0.03 0.03 0.03 0.03 0.03 0.03 0.03 0.03 0.03 0.02 0.02 0.02 0.02 0.02 0.02 0.03 0.03 0.03 0.02 0.03 0.03 0.03 0.06 0.07 0.05 0.07 0.22 0.30 0.19 0.11 0.06 0.08 0.13 0.16 0.20
0.00 0.00 0.01 0.01 0.01 0.02 0.02 0.02 0.03 0.03 0.03 0.04 0.04 0.03 0.02 0.02 0.01 0.01 0.01 0.02 0.02 0.03 0.03 0.03 0.03 0.03 0.03 0.04 0.04 0.04 0.06 0.10 0.11 0.08 0.11 0.20 0.24 0.29 0.16 0.04 0.03 0.03 0.05
0.00 0.00 0.01 0.01 0.01 0.02 0.02 0.02 0.03 0.03 0.03 0.03 0.03 0.03 0.01 0.01 0.01 0.01 0.01 0.02 0.02 0.02 0.02 0.03 0.03 0.03 0.04 0.05 0.05 0.06 0.08 0.11 0.15 0.15 0.14 0.14 0.13 0.19 0.29 0.14 0.03 0.04 0.04
0.00 0.00 0.00 0.01 0.01 0.01 0.02 0.03 0.03 0.03 0.04 0.03 0.02 0.03 0.02 0.01 0.01 0.01 0.02 0.02 0.02 0.03 0.02 0.03 0.03 0.04 0.04 0.05 0.07 0.08 0.10 0.11 0.14 0.17 0.19 0.24 0.26 0.21 0.27 0.24 0.08 0.03 0.03
0.00 0.00 0.00 0.01 0.01 0.01 0.02 0.02 0.03 0.03 0.03 0.04 0.03 0.02 0.01 0.01 0.01 0.01 0.02 0.03 0.04 0.03 0.03 0.03 0.04 0.05 0.06 0.07 0.09 0.13 0.14 0.14 0.17 0.19 0.22 0.24 0.25 0.25 0.30 0.33 0.19 0.08 0.03
0.00 0.00 0.00 0.01 0.01 0.00 0.01 0.02 0.02 0.03 0.03 0.03 0.03 0.02 0.01 0.01 0.01 0.01 0.02 0.03 0.04 0.04 0.03 0.04 0.04 0.05 0.07 0.10 0.13 0.16 0.18 0.20 0.22 0.22 0.24 0.26 0.22 0.25 0.31 0.38 0.42 0.32 0.10
0.00 0.00 0.00 0.00 0.01 0.00 0.00 0.01 0.01 0.02 0.02 0.02 0.03 0.03 0.02 0.01 0.01 0.01 0.02 0.03 0.03 0.03 0.04 0.05 0.07 0.09 0.10 0.12 0.14 0.18 0.20 0.23 0.26 0.28 0.30 0.32 0.27 0.27 0.29 0.34 0.48 0.65 0.46
0.00 0.00 0.00 0.00 0.00 0.00 0.00 0.00 0.01 0.02 0.02 0.02 0.02 0.03 0.02 0.01 0.01 0.02 0.02 0.02 0.03 0.03 0.04 0.05 0.09 0.13 0.16 0.18 0.19 0.22 0.22 0.24 0.27 0.31 0.34 0.37 0.37 0.35 0.35 0.36 0.38 0.50 0.62
0.00 0.00 0.00 0.00 0.00 0.00 0.00 0.00 0.01 0.02 0.03 0.02 0.01 0.02 0.03 0.02 0.02 0.02 0.03 0.04 0.04 0.04 0.06 0.08 0.11 0.15 0.20 0.23 0.27 0.28 0.30 0.31 0.30 0.31 0.33 0.35 0.39 0.45 0.45 0.45 0.44 0.43 0.49
0.00 0.00 0.00 0.00 0.00 0.00 0.01 0.01 0.02 0.02 0.02 0.02 0.02 0.01 0.02 0.02 0.03 0.05 0.07 0.07 0.07 0.08 0.10 0.14 0.17 0.22 0.25 0.28 0.34 0.38 0.39 0.44 0.44 0.40 0.40 0.42 0.43 0.48 0.51 0.54 0.53 0.48 0.45
0.01 0.00 0.00 0.00 0.00 0.01 0.01 0.02 0.03 0.02 0.01 0.02 0.03 0.02 0.02 0.03 0.04 0.07 0.11 0.16 0.20 0.23 0.25 0.28 0.33 0.39 0.43 0.45 0.47 0.52 0.60 0.66 0.65 0.63 0.62 0.57 0.56 0.59 0.56 0.58 0.59 0.54 0.48
0.02 0.01 0.00 0.00 0.01 0.01 0.02 0.02 0.02 0.01 0.01 0.02 0.03 0.03 0.03 0.05 0.07 0.10 0.16 0.25 0.35 0.42 0.48 0.52 0.55 0.61 0.69 0.80 0.85 0.84 0.84 0.84 0.81 0.80 0.80 0.80 0.79 0.78 0.76 0.74 0.68 0.64 0.62
0.02 0.02 0.02 0.02 0.02 0.02 0.02 0.02 0.01 0.01 0.02 0.02 0.03 0.05 0.07 0.13 0.19 0.21 0.24 0.32 0.41 0.49 0.53 0.55 0.57 0.62 0.83 1.18 1.30 1.15 0.93 0.80 0.76 0.74 0.76 0.84 0.96 1.02 1.05 1.10 0.96 0.84 0.86
0.02 0.03 0.03 0.04 0.04 0.03 0.03 0.02 0.02 0.03 0.02 0.02 0.04 0.07 0.14 0.21 0.28 0.31 0.34 0.41 0.46 0.49 0.49 0.49 0.50 0.52 0.70 1.12 1.25 0.97 0.68 0.56 0.59 0.65 0.63 0.65 0.78 0.86 0.92 1.05 1.06 1.06 1.12
0.03 0.03 0.04 0.05 0.05 0.05 0.04 0.04 0.04 0.03 0.02 0.04 0.07 0.11 0.15 0.20 0.24 0.26 0.30 0.34 0.32 0.29 0.31 0.37 0.36 0.36 0.48 0.85 0.97 0.69 0.39 0.29 0.34 0.43 0.46 0.46 0.54 0.67 0.69 0.72 0.74 0.81 0.95
0.06 0.06 0.06 0.06 0.04 0.04 0.04 0.04 0.03 0.02 0.03 0.05 0.08 0.11 0.14 0.17 0.16 0.16 0.20 0.23 0.19 0.19 0.22 0.23 0.20 0.17 0.25 0.59 0.77 0.55 0.25 0.18 0.23 0.31 0.36 0.37 0.40 0.53 0.71 0.77 0.65 0.58 0.69
0.07 0.07 0.07 0.05 0.04 0.04 0.04 0.03 0.02 0.01 0.03 0.05 0.06 0.08 0.11 0.15 0.13 0.11 0.13 0.16 0.16 0.15 0.14 0.12 0.09 0.07 0.11 0.41 0.72 0.58 0.23 0.20 0.20 0.25 0.32 0.31 0.27 0.45 0.63 0.69 0.62 0.50 0.53
0.05 0.05 0.05 0.03 0.02 0.02 0.02 0.02 0.01 0.01 0.02 0.03 0.04 0.04 0.05 0.07 0.06 0.04 0.04 0.06 0.07 0.08 0.07 0.06 0.05 0.04 0.05 0.23 0.64 0.71 0.32 0.25 0.20 0.20 0.25 0.34 0.35 0.46 0.54 0.55 0.57 0.60 0.54
0.04 0.04 0.04 0.03 0.02 0.01 0.01 0.01 0.01 0.01 0.01 0.01 0.01 0.01 0.01 0.02 0.02 0.02 0.02 0.03 0.04 0.05 0.05 0.05 0.04 0.04 0.04 0.09 0.41 0.79 0.56 0.34 0.24 0.23 0.27 0.29 0.35 0.41 0.46 0.51 0.57 0.69 0.61
0.04 0.03 0.03 0.02 0.01 0.01 0.01 0.01 0.01 0.01 0.01 0.01 0.01 0.01 0.01 0.02 0.02 0.03 0.03 0.03 0.04 0.05 0.06 0.05 0.05 0.04 0.04 0.08 0.26 0.54 0.67 0.52 0.33 0.29 0.22 0.22 0.28 0.33 0.39 0.42 0.48 0.51 0.52
0.04 0.03 0.03 0.02 0.01 0.01 0.01 0.01 0.01 0.01 0.01 0.01 0.01 0.02 0.02 0.02 0.03 0.04 0.05 0.05 0.06 0.08 0.09 0.09 0.08 0.06 0.06 0.10 0.25 0.29 0.34 0.43 0.39 0.39 0.37 0.26 0.26 0.27 0.25 0.26 0.34 0.37 0.38
0.03 0.03 0.02 0.02 0.01 0.01 0.01 0.01 0.01 0.01 0.02 0.02 0.02 0.02 0.03 0.03 0.04 0.05 0.06 0.07 0.10 0.20 0.24 0.19 0.16 0.12 0.11 0.21 0.37 0.28 0.20 0.26 0.34 0.35 0.32 0.25 0.22 0.20 0.16 0.15 0.17 0.21 0.28
0.03 0.02 0.02 0.02 0.01 0.01 0.01 0.01 0.01 0.01 0.02 0.02 0.02 0.03 0.03 0.04 0.05 0.05 0.05 0.08 0.11 0.29 0.41 0.32 0.31 0.31 0.33 0.41 0.53 0.46 0.41 0.42 0.44 0.44 0.41 0.32 0.26 0.24 0.20 0.15 0.12 0.15 0.21
0.04 0.03 0.02 0.02 0.02 0.01 0.01 0.01 0.01 0.01 0.02 0.03 0.03 0.04 0.05 0.05 0.06 0.06 0.06 0.08 0.10 0.17 0.20 0.21 0.29 0.30 0.41 0.44 0.39 0.40 0.43 0.44 0.45 0.49 0.48 0.31 0.23 0.22 0.20 0.18 0.16 0.14 0.16

GEFSMW_prec_meanprecacc_168.txt.gz
Total_Precipitation_Accumulation
0.00 0.01 0.03 0.04 0.05 0.06 0.07 0.08 0.09 0.09 0.09 0.13 0.12 0.10 0.08 0.07 0.06 0.05 0.04 0.04 0.04 0.04 0.05 0.05 0.04 0.05 0.06 0.07 0.07 0.07 0.07 0.07 0.08 0.11 0.12 0.14 0.17 0.18 0.19 0.24 0.38 0.51 0.54
0.00 0.01 0.03 0.04 0.05 0.06 0.07 0.07 0.08 0.09 0.08 0.09 0.07 0.05 0.04 0.04 0.04 0.04 0.04 0.03 0.03 0.03 0.04 0.04 0.04 0.04 0.04 0.03 0.03 0.04 0.05 0.04 0.03 0.08 0.14 0.10 0.09 0.13 0.14 0.13 0.22 0.34 0.43
0.01 0.01 0.02 0.03 0.05 0.05 0.06 0.07 0.08 0.07 0.08 0.09 0.09 0.08 0.06 0.06 0.05 0.04 0.03 0.02 0.02 0.03 0.03 0.03 0.03 0.03 0.02 0.03 0.03 0.03 0.06 0.07 0.05 0.07 0.22 0.30 0.19 0.11 0.06 0.08 0.13 0.16 0.20
0.01 0.01 0.01 0.02 0.04 0.05 0.06 0.07 0.08 0.08 0.07 0.09 0.09 0.08 0.06 0.04 0.02 0.02 0.02 0.02 0.03 0.03 0.03 0.03 0.03 0.03 0.03 0.04 0.04 0.04 0.06 0.10 0.11 0.08 0.11 0.20 0.24 0.30 0.16 0.04 0.03 0.03 0.05
0.01 0.01 0.01 0.01 0.03 0.05 0.06 0.07 0.08 0.09 0.09 0.09 0.08 0.07 0.05 0.04 0.03 0.02 0.02 0.02 0.02 0.02 0.03 0.03 0.03 0.03 0.04 0.05 0.05 0.06 0.08 0.11 0.15 0.15 0.14 0.14 0.13 0.19 0.29 0.14 0.03 0.04 0.04
0.01 0.01 0.01 0.01 0.02 0.04 0.07 0.08 0.08 0.09 0.11 0.10 0.07 0.05 0.05 0.05 0.05 0.04 0.03 0.02 0.02 0.03 0.02 0.03 0.03 0.04 0.04 0.05 0.07 0.08 0.10 0.11 0.14 0.17 0.20 0.24 0.26 0.21 0.27 0.24 0.08 0.03 0.03
0.01 0.01 0.01 0.02 0.02 0.03 0.06 0.07 0.08 0.08 0.10 0.12 0.09 0.04 0.03 0.04 0.05 0.05 0.04 0.03 0.04 0.04 0.03 0.03 0.04 0.05 0.06 0.07 0.09 0.13 0.14 0.14 0.17 0.20 0.22 0.24 0.25 0.25 0.30 0.33 0.19 0.08 0.03
0.01 0.01 0.01 0.01 0.02 0.03 0.04 0.06 0.07 0.08 0.08 0.10 0.11 0.06 0.03 0.03 0.03 0.04 0.05 0.05 0.05 0.04 0.03 0.04 0.04 0.05 0.07 0.10 0.13 0.16 0.18 0.20 0.22 0.22 0.24 0.26 0.22 0.25 0.31 0.38 0.42 0.33 0.10
0.01 0.01 0.01 0.01 0.01 0.02 0.03 0.04 0.06 0.07 0.07 0.07 0.09 0.10 0.06 0.03 0.02 0.03 0.04 0.05 0.04 0.03 0.04 0.05 0.07 0.09 0.10 0.12 0.14 0.18 0.20 0.23 0.27 0.28 0.30 0.32 0.28 0.27 0.29 0.34 0.48 0.66 0.47
0.01 0.01 0.01 0.01 0.01 0.02 0.03 0.03 0.05 0.06 0.06 0.05 0.06 0.08 0.08 0.05 0.02 0.03 0.03 0.04 0.04 0.04 0.04 0.06 0.09 0.13 0.16 0.18 0.19 0.22 0.22 0.25 0.27 0.31 0.35 0.37 0.37 0.36 0.35 0.36 0.38 0.51 0.63
0.01 0.01 0.01 0.01 0.01 0.02 0.02 0.03 0.05 0.06 0.07 0.06 0.05 0.06 0.07 0.07 0.05 0.04 0.04 0.04 0.05 0.05 0.07 0.08 0.11 0.15 0.20 0.24 0.27 0.28 0.30 0.31 0.30 0.31 0.33 0.35 0.39 0.46 0.45 0.45 0.45 0.44 0.50
0.01 0.01 0.01 0.01 0.01 0.01 0.03 0.04 0.05 0.06 0.06 0.06 0.06 0.05 0.05 0.06 0.07 0.08 0.08 0.07 0.08 0.09 0.11 0.14 0.17 0.22 0.25 0.28 0.34 0.38 0.39 0.44 0.44 0.40 0.40 0.42 0.43 0.48 0.51 0.55 0.54 0.49 0.46
0.02 0.02 0.02 0.01 0.01 0.01 0.02 0.04 0.05 0.05 0.05 0.06 0.06 0.05 0.05 0.05 0.08 0.10 0.13 0.16 0.20 0.23 0.26 0.28 0.33 0.40 0.43 0.45 0.48 0.52 0.60 0.66 0.65 0.63 0.62 0.58 0.56 0.59 0.57 0.59 0.59 0.55 0.48
0.03 0.03 0.03 0.02 0.02 0.02 0.03 0.04 0.04 0.04 0.05 0.06 0.07 0.07 0.06 0.07 0.10 0.14 0.19 0.27 0.36 0.43 0.48 0.53 0.56 0.61 0.69 0.80 0.85 0.84 0.84 0.84 0.81 0.80 0.80 0.80 0.79 0.79 0.76 0.75 0.68 0.65 0.64
0.03 0.03 0.03 0.04 0.04 0.03 0.03 0.03 0.03 0.04 0.05 0.05 0.07 0.08 0.10 0.15 0.21 0.24 0.28 0.35 0.43 0.50 0.54 0.56 0.57 0.62 0.84 1.18 1.30 1.15 0.93 0.80 0.76 0.74 0.76 0.84 0.96 1.02 1.06 1.10 0.97 0.85 0.87
0.03 0.03 0.04 0.05 0.06 0.04 0.03 0.03 0.03 0.04 0.05 0.04 0.06 0.10 0.16 0.23 0.31 0.34 0.38 0.45 0.49 0.51 0.50 0.50 0.51 0.53 0.71 1.13 1.26 0.97 0.69 0.57 0.59 0.65 0.63 0.65 0.79 0.86 0.93 1.06 1.07 1.07 1.13
0.04 0.04 0.05 0.06 0.07 0.06 0.05 0.04 0.05 0.04 0.03 0.06 0.08 0.12 0.17 0.21 0.25 0.29 0.35 0.39 0.37 0.31 0.33 0.38 0.37 0.38 0.50 0.87 0.98 0.70 0.40 0.30 0.35 0.43 0.46 0.47 0.55 0.67 0.69 0.73 0.75 0.82 0.96
0.07 0.07 0.07 0.06 0.05 0.05 0.05 0.04 0.04 0.03 0.03 0.06 0.09 0.12 0.15 0.19 0.18 0.19 0.24 0.28 0.24 0.22 0.24 0.24 0.20 0.18 0.26 0.61 0.79 0.57 0.26 0.19 0.24 0.31 0.36 0.38 0.41 0.54 0.71 0.78 0.66 0.59 0.69
0.08 0.08 0.07 0.06 0.05 0.05 0.04 0.04 0.03 0.02 0.03 0.05 0.06 0.09 0.12 0.16 0.14 0.13 0.16 0.21 0.22 0.20 0.17 0.14 0.10 0.08 0.12 0.42 0.74 0.60 0.25 0.20 0.20 0.25 0.33 0.32 0.28 0.46 0.64 0.69 0.62 0.50 0.53
0.06 0.06 0.06 0.04 0.03 0.03 0.03 0.03 0.02 0.02 0.03 0.03 0.04 0.04 0.06 0.07 0.07 0.05 0.07 0.10 0.12 0.13 0.12 0.09 0.07 0.05 0.06 0.24 0.66 0.73 0.34 0.26 0.21 0.21 0.26 0.35 0.36 0.47 0.55 0.56 0.58 0.61 0.54
0.05 0.05 0.05 0.04 0.03 0.03 0.03 0.02 0.02 0.02 0.02 0.02 0.02 0.01 0.02 0.02 0.02 0.03 0.04 0.06 0.08 0.09 0.09 0.08 0.07 0.05 0.05 0.11 0.42 0.80 0.57 0.35 0.25 0.24 0.28 0.30 0.36 0.42 0.46 0.51 0.57 0.70 0.61
0.04 0.04 0.04 0.03 0.02 0.03 0.03 0.02 0.02 0.02 0.02 0.01 0.02 0.02 0.02 0.02 0.03 0.04 0.05 0.05 0.07 0.09 0.10 0.10 0.08 0.07 0.06 0.10 0.28 0.55 0.68 0.53 0.34 0.30 0.23 0.23 0.29 0.34 0.40 0.43 0.49 0.52 0.53
0.05 0.04 0.03 0.03 0.02 0.02 0.03 0.03 0.03 0.02 0.02 0.02 0.02 0.03 0.03 0.03 0.04 0.05 0.06 0.07 0.08 0.11 0.12 0.13 0.12 0.10 0.09 0.13 0.28 0.32 0.37 0.46 0.41 0.40 0.38 0.28 0.27 0.28 0.26 0.28 0.35 0.38 0.40
0.05 0.04 0.03 0.03 0.02 0.02 0.02 0.03 0.03 0.03 0.03 0.03 0.03 0.03 0.04 0.05 0.05 0.06 0.07 0.09 0.12 0.22 0.26 0.21 0.19 0.16 0.15 0.24 0.40 0.32 0.24 0.30 0.37 0.38 0.34 0.26 0.24 0.21 0.17 0.16 0.19 0.23 0.29
0.06 0.04 0.03 0.03 0.03 0.02 0.02 0.02 0.03 0.04 0.03 0.04 0.04 0.05 0.05 0.06 0.07 0.07 0.07 0.10 0.13 0.30 0.43 0.33 0.33 0.34 0.38 0.45 0.56 0.50 0.44 0.44 0.46 0.46 0.43 0.34 0.27 0.25 0.22 0.17 0.14 0.16 0.22
0.06 0.05 0.03 0.03 0.03 0.03 0.02 0.03 0.03 0.03 0.04 0.06 0.06 0.06 0.07 0.07 0.08 0.08 0.09 0.11 0.13 0.19 0.22 0.24 0.31 0.32 0.43 0.48 0.43 0.44 0.46 0.47 0.48 0.51 0.50 0.33 0.24 0.23 0.21 0.20 0.17 0.15 0.17

GEFSMW_prec_meanprecacc_174.txt.gz
Total_Precipitation_Accumulation
0.02 0.03 0.06 0.07 0.08 0.09 0.12 0.13 0.15 0.18 0.19 0.24 0.29 0.26 0.26 0.24 0.21 0.18 0.19 0.14 0.10 0.08 0.06 0.06 0.05 0.05 0.07 0.07 0.07 0.07 0.07 0.07 0.08 0.11 0.12 0.14 0.17 0.18 0.19 0.24 0.38 0.51 0.54
0.03 0.03 0.05 0.09 0.10 0.10 0.11 0.12 0.14 0.16 0.16 0.17 0.21 0.21 0.19 0.18 0.20 0.19 0.16 0.16 0.11 0.09 0.07 0.05 0.04 0.04 0.04 0.03 0.03 0.04 0.05 0.04 0.03 0.08 0.14 0.10 0.09 0.13 0.14 0.13 0.22 0.34 0.43
0.03 0.02 0.03 0.07 0.10 0.11 0.11 0.11 0.14 0.14 0.14 0.16 0.20 0.23 0.24 0.21 0.20 0.21 0.16 0.12 0.11 0.09 0.07 0.05 0.04 0.03 0.02 0.03 0.03 0.03 0.06 0.07 0.05 0.07 0.22 0.30 0.19 0.11 0.06 0.08 0.13 0.16 0.20
0.03 0.02 0.02 0.04 0.09 0.11 0.13 0.13 0.16 0.16 0.14 0.16 0.20 0.20 0.21 0.20 0.16 0.15 0.14 0.11 0.09 0.07 0.07 0.06 0.04 0.03 0.03 0.04 0.04 0.04 0.06 0.10 0.11 0.08 0.11 0.20 0.25 0.30 0.16 0.04 0.03 0.03 0.05
0.02 0.02 0.02 0.03 0.06 0.10 0.13 0.14 0.16 0.18 0.16 0.16 0.17 0.18 0.16 0.17 0.16 0.15 0.14 0.12 0.08 0.06 0.05 0.05 0.05 0.04 0.04 0.05 0.05 0.06 0.08 0.11 0.15 0.16 0.14 0.14 0.13 0.19 0.29 0.14 0.03 0.04 0.04
0.02 0.02 0.02 0.02 0.05 0.09 0.13 0.14 0.16 0.19 0.21 0.18 0.17 0.15 0.15 0.14 0.17 0.18 0.18 0.15 0.10 0.07 0.05 0.04 0.05 0.05 0.05 0.05 0.07 0.08 0.10 0.11 0.14 0.17 0.20 0.24 0.26 0.21 0.28 0.24 0.08 0.04 0.03
0.02 0.02 0.02 0.03 0.04 0.07 0.11 0.13 0.15 0.18 0.22 0.22 0.18 0.14 0.12 0.12 0.13 0.15 0.17 0.17 0.15 0.10 0.07 0.05 0.05 0.06 0.07 0.08 0.10 0.13 0.14 0.14 0.17 0.20 0.22 0.24 0.25 0.25 0.30 0.34 0.19 0.08 0.03
0.02 0.02 0.02 0.03 0.03 0.06 0.10 0.13 0.14 0.16 0.20 0.20 0.20 0.16 0.12 0.11 0.12 0.12 0.15 0.16 0.14 0.11 0.10 0.07 0.06 0.07 0.09 0.11 0.13 0.17 0.18 0.20 0.23 0.22 0.24 0.26 0.23 0.25 0.31 0.38 0.43 0.33 0.10
0.02 0.02 0.02 0.03 0.04 0.06 0.08 0.11 0.14 0.16 0.19 0.16 0.18 0.20 0.16 0.12 0.11 0.11 0.11 0.13 0.11 0.08 0.09 0.10 0.11 0.11 0.12 0.13 0.15 0.18 0.20 0.23 0.27 0.29 0.30 0.32 0.28 0.27 0.29 0.34 0.48 0.66 0.47
0.03 0.03 0.02 0.03 0.04 0.06 0.07 0.08 0.13 0.15 0.18 0.15 0.15 0.18 0.20 0.16 0.13 0.13 0.11 0.11 0.09 0.07 0.08 0.10 0.13 0.16 0.19 0.19 0.20 0.22 0.22 0.25 0.27 0.31 0.35 0.37 0.37 0.36 0.35 0.36 0.38 0.51 0.63
0.02 0.03 0.03 0.03 0.04 0.06 0.07 0.07 0.11 0.16 0.19 0.17 0.14 0.17 0.20 0.19 0.17 0.15 0.14 0.13 0.10 0.08 0.09 0.12 0.15 0.18 0.22 0.25 0.28 0.29 0.30 0.31 0.30 0.31 0.34 0.36 0.40 0.46 0.45 0.45 0.45 0.44 0.51
0.02 0.03 0.03 0.02 0.04 0.06 0.08 0.07 0.09 0.14 0.18 0.18 0.16 0.16 0.19 0.19 0.19 0.19 0.18 0.17 0.14 0.13 0.13 0.16 0.20 0.25 0.27 0.30 0.36 0.39 0.40 0.45 0.44 0.40 0.40 0.42 0.44 0.48 0.51 0.55 0.54 0.49 0.46
0.03 0.03 0.03 0.03 0.03 0.05 0.08 0.08 0.09 0.11 0.15 0.19 0.19 0.19 0.20 0.19 0.18 0.20 0.24 0.26 0.28 0.29 0.28 0.30 0.35 0.42 0.45 0.47 0.50 0.54 0.61 0.67 0.66 0.63 0.63 0.58 0.56 0.59 0.57 0.59 0.59 0.55 0.49
0.03 0.04 0.04 0.04 0.04 0.05 0.07 0.08 0.07 0.09 0.13 0.20 0.24 0.23 0.22 0.20 0.20 0.23 0.27 0.36 0.44 0.50 0.53 0.56 0.57 0.63 0.71 0.82 0.88 0.87 0.87 0.86 0.82 0.80 0.80 0.80 0.79 0.79 0.76 0.75 0.69 0.65 0.64
0.03 0.04 0.05 0.05 0.05 0.06 0.06 0.07 0.06 0.07 0.11 0.17 0.22 0.26 0.29 0.30 0.33 0.33 0.36 0.42 0.50 0.58 0.61 0.60 0.60 0.64 0.86 1.20 1.32 1.17 0.97 0.84 0.79 0.77 0.77 0.84 0.97 1.02 1.06 1.11 0.97 0.85 0.88
0.03 0.04 0.05 0.06 0.07 0.06 0.07 0.06 0.07 0.08 0.09 0.14 0.18 0.24 0.36 0.44 0.48 0.46 0.46 0.52 0.56 0.59 0.58 0.57 0.55 0.56 0.73 1.15 1.28 1.00 0.72 0.60 0.63 0.68 0.66 0.67 0.80 0.87 0.93 1.06 1.07 1.07 1.14
0.04 0.04 0.05 0.07 0.07 0.07 0.07 0.08 0.08 0.08 0.07 0.13 0.18 0.22 0.32 0.41 0.45 0.45 0.44 0.45 0.43 0.39 0.41 0.46 0.43 0.40 0.51 0.89 1.00 0.73 0.43 0.33 0.38 0.47 0.49 0.49 0.57 0.69 0.70 0.74 0.76 0.83 0.97
0.07 0.07 0.07 0.06 0.05 0.06 0.06 0.07 0.07 0.05 0.06 0.10 0.16 0.20 0.26 0.33 0.34 0.35 0.36 0.34 0.29 0.29 0.33 0.32 0.27 0.22 0.28 0.62 0.81 0.59 0.29 0.22 0.27 0.34 0.39 0.40 0.44 0.56 0.73 0.79 0.67 0.60 0.71
0.08 0.08 0.08 0.06 0.05 0.05 0.05 0.05 0.05 0.05 0.06 0.08 0.10 0.14 0.21 0.28 0.28 0.26 0.29 0.29 0.27 0.25 0.23 0.23 0.19 0.14 0.15 0.44 0.76 0.63 0.27 0.24 0.24 0.29 0.37 0.35 0.31 0.49 0.67 0.71 0.64 0.52 0.54
0.06 0.07 0.06 0.04 0.03 0.03 0.03 0.03 0.04 0.05 0.05 0.05 0.06 0.07 0.10 0.16 0.17 0.15 0.15 0.17 0.18 0.17 0.17 0.15 0.15 0.14 0.11 0.27 0.69 0.76 0.37 0.29 0.24 0.24 0.29 0.39 0.39 0.51 0.58 0.58 0.60 0.62 0.55
0.05 0.05 0.05 0.04 0.03 0.03 0.03 0.02 0.03 0.03 0.04 0.04 0.04 0.03 0.04 0.08 0.10 0.10 0.10 0.12 0.12 0.14 0.14 0.13 0.12 0.12 0.12 0.16 0.46 0.84 0.61 0.38 0.29 0.28 0.31 0.33 0.40 0.47 0.51 0.54 0.59 0.72 0.63
0.05 0.04 0.04 0.03 0.02 0.03 0.03 0.03 0.03 0.03 0.03 0.04 0.04 0.04 0.04 0.05 0.08 0.10 0.10 0.10 0.11 0.13 0.16 0.15 0.14 0.13 0.14 0.17 0.33 0.60 0.73 0.57 0.37 0.33 0.26 0.27 0.34 0.39 0.45 0.48 0.53 0.56 0.57
0.05 0.04 0.04 0.03 0.02 0.03 0.04 0.03 0.03 0.03 0.03 0.03 0.05 0.05 0.05 0.05 0.07 0.10 0.12 0.12 0.12 0.15 0.18 0.19 0.17 0.15 0.17 0.23 0.36 0.39 0.44 0.53 0.46 0.44 0.42 0.32 0.31 0.34 0.31 0.33 0.41 0.43 0.44
0.06 0.04 0.04 0.04 0.03 0.02 0.03 0.04 0.04 0.04 0.04 0.04 0.05 0.06 0.07 0.07 0.08 0.09 0.12 0.14 0.16 0.27 0.31 0.27 0.24 0.21 0.20 0.31 0.48 0.39 0.32 0.38 0.44 0.44 0.40 0.32 0.29 0.26 0.22 0.22 0.25 0.29 0.35
0.07 0.05 0.04 0.04 0.04 0.03 0.03 0.03 0.04 0.05 0.05 0.05 0.06 0.06 0.08 0.09 0.10 0.10 0.10 0.14 0.17 0.34 0.47 0.38 0.38 0.38 0.41 0.51 0.63 0.56 0.51 0.51 0.53 0.53 0.48 0.38 0.31 0.29 0.26 0.22 0.19 0.21 0.27
0.07 0.05 0.04 0.04 0.04 0.04 0.03 0.04 0.04 0.05 0.07 0.08 0.08 0.08 0.10 0.12 0.12 0.11 0.12 0.15 0.17 0.23 0.26 0.28 0.36 0.37 0.48 0.53 0.49 0.49 0.52 0.53 0.55 0.58 0.55 0.37 0.27 0.26 0.25 0.24 0.22 0.19 0.21

GEFSMW_prec_meanprecacc_180.txt.gz
Total_Precipitation_Accumulation
0.05 0.06 0.10 0.11 0.14 0.16 0.21 0.26 0.27 0.29 0.34 0.39 0.45 0.44 0.45 0.41 0.38 0.33 0.34 0.33 0.33 0.32 0.29 0.24 0.18 0.13 0.11 0.09 0.07 0.07 0.07 0.07 0.08 0.11 0.12 0.14 0.17 0.18 0.19 0.24 0.38 0.51 0.54
0.07 0.07 0.09 0.14 0.15 0.17 0.20 0.23 0.26 0.25 0.27 0.30 0.35 0.37 0.37 0.37 0.38 0.34 0.31 0.34 0.33 0.33 0.33 0.29 0.22 0.15 0.11 0.07 0.04 0.04 0.05 0.04 0.03 0.08 0.14 0.10 0.09 0.13 0.14 0.13 0.22 0.34 0.43
0.08 0.07 0.08 0.13 0.17 0.18 0.20 0.22 0.27 0.23 0.25 0.29 0.35 0.40 0.43 0.44 0.43 0.40 0.32 0.30 0.31 0.30 0.28 0.26 0.24 0.19 0.13 0.09 0.06 0.04 0.06 0.07 0.05 0.07 0.22 0.30 0.19 0.11 0.06 0.08 0.13 0.16 0.20
0.08 0.07 0.07 0.11 0.16 0.18 0.22 0.23 0.29 0.31 0.27 0.32 0.34 0.34 0.36 0.39 0.36 0.34 0.31 0.29 0.30 0.29 0.26 0.23 0.22 0.20 0.17 0.13 0.10 0.07 0.07 0.10 0.11 0.08 0.11 0.20 0.25 0.30 0.16 0.04 0.03 0.03 0.05
0.08 0.07 0.06 0.09 0.14 0.18 0.22 0.26 0.29 0.34 0.34 0.34 0.34 0.30 0.29 0.31 0.34 0.35 0.32 0.28 0.30 0.30 0.26 0.21 0.18 0.18 0.17 0.14 0.13 0.12 0.11 0.12 0.15 0.16 0.14 0.14 0.13 0.19 0.30 0.14 0.03 0.04 0.04
0.08 0.08 0.06 0.08 0.12 0.16 0.20 0.23 0.28 0.32 0.38 0.38 0.37 0.30 0.27 0.27 0.34 0.37 0.37 0.30 0.30 0.32 0.29 0.22 0.16 0.15 0.16 0.15 0.14 0.13 0.14 0.14 0.15 0.17 0.20 0.24 0.26 0.21 0.28 0.24 0.08 0.04 0.03
0.09 0.08 0.07 0.09 0.11 0.15 0.19 0.22 0.26 0.30 0.37 0.40 0.40 0.34 0.26 0.24 0.27 0.31 0.34 0.31 0.30 0.31 0.32 0.28 0.22 0.17 0.16 0.16 0.16 0.17 0.17 0.16 0.18 0.20 0.22 0.24 0.25 0.25 0.30 0.34 0.20 0.08 0.03
0.09 0.09 0.08 0.10 0.10 0.12 0.18 0.23 0.26 0.29 0.34 0.36 0.39 0.37 0.30 0.25 0.23 0.24 0.27 0.29 0.26 0.26 0.28 0.30 0.28 0.23 0.19 0.19 0.19 0.20 0.20 0.21 0.23 0.23 0.24 0.26 0.23 0.25 0.31 0.38 0.43 0.33 0.10
0.08 0.10 0.09 0.10 0.10 0.12 0.15 0.21 0.26 0.30 0.35 0.34 0.35 0.38 0.34 0.28 0.23 0.22 0.21 0.24 0.24 0.22 0.23 0.28 0.30 0.28 0.26 0.24 0.23 0.22 0.22 0.25 0.27 0.29 0.30 0.32 0.28 0.27 0.29 0.34 0.48 0.67 0.47
0.07 0.09 0.09 0.10 0.11 0.12 0.13 0.16 0.25 0.29 0.34 0.34 0.35 0.37 0.38 0.33 0.27 0.25 0.23 0.20 0.21 0.23 0.23 0.24 0.28 0.32 0.33 0.31 0.30 0.29 0.26 0.28 0.29 0.32 0.35 0.37 0.37 0.36 0.35 0.36 0.39 0.51 0.64
0.07 0.08 0.07 0.08 0.11 0.13 0.13 0.15 0.21 0.30 0.36 0.36 0.35 0.39 0.41 0.37 0.33 0.31 0.27 0.24 0.21 0.22 0.25 0.26 0.27 0.31 0.35 0.37 0.39 0.37 0.36 0.35 0.33 0.32 0.34 0.36 0.40 0.46 0.46 0.45 0.45 0.45 0.51
0.07 0.06 0.05 0.06 0.10 0.11 0.14 0.15 0.19 0.27 0.34 0.38 0.36 0.38 0.42 0.40 0.37 0.37 0.34 0.31 0.29 0.27 0.28 0.32 0.33 0.35 0.38 0.41 0.45 0.46 0.47 0.50 0.48 0.43 0.42 0.43 0.44 0.49 0.52 0.55 0.55 0.50 0.47
0.06 0.04 0.04 0.05 0.08 0.09 0.12 0.14 0.17 0.21 0.29 0.38 0.40 0.39 0.42 0.42 0.39 0.39 0.42 0.43 0.45 0.46 0.44 0.46 0.49 0.52 0.53 0.55 0.57 0.60 0.66 0.72 0.71 0.68 0.66 0.60 0.58 0.61 0.58 0.60 0.60 0.56 0.49
0.05 0.04 0.04 0.05 0.07 0.09 0.10 0.13 0.13 0.17 0.24 0.36 0.44 0.44 0.43 0.43 0.42 0.42 0.45 0.55 0.63 0.68 0.72 0.72 0.71 0.73 0.78 0.89 0.94 0.92 0.91 0.89 0.86 0.84 0.84 0.84 0.83 0.82 0.79 0.77 0.70 0.66 0.65
0.04 0.04 0.05 0.06 0.07 0.08 0.09 0.11 0.12 0.14 0.20 0.30 0.40 0.45 0.48 0.54 0.56 0.53 0.50 0.58 0.70 0.77 0.79 0.77 0.76 0.77 0.94 1.27 1.38 1.22 1.00 0.86 0.81 0.78 0.79 0.87 0.99 1.05 1.08 1.13 1.00 0.88 0.90
0.03 0.04 0.05 0.07 0.08 0.08 0.09 0.09 0.11 0.15 0.18 0.25 0.33 0.40 0.52 0.61 0.70 0.67 0.63 0.64 0.71 0.75 0.74 0.72 0.70 0.71 0.84 1.22 1.35 1.06 0.75 0.62 0.65 0.70 0.67 0.68 0.81 0.89 0.95 1.09 1.10 1.10 1.16
0.04 0.04 0.05 0.07 0.08 0.08 0.08 0.09 0.11 0.14 0.17 0.24 0.33 0.36 0.46 0.55 0.62 0.63 0.64 0.62 0.56 0.53 0.55 0.58 0.54 0.53 0.63 0.97 1.06 0.78 0.48 0.36 0.40 0.47 0.50 0.50 0.57 0.70 0.72 0.76 0.79 0.86 1.00
0.07 0.07 0.07 0.06 0.05 0.06 0.07 0.08 0.09 0.11 0.16 0.22 0.31 0.32 0.39 0.47 0.48 0.51 0.53 0.53 0.44 0.42 0.46 0.43 0.35 0.30 0.36 0.70 0.87 0.64 0.34 0.26 0.29 0.35 0.40 0.41 0.45 0.57 0.75 0.81 0.70 0.63 0.73
0.08 0.08 0.08 0.06 0.05 0.05 0.05 0.06 0.07 0.08 0.13 0.19 0.26 0.29 0.33 0.42 0.41 0.41 0.45 0.46 0.44 0.38 0.33 0.31 0.26 0.20 0.21 0.51 0.82 0.68 0.32 0.27 0.27 0.31 0.38 0.37 0.32 0.52 0.70 0.73 0.66 0.54 0.56
0.06 0.07 0.06 0.04 0.03 0.03 0.03 0.03 0.05 0.08 0.11 0.14 0.19 0.23 0.24 0.30 0.30 0.30 0.31 0.33 0.32 0.30 0.27 0.23 0.21 0.19 0.17 0.34 0.75 0.82 0.42 0.33 0.27 0.26 0.32 0.42 0.42 0.54 0.62 0.60 0.62 0.65 0.57
0.05 0.05 0.05 0.04 0.03 0.03 0.03 0.03 0.04 0.06 0.08 0.10 0.13 0.17 0.18 0.20 0.22 0.25 0.27 0.27 0.27 0.26 0.24 0.21 0.18 0.17 0.18 0.22 0.52 0.89 0.67 0.43 0.32 0.30 0.34 0.36 0.45 0.51 0.55 0.58 0.62 0.75 0.66
0.05 0.04 0.04 0.03 0.02 0.03 0.04 0.03 0.03 0.05 0.06 0.08 0.11 0.15 0.18 0.16 0.19 0.21 0.24 0.23 0.26 0.27 0.25 0.22 0.21 0.19 0.19 0.23 0.39 0.66 0.79 0.63 0.42 0.37 0.29 0.30 0.39 0.44 0.50 0.52 0.57 0.60 0.61
0.05 0.04 0.04 0.03 0.02 0.03 0.04 0.04 0.04 0.06 0.05 0.06 0.08 0.13 0.18 0.15 0.17 0.19 0.23 0.23 0.25 0.30 0.31 0.27 0.24 0.21 0.22 0.28 0.43 0.47 0.53 0.61 0.52 0.49 0.46 0.36 0.37 0.39 0.35 0.37 0.45 0.47 0.48
0.06 0.05 0.04 0.04 0.04 0.03 0.03 0.04 0.04 0.06 0.06 0.05 0.07 0.11 0.16 0.17 0.16 0.18 0.21 0.23 0.25 0.39 0.45 0.38 0.32 0.27 0.26 0.38 0.56 0.49 0.42 0.48 0.52 0.51 0.48 0.40 0.37 0.33 0.28 0.27 0.29 0.32 0.38
0.07 0.05 0.04 0.04 0.04 0.03 0.03 0.04 0.04 0.06 0.07 0.07 0.08 0.10 0.14 0.17 0.17 0.18 0.19 0.22 0.25 0.44 0.58 0.48 0.45 0.44 0.47 0.57 0.71 0.65 0.60 0.61 0.62 0.62 0.57 0.47 0.38 0.35 0.31 0.26 0.23 0.25 0.31
0.07 0.06 0.04 0.04 0.05 0.04 0.04 0.04 0.05 0.06 0.09 0.10 0.10 0.12 0.15 0.18 0.18 0.19 0.20 0.25 0.27 0.34 0.36 0.38 0.44 0.43 0.53 0.59 0.57 0.59 0.62 0.65 0.66 0.67 0.64 0.44 0.33 0.30 0.28 0.27 0.25 0.23 0.25

GEFSMW_prec_meanprecacc_186.txt.gz
Total_Precipitation_Accumulation
0.08 0.09 0.13 0.14 0.18 0.24 0.31 0.36 0.36 0.41 0.50 0.56 0.62 0.58 0.55 0.51 0.48 0.42 0.45 0.44 0.42 0.40 0.38 0.34 0.30 0.27 0.24 0.21 0.19 0.18 0.16 0.14 0.13 0.15 0.13 0.15 0.18 0.18 0.19 0.25 0.38 0.51 0.54
0.09 0.09 0.12 0.17 0.19 0.23 0.28 0.33 0.35 0.36 0.42 0.44 0.49 0.51 0.48 0.46 0.47 0.42 0.41 0.46 0.44 0.42 0.42 0.39 0.34 0.27 0.24 0.21 0.18 0.17 0.17 0.13 0.09 0.11 0.15 0.12 0.10 0.14 0.14 0.13 0.22 0.34 0.43
0.09 0.08 0.10 0.16 0.20 0.23 0.27 0.30 0.37 0.34 0.37 0.42 0.52 0.55 0.55 0.54 0.53 0.49 0.42 0.41 0.42 0.41 0.38 0.36 0.35 0.31 0.25 0.22 0.19 0.17 0.18 0.18 0.12 0.11 0.24 0.31 0.20 0.12 0.06 0.08 0.13 0.16 0.20
0.09 0.08 0.09 0.14 0.19 0.22 0.29 0.31 0.38 0.42 0.38 0.44 0.51 0.48 0.47 0.49 0.45 0.43 0.40 0.40 0.42 0.40 0.38 0.35 0.32 0.30 0.29 0.26 0.23 0.21 0.18 0.20 0.20 0.14 0.14 0.21 0.25 0.30 0.16 0.04 0.03 0.03 0.05
0.09 0.08 0.07 0.12 0.18 0.23 0.29 0.34 0.38 0.45 0.46 0.45 0.47 0.45 0.39 0.40 0.44 0.47 0.47 0.44 0.45 0.45 0.40 0.35 0.32 0.29 0.27 0.26 0.26 0.26 0.25 0.25 0.25 0.23 0.19 0.16 0.14 0.19 0.30 0.14 0.04 0.04 0.04
0.10 0.09 0.08 0.11 0.16 0.22 0.28 0.32 0.37 0.42 0.50 0.51 0.50 0.45 0.40 0.38 0.44 0.49 0.54 0.52 0.53 0.52 0.47 0.40 0.34 0.28 0.26 0.25 0.26 0.27 0.28 0.28 0.26 0.25 0.25 0.27 0.28 0.22 0.28 0.25 0.08 0.04 0.03
0.12 0.11 0.10 0.13 0.15 0.20 0.27 0.30 0.33 0.39 0.48 0.54 0.54 0.48 0.40 0.37 0.39 0.44 0.49 0.52 0.54 0.56 0.53 0.46 0.39 0.32 0.28 0.26 0.27 0.31 0.31 0.30 0.30 0.29 0.28 0.28 0.27 0.26 0.31 0.34 0.20 0.08 0.03
0.12 0.12 0.11 0.13 0.15 0.18 0.24 0.29 0.32 0.35 0.44 0.50 0.52 0.50 0.44 0.39 0.36 0.37 0.42 0.48 0.48 0.47 0.49 0.49 0.46 0.38 0.32 0.31 0.31 0.33 0.34 0.34 0.35 0.32 0.31 0.31 0.26 0.27 0.32 0.38 0.43 0.33 0.11
0.10 0.13 0.13 0.15 0.15 0.17 0.21 0.27 0.31 0.36 0.43 0.46 0.49 0.51 0.48 0.44 0.38 0.37 0.37 0.42 0.45 0.42 0.41 0.46 0.49 0.48 0.42 0.36 0.35 0.34 0.33 0.35 0.38 0.38 0.37 0.37 0.31 0.29 0.30 0.34 0.48 0.67 0.48
0.10 0.13 0.12 0.16 0.18 0.19 0.19 0.22 0.31 0.37 0.44 0.46 0.49 0.52 0.51 0.47 0.44 0.42 0.39 0.38 0.41 0.43 0.40 0.40 0.45 0.49 0.51 0.49 0.45 0.42 0.37 0.36 0.37 0.39 0.41 0.42 0.40 0.38 0.37 0.37 0.39 0.52 0.64
0.09 0.11 0.10 0.14 0.19 0.21 0.20 0.20 0.26 0.36 0.47 0.48 0.47 0.52 0.55 0.51 0.49 0.48 0.43 0.40 0.39 0.44 0.46 0.42 0.44 0.48 0.49 0.51 0.54 0.53 0.50 0.46 0.42 0.39 0.40 0.40 0.43 0.48 0.48 0.47 0.47 0.45 0.52
0.09 0.09 0.09 0.12 0.17 0.21 0.22 0.22 0.24 0.32 0.43 0.50 0.48 0.50 0.56 0.55 0.53 0.55 0.52 0.48 0.44 0.45 0.49 0.50 0.50 0.54 0.55 0.53 0.56 0.58 0.59 0.62 0.59 0.51 0.46 0.46 0.47 0.51 0.54 0.59 0.57 0.51 0.48
0.10 0.08 0.08 0.10 0.15 0.17 0.20 0.21 0.23 0.28 0.36 0.47 0.49 0.50 0.54 0.56 0.55 0.55 0.59 0.61 0.61 0.61 0.62 0.63 0.66 0.70 0.71 0.69 0.69 0.69 0.75 0.81 0.79 0.75 0.72 0.64 0.61 0.64 0.61 0.63 0.63 0.58 0.51
0.10 0.08 0.08 0.09 0.12 0.15 0.17 0.19 0.18 0.23 0.31 0.43 0.53 0.54 0.56 0.56 0.56 0.58 0.62 0.73 0.79 0.82 0.87 0.89 0.87 0.90 0.95 1.03 1.07 1.03 0.99 0.96 0.92 0.89 0.89 0.88 0.85 0.85 0.82 0.81 0.74 0.69 0.68
0.09 0.07 0.08 0.08 0.10 0.14 0.16 0.16 0.15 0.18 0.26 0.37 0.48 0.55 0.60 0.68 0.72 0.71 0.69 0.75 0.87 0.90 0.90 0.92 0.92 0.91 1.10 1.40 1.49 1.31 1.08 0.92 0.86 0.83 0.83 0.91 1.03 1.07 1.12 1.17 1.03 0.91 0.93
0.07 0.07 0.07 0.08 0.10 0.12 0.14 0.13 0.15 0.18 0.23 0.32 0.40 0.50 0.64 0.74 0.84 0.84 0.83 0.83 0.87 0.90 0.87 0.85 0.85 0.85 0.98 1.35 1.46 1.14 0.82 0.68 0.70 0.74 0.71 0.72 0.86 0.92 0.99 1.12 1.13 1.12 1.19
0.06 0.05 0.06 0.08 0.10 0.11 0.12 0.13 0.15 0.18 0.21 0.29 0.38 0.44 0.57 0.68 0.75 0.78 0.80 0.78 0.70 0.66 0.69 0.71 0.67 0.67 0.77 1.10 1.18 0.89 0.55 0.41 0.44 0.52 0.55 0.55 0.62 0.75 0.75 0.80 0.82 0.88 1.03
0.08 0.07 0.07 0.07 0.08 0.09 0.10 0.11 0.11 0.14 0.20 0.27 0.37 0.40 0.48 0.58 0.61 0.64 0.67 0.67 0.56 0.52 0.58 0.57 0.47 0.41 0.48 0.83 0.99 0.76 0.44 0.34 0.36 0.41 0.45 0.47 0.50 0.62 0.79 0.85 0.73 0.65 0.75
0.08 0.08 0.08 0.07 0.06 0.07 0.08 0.08 0.09 0.11 0.17 0.24 0.32 0.37 0.42 0.53 0.52 0.52 0.57 0.57 0.55 0.48 0.44 0.46 0.39 0.30 0.30 0.61 0.93 0.79 0.42 0.38 0.36 0.38 0.44 0.43 0.38 0.58 0.76 0.78 0.71 0.58 0.60
0.06 0.07 0.06 0.04 0.04 0.04 0.05 0.05 0.07 0.10 0.14 0.19 0.25 0.29 0.33 0.41 0.40 0.40 0.42 0.43 0.42 0.40 0.37 0.36 0.32 0.29 0.27 0.43 0.84 0.91 0.52 0.43 0.36 0.34 0.38 0.49 0.48 0.62 0.69 0.66 0.67 0.70 0.62
0.05 0.05 0.05 0.04 0.03 0.04 0.04 0.04 0.05 0.08 0.11 0.15 0.20 0.24 0.26 0.30 0.32 0.34 0.36 0.37 0.38 0.37 0.35 0.32 0.28 0.24 0.25 0.31 0.60 0.98 0.76 0.54 0.41 0.38 0.40 0.42 0.51 0.58 0.62 0.64 0.66 0.80 0.71
0.05 0.04 0.04 0.03 0.03 0.03 0.04 0.03 0.04 0.07 0.09 0.13 0.17 0.21 0.25 0.25 0.28 0.30 0.33 0.33 0.36 0.39 0.36 0.34 0.31 0.25 0.24 0.29 0.47 0.75 0.87 0.72 0.52 0.46 0.35 0.35 0.45 0.51 0.58 0.58 0.62 0.66 0.66
0.06 0.05 0.04 0.04 0.03 0.03 0.04 0.04 0.05 0.08 0.10 0.12 0.14 0.19 0.23 0.20 0.25 0.29 0.34 0.34 0.36 0.41 0.42 0.39 0.35 0.29 0.27 0.33 0.49 0.54 0.61 0.69 0.60 0.58 0.57 0.45 0.45 0.47 0.43 0.45 0.52 0.54 0.53
0.06 0.05 0.04 0.04 0.04 0.03 0.03 0.04 0.06 0.09 0.10 0.11 0.11 0.16 0.21 0.21 0.22 0.26 0.33 0.35 0.36 0.48 0.54 0.48 0.43 0.34 0.31 0.42 0.61 0.54 0.48 0.55 0.60 0.59 0.58 0.52 0.48 0.44 0.38 0.38 0.39 0.39 0.43
0.07 0.05 0.04 0.05 0.05 0.03 0.03 0.04 0.06 0.09 0.11 0.11 0.12 0.15 0.21 0.24 0.24 0.26 0.29 0.33 0.34 0.52 0.65 0.55 0.54 0.50 0.51 0.61 0.76 0.70 0.65 0.67 0.70 0.72 0.66 0.57 0.49 0.47 0.42 0.36 0.31 0.32 0.37
0.08 0.06 0.04 0.04 0.05 0.04 0.04 0.05 0.06 0.09 0.12 0.14 0.15 0.19 0.24 0.27 0.27 0.27 0.29 0.34 0.34 0.41 0.43 0.44 0.49 0.47 0.56 0.64 0.61 0.63 0.67 0.70 0.73 0.76 0.72 0.53 0.43 0.41 0.38 0.35 0.33 0.30 0.31

GEFSMW_prec_meanprecacc_192.txt.gz
Total_Precipitation_Accumulation
0.08 0.10 0.14 0.16 0.20 0.27 0.36 0.41 0.44 0.50 0.60 0.67 0.76 0.77 0.77 0.67 0.58 0.52 0.54 0.52 0.50 0.48 0.45 0.40 0.35 0.34 0.34 0.32 0.28 0.25 0.22 0.19 0.18 0.22 0.22 0.23 0.24 0.23 0.24 0.28 0.41 0.53 0.55
0.09 0.09 0.14 0.20 0.22 0.27 0.35 0.42 0.44 0.47 0.52 0.54 0.61 0.67 0.66 0.62 0.61 0.54 0.50 0.53 0.51 0.49 0.48 0.46 0.39 0.32 0.31 0.30 0.28 0.26 0.25 0.21 0.15 0.17 0.23 0.20 0.18 0.20 0.19 0.17 0.25 0.36 0.45
0.10 0.09 0.11 0.19 0.23 0.25 0.32 0.38 0.45 0.44 0.49 0.53 0.62 0.69 0.71 0.67 0.66 0.63 0.53 0.49 0.49 0.48 0.44 0.42 0.39 0.35 0.30 0.29 0.28 0.25 0.26 0.26 0.20 0.18 0.31 0.38 0.25 0.16 0.10 0.11 0.16 0.19 0.22
0.10 0.09 0.10 0.16 0.21 0.23 0.31 0.37 0.46 0.51 0.49 0.55 0.61 0.60 0.60 0.60 0.54 0.53 0.51 0.49 0.48 0.46 0.44 0.40 0.37 0.35 0.33 0.31 0.29 0.28 0.25 0.27 0.28 0.23 0.23 0.28 0.30 0.33 0.19 0.06 0.06 0.06 0.07
0.10 0.09 0.08 0.13 0.19 0.23 0.30 0.38 0.44 0.54 0.54 0.54 0.56 0.55 0.51 0.51 0.52 0.54 0.56 0.54 0.54 0.53 0.47 0.42 0.38 0.34 0.31 0.31 0.31 0.32 0.32 0.31 0.32 0.30 0.26 0.23 0.20 0.24 0.34 0.17 0.06 0.06 0.06
0.11 0.10 0.09 0.12 0.18 0.23 0.29 0.34 0.42 0.50 0.57 0.57 0.58 0.55 0.50 0.48 0.54 0.58 0.63 0.61 0.63 0.63 0.57 0.49 0.41 0.36 0.31 0.29 0.30 0.32 0.34 0.34 0.33 0.31 0.30 0.33 0.33 0.27 0.32 0.29 0.11 0.06 0.05
0.15 0.13 0.12 0.14 0.16 0.22 0.28 0.33 0.38 0.47 0.56 0.59 0.60 0.57 0.50 0.47 0.48 0.53 0.59 0.59 0.61 0.64 0.63 0.57 0.49 0.42 0.36 0.32 0.32 0.36 0.36 0.36 0.36 0.36 0.34 0.33 0.32 0.30 0.35 0.39 0.24 0.12 0.06
0.16 0.16 0.14 0.15 0.16 0.19 0.26 0.32 0.35 0.42 0.51 0.55 0.57 0.58 0.54 0.50 0.46 0.46 0.52 0.57 0.55 0.54 0.58 0.60 0.57 0.49 0.43 0.40 0.38 0.38 0.39 0.40 0.41 0.39 0.38 0.38 0.32 0.33 0.37 0.44 0.48 0.38 0.15
0.12 0.17 0.16 0.18 0.19 0.21 0.24 0.30 0.34 0.41 0.49 0.52 0.54 0.57 0.56 0.53 0.47 0.45 0.45 0.52 0.54 0.50 0.50 0.56 0.61 0.60 0.54 0.48 0.45 0.42 0.39 0.41 0.43 0.44 0.44 0.45 0.39 0.36 0.37 0.41 0.55 0.73 0.52
0.11 0.14 0.14 0.18 0.22 0.22 0.22 0.26 0.34 0.41 0.48 0.53 0.54 0.57 0.57 0.55 0.51 0.49 0.47 0.46 0.50 0.52 0.50 0.50 0.56 0.61 0.64 0.62 0.57 0.53 0.46 0.43 0.43 0.45 0.48 0.50 0.49 0.46 0.45 0.44 0.46 0.58 0.70
0.10 0.12 0.12 0.16 0.22 0.25 0.24 0.25 0.30 0.40 0.50 0.53 0.55 0.58 0.61 0.60 0.58 0.56 0.52 0.49 0.47 0.53 0.56 0.54 0.57 0.62 0.64 0.66 0.68 0.67 0.61 0.56 0.50 0.46 0.47 0.48 0.51 0.56 0.55 0.54 0.53 0.52 0.58
0.10 0.10 0.10 0.14 0.20 0.23 0.25 0.26 0.29 0.35 0.45 0.54 0.55 0.57 0.61 0.62 0.62 0.65 0.61 0.58 0.52 0.51 0.56 0.59 0.60 0.67 0.70 0.68 0.71 0.74 0.74 0.75 0.70 0.61 0.56 0.55 0.55 0.58 0.60 0.64 0.63 0.57 0.53
0.12 0.10 0.10 0.13 0.17 0.19 0.23 0.25 0.28 0.31 0.39 0.51 0.55 0.57 0.59 0.62 0.63 0.65 0.70 0.72 0.71 0.70 0.70 0.72 0.75 0.80 0.85 0.85 0.84 0.85 0.90 0.95 0.93 0.88 0.83 0.72 0.68 0.70 0.66 0.67 0.68 0.63 0.55
0.12 0.10 0.10 0.11 0.15 0.18 0.20 0.22 0.22 0.27 0.34 0.48 0.58 0.59 0.61 0.61 0.63 0.67 0.72 0.83 0.90 0.93 0.96 0.98 0.97 0.99 1.06 1.18 1.22 1.18 1.15 1.10 1.06 1.03 1.02 0.98 0.92 0.90 0.86 0.84 0.78 0.74 0.72
0.10 0.09 0.10 0.11 0.13 0.17 0.19 0.19 0.19 0.22 0.29 0.41 0.52 0.59 0.65 0.73 0.78 0.79 0.79 0.85 0.98 1.03 1.00 1.01 1.02 1.02 1.21 1.53 1.64 1.47 1.23 1.06 0.99 0.96 0.96 1.02 1.11 1.13 1.16 1.20 1.06 0.95 0.97
0.08 0.08 0.09 0.11 0.12 0.15 0.17 0.17 0.18 0.22 0.28 0.37 0.45 0.55 0.69 0.80 0.91 0.91 0.92 0.93 0.98 1.04 1.01 0.96 0.96 0.97 1.11 1.48 1.60 1.28 0.96 0.82 0.83 0.86 0.82 0.82 0.94 0.99 1.03 1.16 1.17 1.17 1.24
0.07 0.07 0.08 0.10 0.12 0.13 0.14 0.15 0.18 0.22 0.26 0.36 0.44 0.50 0.63 0.75 0.85 0.87 0.88 0.88 0.80 0.80 0.86 0.87 0.81 0.79 0.90 1.24 1.32 1.02 0.68 0.55 0.58 0.63 0.64 0.63 0.68 0.80 0.79 0.84 0.87 0.94 1.08
0.09 0.09 0.09 0.09 0.09 0.11 0.12 0.12 0.13 0.17 0.24 0.32 0.44 0.46 0.55 0.66 0.71 0.75 0.78 0.78 0.68 0.67 0.75 0.73 0.61 0.55 0.62 0.96 1.12 0.90 0.57 0.49 0.49 0.50 0.54 0.53 0.54 0.66 0.83 0.89 0.78 0.70 0.80
0.09 0.09 0.09 0.09 0.09 0.10 0.11 0.11 0.11 0.13 0.20 0.27 0.37 0.42 0.48 0.61 0.62 0.63 0.70 0.70 0.68 0.63 0.59 0.59 0.54 0.46 0.48 0.75 1.05 0.92 0.55 0.52 0.49 0.48 0.52 0.48 0.43 0.62 0.80 0.83 0.75 0.63 0.64
0.07 0.08 0.08 0.07 0.08 0.09 0.09 0.08 0.08 0.11 0.16 0.23 0.30 0.33 0.37 0.48 0.50 0.49 0.55 0.57 0.54 0.52 0.49 0.48 0.47 0.44 0.41 0.56 0.96 1.02 0.63 0.56 0.50 0.46 0.45 0.55 0.54 0.67 0.74 0.69 0.71 0.74 0.65
0.07 0.07 0.08 0.08 0.08 0.08 0.08 0.06 0.06 0.09 0.14 0.19 0.23 0.27 0.30 0.35 0.38 0.41 0.45 0.48 0.47 0.47 0.46 0.45 0.42 0.37 0.36 0.42 0.71 1.07 0.85 0.64 0.53 0.49 0.48 0.47 0.58 0.64 0.68 0.69 0.71 0.83 0.74
0.08 0.07 0.07 0.06 0.06 0.06 0.06 0.05 0.05 0.09 0.12 0.16 0.20 0.24 0.29 0.29 0.33 0.36 0.40 0.41 0.45 0.50 0.50 0.46 0.42 0.36 0.34 0.39 0.58 0.84 0.96 0.82 0.61 0.55 0.43 0.41 0.52 0.58 0.64 0.64 0.68 0.72 0.71
0.08 0.06 0.06 0.05 0.05 0.05 0.06 0.05 0.06 0.09 0.12 0.15 0.17 0.23 0.27 0.25 0.30 0.35 0.41 0.42 0.46 0.54 0.54 0.49 0.44 0.38 0.37 0.44 0.61 0.64 0.70 0.80 0.69 0.66 0.66 0.53 0.52 0.54 0.50 0.52 0.60 0.61 0.60
0.07 0.06 0.05 0.05 0.05 0.04 0.04 0.05 0.07 0.11 0.13 0.15 0.16 0.20 0.26 0.27 0.27 0.32 0.40 0.42 0.44 0.59 0.64 0.59 0.52 0.42 0.39 0.51 0.71 0.65 0.59 0.67 0.70 0.69 0.67 0.61 0.57 0.53 0.47 0.47 0.47 0.46 0.50
0.08 0.06 0.04 0.05 0.05 0.04 0.04 0.05 0.08 0.12 0.14 0.15 0.16 0.20 0.26 0.30 0.29 0.31 0.35 0.39 0.40 0.59 0.74 0.65 0.64 0.59 0.59 0.68 0.85 0.82 0.77 0.78 0.80 0.80 0.75 0.65 0.59 0.58 0.52 0.45 0.40 0.40 0.45
0.08 0.07 0.05 0.05 0.05 0.05 0.05 0.06 0.08 0.12 0.16 0.19 0.21 0.24 0.29 0.32 0.32 0.33 0.35 0.40 0.39 0.46 0.49 0.52 0.58 0.57 0.66 0.72 0.69 0.74 0.77 0.79 0.82 0.83 0.78 0.60 0.50 0.50 0.48 0.45 0.41 0.38 0.38

GEFSMW_prec_meanprecacc_198.txt.gz
Total_Precipitation_Accumulation
0.08 0.10 0.14 0.17 0.21 0.29 0.37 0.43 0.48 0.56 0.67 0.74 0.81 0.83 0.89 0.85 0.75 0.67 0.69 0.67 0.62 0.55 0.51 0.47 0.42 0.43 0.42 0.40 0.36 0.33 0.33 0.30 0.28 0.29 0.29 0.28 0.28 0.26 0.26 0.30 0.42 0.55 0.57
0.09 0.09 0.14 0.21 0.24 0.28 0.36 0.44 0.47 0.52 0.59 0.60 0.66 0.74 0.75 0.77 0.77 0.69 0.66 0.69 0.66 0.59 0.55 0.53 0.46 0.41 0.40 0.38 0.37 0.34 0.32 0.29 0.25 0.26 0.30 0.27 0.25 0.26 0.21 0.19 0.27 0.38 0.46
0.10 0.09 0.12 0.20 0.24 0.27 0.34 0.40 0.47 0.48 0.55 0.60 0.69 0.78 0.82 0.80 0.81 0.78 0.71 0.67 0.65 0.61 0.55 0.50 0.48 0.44 0.40 0.37 0.35 0.33 0.33 0.33 0.28 0.25 0.37 0.43 0.30 0.20 0.13 0.13 0.17 0.20 0.24
0.10 0.09 0.10 0.17 0.22 0.25 0.33 0.39 0.48 0.55 0.55 0.63 0.71 0.69 0.70 0.72 0.65 0.63 0.64 0.67 0.67 0.61 0.56 0.52 0.47 0.45 0.44 0.41 0.36 0.33 0.32 0.34 0.35 0.30 0.29 0.33 0.33 0.36 0.21 0.08 0.07 0.07 0.08
0.10 0.09 0.09 0.13 0.20 0.26 0.33 0.40 0.46 0.58 0.61 0.61 0.66 0.65 0.61 0.62 0.63 0.64 0.66 0.67 0.68 0.68 0.59 0.54 0.50 0.44 0.42 0.41 0.40 0.37 0.37 0.37 0.38 0.37 0.33 0.30 0.25 0.28 0.37 0.20 0.08 0.08 0.08
0.12 0.11 0.09 0.13 0.19 0.26 0.33 0.37 0.45 0.54 0.63 0.63 0.66 0.65 0.61 0.60 0.66 0.69 0.73 0.72 0.74 0.75 0.69 0.59 0.53 0.46 0.40 0.39 0.40 0.40 0.39 0.39 0.38 0.37 0.37 0.40 0.40 0.32 0.36 0.32 0.14 0.09 0.08
0.15 0.14 0.13 0.15 0.18 0.25 0.34 0.36 0.39 0.50 0.61 0.64 0.66 0.65 0.60 0.58 0.61 0.65 0.71 0.70 0.72 0.75 0.74 0.67 0.60 0.52 0.44 0.39 0.41 0.44 0.45 0.42 0.42 0.40 0.38 0.38 0.38 0.36 0.40 0.43 0.29 0.17 0.11
0.17 0.17 0.15 0.18 0.19 0.23 0.31 0.36 0.37 0.44 0.56 0.59 0.61 0.64 0.62 0.58 0.58 0.60 0.64 0.68 0.65 0.64 0.67 0.69 0.66 0.56 0.49 0.46 0.45 0.46 0.46 0.47 0.49 0.45 0.42 0.41 0.36 0.37 0.42 0.49 0.54 0.45 0.22
0.13 0.17 0.17 0.20 0.22 0.24 0.28 0.35 0.38 0.43 0.53 0.56 0.57 0.61 0.64 0.62 0.56 0.56 0.58 0.63 0.62 0.57 0.59 0.66 0.71 0.70 0.61 0.54 0.52 0.50 0.46 0.47 0.49 0.50 0.50 0.50 0.43 0.40 0.40 0.44 0.60 0.80 0.60
0.12 0.15 0.14 0.19 0.24 0.26 0.27 0.31 0.39 0.44 0.51 0.56 0.57 0.61 0.64 0.64 0.59 0.58 0.58 0.58 0.60 0.59 0.57 0.59 0.67 0.71 0.73 0.69 0.63 0.59 0.53 0.51 0.49 0.51 0.54 0.55 0.54 0.51 0.49 0.47 0.50 0.64 0.77
0.12 0.13 0.13 0.17 0.24 0.28 0.28 0.29 0.34 0.44 0.53 0.57 0.58 0.62 0.67 0.67 0.66 0.64 0.59 0.57 0.57 0.63 0.64 0.61 0.66 0.72 0.73 0.73 0.76 0.73 0.67 0.63 0.58 0.53 0.54 0.53 0.55 0.61 0.60 0.59 0.57 0.57 0.65
0.13 0.12 0.12 0.16 0.21 0.24 0.27 0.29 0.32 0.39 0.50 0.60 0.61 0.62 0.66 0.68 0.69 0.74 0.70 0.65 0.59 0.60 0.65 0.68 0.69 0.76 0.79 0.77 0.79 0.81 0.81 0.83 0.77 0.68 0.62 0.61 0.60 0.64 0.66 0.69 0.68 0.62 0.59
0.15 0.12 0.12 0.15 0.19 0.21 0.24 0.27 0.31 0.36 0.45 0.58 0.62 0.64 0.65 0.68 0.70 0.74 0.80 0.81 0.80 0.79 0.79 0.83 0.85 0.89 0.93 0.92 0.91 0.92 0.98 1.03 1.02 0.97 0.92 0.80 0.76 0.77 0.72 0.73 0.74 0.68 0.61
0.14 0.13 0.13 0.13 0.17 0.20 0.22 0.24 0.25 0.32 0.40 0.55 0.67 0.68 0.68 0.66 0.69 0.75 0.82 0.92 0.99 1.03 1.06 1.10 1.09 1.08 1.15 1.26 1.29 1.26 1.23 1.19 1.15 1.11 1.11 1.07 1.00 0.97 0.93 0.92 0.86 0.81 0.79
0.12 0.11 0.12 0.12 0.14 0.18 0.20 0.20 0.21 0.25 0.34 0.49 0.60 0.66 0.71 0.78 0.85 0.87 0.89 0.94 1.07 1.13 1.11 1.13 1.14 1.12 1.30 1.61 1.73 1.56 1.32 1.16 1.09 1.05 1.06 1.12 1.21 1.21 1.22 1.27 1.14 1.03 1.05
0.09 0.09 0.10 0.12 0.14 0.16 0.18 0.18 0.20 0.24 0.30 0.42 0.52 0.60 0.74 0.85 0.98 0.99 1.02 1.03 1.07 1.15 1.14 1.09 1.06 1.07 1.19 1.56 1.69 1.37 1.05 0.92 0.95 0.97 0.91 0.92 1.06 1.11 1.14 1.25 1.25 1.25 1.31
0.07 0.07 0.09 0.11 0.12 0.13 0.15 0.16 0.19 0.23 0.28 0.38 0.48 0.54 0.67 0.80 0.91 0.93 0.96 0.97 0.90 0.90 0.98 1.02 0.93 0.90 0.99 1.32 1.41 1.10 0.75 0.64 0.69 0.74 0.75 0.73 0.79 0.94 0.92 0.96 0.98 1.04 1.17
0.10 0.09 0.09 0.09 0.10 0.11 0.13 0.14 0.15 0.19 0.26 0.34 0.46 0.49 0.58 0.70 0.76 0.82 0.86 0.87 0.77 0.76 0.86 0.86 0.76 0.68 0.72 1.05 1.21 0.98 0.64 0.57 0.61 0.64 0.66 0.65 0.65 0.78 0.95 1.00 0.88 0.80 0.89
0.10 0.10 0.10 0.09 0.09 0.11 0.12 0.12 0.12 0.15 0.22 0.30 0.39 0.44 0.50 0.64 0.66 0.71 0.80 0.79 0.78 0.75 0.71 0.71 0.66 0.59 0.59 0.84 1.13 1.01 0.64 0.62 0.61 0.60 0.64 0.60 0.54 0.74 0.92 0.94 0.85 0.72 0.72
0.09 0.09 0.09 0.08 0.08 0.10 0.11 0.10 0.11 0.14 0.19 0.25 0.31 0.35 0.39 0.51 0.54 0.56 0.63 0.66 0.67 0.67 0.64 0.62 0.59 0.57 0.53 0.68 1.05 1.11 0.72 0.66 0.61 0.59 0.60 0.68 0.67 0.79 0.85 0.79 0.81 0.82 0.72
0.10 0.09 0.09 0.09 0.09 0.10 0.11 0.10 0.09 0.12 0.16 0.21 0.25 0.29 0.33 0.38 0.43 0.48 0.52 0.57 0.58 0.59 0.60 0.60 0.54 0.48 0.48 0.54 0.82 1.17 0.94 0.73 0.63 0.61 0.61 0.59 0.71 0.77 0.79 0.79 0.80 0.92 0.80
0.13 0.11 0.10 0.09 0.09 0.10 0.11 0.09 0.09 0.12 0.14 0.18 0.22 0.27 0.31 0.33 0.37 0.41 0.47 0.49 0.55 0.62 0.63 0.60 0.56 0.48 0.45 0.50 0.68 0.94 1.06 0.91 0.70 0.65 0.52 0.49 0.63 0.69 0.75 0.74 0.79 0.83 0.81
0.13 0.12 0.11 0.11 0.10 0.10 0.10 0.09 0.09 0.12 0.15 0.18 0.20 0.26 0.30 0.29 0.35 0.41 0.47 0.50 0.55 0.64 0.65 0.61 0.57 0.50 0.48 0.54 0.71 0.73 0.80 0.90 0.79 0.74 0.74 0.63 0.63 0.65 0.60 0.63 0.72 0.73 0.69
0.11 0.10 0.11 0.11 0.11 0.10 0.10 0.09 0.10 0.13 0.17 0.18 0.20 0.24 0.30 0.31 0.31 0.37 0.46 0.51 0.54 0.67 0.72 0.68 0.63 0.54 0.51 0.61 0.81 0.75 0.69 0.78 0.81 0.79 0.78 0.73 0.71 0.67 0.60 0.60 0.59 0.56 0.59
0.11 0.10 0.10 0.10 0.12 0.11 0.10 0.09 0.11 0.15 0.18 0.20 0.21 0.25 0.31 0.35 0.33 0.35 0.41 0.47 0.48 0.65 0.80 0.73 0.73 0.70 0.71 0.79 0.97 0.94 0.88 0.89 0.90 0.90 0.87 0.79 0.73 0.72 0.65 0.57 0.51 0.49 0.54
0.11 0.10 0.09 0.09 0.10 0.10 0.09 0.10 0.12 0.16 0.21 0.24 0.25 0.27 0.33 0.36 0.36 0.37 0.39 0.44 0.44 0.51 0.54 0.59 0.67 0.67 0.77 0.83 0.78 0.83 0.87 0.89 0.91 0.90 0.87 0.70 0.61 0.62 0.58 0.54 0.51 0.47 0.46

GEFSMW_prec_meanprecacc_204.txt.gz
Total_Precipitation_Accumulation
0.08 0.11 0.15 0.18 0.22 0.30 0.38 0.44 0.48 0.57 0.70 0.81 0.87 0.86 0.91 0.87 0.77 0.71 0.74 0.75 0.73 0.67 0.61 0.54 0.48 0.50 0.49 0.45 0.41 0.38 0.38 0.37 0.35 0.37 0.36 0.35 0.34 0.32 0.29 0.33 0.45 0.57 0.59
0.10 0.10 0.15 0.22 0.25 0.29 0.36 0.44 0.47 0.52 0.60 0.63 0.71 0.77 0.78 0.80 0.80 0.73 0.71 0.75 0.76 0.71 0.67 0.63 0.54 0.47 0.46 0.44 0.42 0.38 0.37 0.35 0.31 0.33 0.38 0.34 0.33 0.33 0.27 0.22 0.29 0.39 0.48
0.10 0.09 0.12 0.21 0.25 0.27 0.34 0.40 0.47 0.49 0.56 0.63 0.75 0.84 0.89 0.89 0.87 0.82 0.75 0.73 0.74 0.73 0.67 0.62 0.58 0.52 0.47 0.43 0.41 0.39 0.38 0.37 0.33 0.31 0.45 0.50 0.36 0.25 0.17 0.17 0.20 0.22 0.25
0.10 0.09 0.11 0.18 0.23 0.25 0.34 0.39 0.48 0.56 0.56 0.65 0.76 0.76 0.77 0.77 0.70 0.70 0.70 0.74 0.76 0.75 0.71 0.65 0.60 0.55 0.51 0.46 0.40 0.39 0.37 0.39 0.40 0.36 0.34 0.39 0.38 0.41 0.25 0.11 0.10 0.10 0.10
0.11 0.09 0.09 0.14 0.21 0.27 0.34 0.41 0.47 0.59 0.62 0.64 0.71 0.70 0.67 0.66 0.67 0.71 0.74 0.75 0.78 0.80 0.74 0.68 0.63 0.56 0.50 0.48 0.46 0.42 0.42 0.43 0.43 0.42 0.38 0.35 0.31 0.32 0.41 0.25 0.12 0.12 0.11
0.12 0.11 0.09 0.13 0.20 0.27 0.35 0.39 0.47 0.58 0.66 0.66 0.71 0.71 0.68 0.66 0.71 0.75 0.81 0.82 0.83 0.86 0.82 0.71 0.66 0.61 0.51 0.46 0.47 0.46 0.44 0.44 0.43 0.41 0.42 0.45 0.46 0.37 0.39 0.35 0.18 0.15 0.13
0.15 0.14 0.13 0.15 0.19 0.26 0.35 0.39 0.43 0.56 0.65 0.68 0.70 0.71 0.66 0.65 0.67 0.72 0.77 0.80 0.83 0.86 0.87 0.79 0.71 0.65 0.57 0.47 0.47 0.51 0.51 0.48 0.48 0.46 0.43 0.43 0.43 0.41 0.44 0.47 0.33 0.21 0.16
0.17 0.17 0.15 0.18 0.19 0.24 0.33 0.38 0.39 0.49 0.63 0.65 0.66 0.68 0.66 0.63 0.63 0.66 0.69 0.75 0.73 0.74 0.79 0.82 0.79 0.70 0.62 0.56 0.53 0.53 0.52 0.54 0.56 0.52 0.49 0.46 0.41 0.43 0.48 0.55 0.60 0.50 0.26
0.13 0.18 0.17 0.21 0.22 0.25 0.30 0.37 0.41 0.48 0.61 0.66 0.63 0.66 0.68 0.66 0.60 0.62 0.65 0.70 0.70 0.66 0.69 0.77 0.83 0.83 0.75 0.66 0.62 0.59 0.53 0.54 0.57 0.59 0.58 0.57 0.49 0.45 0.45 0.50 0.65 0.85 0.66
0.12 0.15 0.14 0.20 0.24 0.27 0.28 0.33 0.42 0.48 0.56 0.63 0.64 0.67 0.69 0.68 0.63 0.62 0.63 0.64 0.67 0.68 0.66 0.69 0.75 0.79 0.83 0.82 0.74 0.69 0.62 0.59 0.58 0.60 0.63 0.64 0.62 0.58 0.55 0.52 0.54 0.68 0.82
0.13 0.15 0.14 0.18 0.24 0.28 0.29 0.30 0.36 0.47 0.57 0.61 0.63 0.68 0.74 0.72 0.71 0.68 0.63 0.61 0.63 0.70 0.71 0.71 0.76 0.80 0.81 0.82 0.86 0.82 0.76 0.71 0.66 0.61 0.62 0.62 0.64 0.70 0.68 0.65 0.62 0.61 0.69
0.13 0.13 0.13 0.16 0.22 0.25 0.28 0.31 0.34 0.41 0.53 0.63 0.65 0.67 0.72 0.74 0.74 0.78 0.74 0.68 0.62 0.64 0.72 0.76 0.77 0.83 0.87 0.85 0.87 0.89 0.89 0.91 0.86 0.75 0.69 0.67 0.67 0.72 0.74 0.77 0.74 0.67 0.63
0.15 0.13 0.12 0.15 0.19 0.21 0.26 0.29 0.33 0.38 0.47 0.61 0.66 0.70 0.72 0.76 0.75 0.78 0.84 0.86 0.84 0.82 0.83 0.90 0.93 0.96 0.99 1.01 1.00 1.01 1.06 1.12 1.10 1.03 0.98 0.85 0.80 0.83 0.79 0.80 0.81 0.74 0.66
0.15 0.14 0.14 0.15 0.18 0.21 0.23 0.26 0.27 0.34 0.42 0.58 0.70 0.72 0.74 0.73 0.75 0.79 0.86 0.97 1.03 1.07 1.11 1.14 1.15 1.16 1.22 1.33 1.38 1.36 1.34 1.30 1.24 1.19 1.17 1.11 1.05 1.02 0.99 0.98 0.92 0.86 0.85
0.13 0.12 0.13 0.15 0.16 0.20 0.22 0.22 0.23 0.27 0.36 0.51 0.64 0.71 0.75 0.83 0.90 0.91 0.93 0.98 1.11 1.17 1.16 1.18 1.21 1.20 1.38 1.70 1.82 1.66 1.42 1.27 1.19 1.13 1.12 1.17 1.26 1.27 1.29 1.33 1.19 1.09 1.12
0.10 0.10 0.11 0.14 0.16 0.18 0.21 0.20 0.22 0.25 0.32 0.45 0.55 0.64 0.77 0.89 1.02 1.03 1.06 1.08 1.12 1.19 1.21 1.17 1.15 1.16 1.27 1.66 1.79 1.45 1.13 1.02 1.06 1.06 0.98 0.98 1.12 1.16 1.21 1.32 1.31 1.32 1.37
0.08 0.08 0.10 0.12 0.14 0.16 0.17 0.18 0.21 0.25 0.30 0.40 0.51 0.57 0.70 0.83 0.94 0.97 1.01 1.03 0.96 0.95 1.05 1.11 1.03 0.99 1.07 1.41 1.49 1.18 0.82 0.73 0.79 0.84 0.84 0.81 0.86 1.00 0.97 1.03 1.05 1.13 1.26
0.10 0.10 0.10 0.10 0.11 0.13 0.15 0.15 0.16 0.20 0.27 0.35 0.48 0.50 0.60 0.72 0.79 0.85 0.90 0.92 0.83 0.83 0.93 0.94 0.85 0.77 0.81 1.13 1.29 1.05 0.71 0.65 0.69 0.71 0.72 0.71 0.73 0.86 1.03 1.07 0.96 0.89 0.99
0.10 0.11 0.11 0.10 0.10 0.12 0.13 0.13 0.13 0.16 0.23 0.30 0.40 0.45 0.52 0.65 0.67 0.73 0.83 0.83 0.83 0.83 0.80 0.80 0.75 0.68 0.67 0.92 1.21 1.08 0.71 0.71 0.68 0.67 0.71 0.65 0.59 0.81 1.00 1.03 0.95 0.83 0.83
0.09 0.10 0.10 0.09 0.10 0.11 0.12 0.11 0.12 0.15 0.20 0.26 0.32 0.37 0.41 0.53 0.55 0.58 0.65 0.69 0.70 0.73 0.74 0.72 0.68 0.66 0.62 0.77 1.13 1.18 0.79 0.73 0.68 0.66 0.68 0.75 0.73 0.85 0.92 0.87 0.91 0.94 0.83
0.11 0.10 0.10 0.10 0.10 0.11 0.13 0.11 0.11 0.14 0.18 0.22 0.26 0.31 0.35 0.40 0.45 0.49 0.53 0.59 0.61 0.64 0.69 0.68 0.62 0.56 0.56 0.63 0.91 1.27 1.02 0.80 0.69 0.68 0.69 0.68 0.79 0.83 0.87 0.88 0.90 1.02 0.91
0.14 0.12 0.11 0.10 0.10 0.11 0.12 0.10 0.10 0.13 0.15 0.20 0.24 0.29 0.34 0.34 0.38 0.43 0.49 0.52 0.59 0.68 0.70 0.66 0.63 0.56 0.54 0.60 0.78 1.06 1.16 0.99 0.77 0.70 0.59 0.58 0.72 0.76 0.81 0.82 0.88 0.93 0.90
0.14 0.13 0.12 0.13 0.12 0.11 0.11 0.10 0.10 0.13 0.16 0.19 0.23 0.29 0.33 0.31 0.37 0.43 0.50 0.53 0.60 0.69 0.71 0.66 0.62 0.58 0.57 0.63 0.81 0.84 0.90 0.99 0.87 0.81 0.81 0.71 0.73 0.73 0.67 0.69 0.79 0.81 0.78
0.12 0.11 0.12 0.14 0.13 0.11 0.11 0.10 0.10 0.14 0.18 0.20 0.22 0.27 0.34 0.35 0.35 0.40 0.49 0.54 0.58 0.72 0.77 0.73 0.68 0.61 0.59 0.71 0.92 0.85 0.78 0.88 0.90 0.88 0.86 0.82 0.80 0.77 0.69 0.68 0.67 0.65 0.69
0.12 0.11 0.11 0.12 0.13 0.12 0.10 0.09 0.11 0.16 0.20 0.22 0.24 0.28 0.35 0.39 0.37 0.39 0.44 0.50 0.51 0.70 0.86 0.79 0.79 0.77 0.77 0.87 1.06 1.05 0.97 0.97 1.00 1.00 0.96 0.89 0.85 0.84 0.77 0.69 0.62 0.61 0.65
0.13 0.12 0.10 0.11 0.12 0.11 0.10 0.10 0.12 0.17 0.23 0.27 0.29 0.32 0.38 0.40 0.39 0.40 0.42 0.47 0.48 0.55 0.59 0.66 0.75 0.73 0.84 0.89 0.85 0.92 0.95 0.97 1.01 1.02 0.97 0.81 0.73 0.72 0.70 0.68 0.64 0.59 0.57

GEFSMW_prec_meanprecacc_210.txt.gz
Total_Precipitation_Accumulation
0.09 0.11 0.16 0.20 0.24 0.32 0.40 0.46 0.50 0.59 0.71 0.81 0.87 0.86 0.92 0.88 0.79 0.73 0.76 0.77 0.74 0.68 0.63 0.56 0.51 0.54 0.55 0.52 0.48 0.44 0.44 0.42 0.40 0.42 0.40 0.38 0.37 0.34 0.32 0.36 0.47 0.58 0.60
0.10 0.11 0.16 0.24 0.27 0.31 0.39 0.47 0.49 0.54 0.61 0.63 0.71 0.78 0.79 0.81 0.81 0.75 0.73 0.79 0.79 0.73 0.69 0.65 0.57 0.51 0.51 0.51 0.49 0.45 0.43 0.40 0.35 0.39 0.44 0.39 0.36 0.35 0.29 0.25 0.33 0.42 0.50
0.10 0.10 0.13 0.22 0.27 0.30 0.37 0.43 0.50 0.50 0.57 0.63 0.75 0.84 0.90 0.91 0.89 0.84 0.78 0.77 0.78 0.76 0.69 0.65 0.62 0.57 0.51 0.48 0.48 0.46 0.44 0.43 0.38 0.35 0.50 0.55 0.40 0.28 0.20 0.19 0.23 0.25 0.29
0.11 0.10 0.12 0.19 0.25 0.27 0.36 0.43 0.51 0.58 0.58 0.66 0.76 0.76 0.77 0.78 0.72 0.72 0.73 0.77 0.79 0.78 0.74 0.68 0.65 0.62 0.58 0.52 0.47 0.46 0.44 0.46 0.46 0.40 0.38 0.43 0.43 0.46 0.30 0.15 0.14 0.14 0.15
0.11 0.10 0.10 0.16 0.22 0.28 0.37 0.44 0.50 0.61 0.63 0.64 0.71 0.71 0.67 0.66 0.68 0.73 0.78 0.79 0.81 0.83 0.77 0.73 0.70 0.64 0.58 0.54 0.52 0.48 0.48 0.49 0.48 0.46 0.42 0.39 0.35 0.37 0.47 0.30 0.17 0.16 0.15
0.12 0.12 0.11 0.15 0.22 0.29 0.37 0.42 0.50 0.59 0.67 0.68 0.72 0.72 0.68 0.67 0.72 0.77 0.84 0.86 0.87 0.90 0.86 0.75 0.74 0.69 0.58 0.53 0.55 0.54 0.51 0.50 0.49 0.46 0.45 0.49 0.51 0.42 0.46 0.42 0.24 0.20 0.19
0.16 0.14 0.14 0.18 0.22 0.29 0.37 0.42 0.46 0.57 0.66 0.69 0.71 0.71 0.66 0.66 0.69 0.74 0.80 0.84 0.86 0.89 0.89 0.83 0.76 0.73 0.65 0.54 0.55 0.59 0.59 0.55 0.55 0.53 0.48 0.47 0.47 0.46 0.52 0.56 0.40 0.28 0.22
0.17 0.17 0.16 0.19 0.23 0.27 0.34 0.40 0.42 0.50 0.64 0.66 0.67 0.69 0.67 0.64 0.65 0.69 0.73 0.78 0.76 0.76 0.82 0.87 0.85 0.77 0.71 0.66 0.61 0.60 0.59 0.60 0.62 0.59 0.55 0.52 0.46 0.48 0.55 0.65 0.69 0.59 0.33
0.13 0.18 0.18 0.22 0.26 0.30 0.32 0.39 0.43 0.49 0.61 0.67 0.65 0.67 0.69 0.67 0.61 0.64 0.68 0.76 0.75 0.69 0.72 0.82 0.90 0.90 0.84 0.77 0.73 0.70 0.63 0.62 0.65 0.66 0.66 0.65 0.57 0.53 0.52 0.58 0.75 0.95 0.74
0.13 0.16 0.15 0.21 0.27 0.32 0.31 0.35 0.43 0.49 0.57 0.64 0.66 0.69 0.72 0.71 0.65 0.64 0.66 0.68 0.72 0.73 0.71 0.73 0.79 0.86 0.91 0.90 0.85 0.81 0.73 0.70 0.69 0.70 0.73 0.75 0.73 0.69 0.64 0.61 0.63 0.77 0.90
0.13 0.15 0.15 0.19 0.26 0.31 0.31 0.32 0.38 0.48 0.58 0.62 0.64 0.69 0.77 0.75 0.74 0.72 0.68 0.65 0.66 0.74 0.76 0.76 0.81 0.86 0.88 0.88 0.94 0.92 0.86 0.83 0.78 0.74 0.75 0.75 0.78 0.85 0.83 0.79 0.74 0.71 0.78
0.13 0.13 0.13 0.17 0.23 0.27 0.31 0.33 0.37 0.43 0.54 0.64 0.66 0.68 0.76 0.81 0.79 0.84 0.83 0.74 0.66 0.68 0.75 0.79 0.81 0.89 0.94 0.92 0.94 0.97 0.98 1.01 0.97 0.87 0.82 0.80 0.81 0.86 0.88 0.93 0.89 0.79 0.72
0.15 0.13 0.12 0.15 0.20 0.23 0.29 0.33 0.35 0.40 0.49 0.64 0.69 0.72 0.76 0.83 0.84 0.86 0.93 0.92 0.89 0.90 0.90 0.94 0.97 1.01 1.05 1.08 1.09 1.10 1.14 1.19 1.19 1.12 1.07 0.97 0.93 0.96 0.93 0.94 0.94 0.87 0.77
0.16 0.14 0.14 0.15 0.19 0.22 0.26 0.30 0.30 0.37 0.46 0.62 0.74 0.75 0.78 0.79 0.83 0.88 0.92 1.04 1.10 1.16 1.22 1.20 1.20 1.21 1.27 1.39 1.46 1.45 1.42 1.37 1.33 1.29 1.27 1.21 1.14 1.12 1.10 1.10 1.03 0.97 0.95
0.13 0.12 0.14 0.15 0.16 0.20 0.23 0.25 0.28 0.33 0.42 0.57 0.69 0.75 0.80 0.90 0.97 0.99 1.01 1.05 1.17 1.23 1.24 1.27 1.29 1.28 1.44 1.74 1.87 1.72 1.51 1.36 1.28 1.23 1.22 1.26 1.35 1.35 1.37 1.42 1.29 1.19 1.21
0.10 0.10 0.12 0.14 0.16 0.19 0.22 0.21 0.24 0.31 0.39 0.53 0.62 0.70 0.84 0.95 1.08 1.10 1.14 1.15 1.20 1.26 1.28 1.24 1.23 1.22 1.33 1.71 1.83 1.50 1.20 1.11 1.16 1.16 1.08 1.07 1.21 1.26 1.31 1.42 1.41 1.41 1.46
0.09 0.09 0.10 0.13 0.16 0.18 0.18 0.19 0.22 0.28 0.33 0.44 0.57 0.64 0.78 0.91 1.00 1.03 1.07 1.09 1.02 1.00 1.10 1.16 1.08 1.04 1.13 1.46 1.54 1.24 0.88 0.79 0.87 0.92 0.93 0.90 0.94 1.09 1.07 1.12 1.15 1.22 1.34
0.11 0.10 0.11 0.11 0.13 0.15 0.16 0.16 0.17 0.23 0.31 0.39 0.52 0.56 0.66 0.79 0.84 0.90 0.96 0.97 0.88 0.88 0.98 0.99 0.89 0.82 0.86 1.18 1.33 1.11 0.76 0.70 0.75 0.78 0.80 0.80 0.81 0.96 1.13 1.17 1.05 0.97 1.06
0.11 0.11 0.11 0.11 0.11 0.14 0.16 0.15 0.15 0.18 0.24 0.32 0.42 0.49 0.57 0.71 0.72 0.77 0.88 0.87 0.87 0.86 0.84 0.83 0.77 0.71 0.71 0.96 1.25 1.13 0.76 0.76 0.74 0.73 0.78 0.73 0.68 0.92 1.11 1.12 1.05 0.92 0.92
0.09 0.10 0.10 0.09 0.10 0.12 0.14 0.13 0.14 0.16 0.21 0.28 0.35 0.40 0.45 0.58 0.61 0.62 0.68 0.72 0.73 0.76 0.77 0.75 0.70 0.68 0.63 0.79 1.16 1.22 0.83 0.79 0.75 0.72 0.75 0.84 0.81 0.94 1.01 0.95 0.99 1.02 0.91
0.11 0.10 0.10 0.10 0.10 0.12 0.13 0.13 0.13 0.15 0.19 0.24 0.28 0.33 0.37 0.43 0.48 0.53 0.56 0.60 0.63 0.67 0.72 0.72 0.66 0.58 0.58 0.65 0.93 1.29 1.05 0.84 0.75 0.74 0.76 0.77 0.88 0.90 0.94 0.96 0.96 1.09 0.97
0.14 0.12 0.11 0.10 0.10 0.12 0.13 0.11 0.12 0.15 0.17 0.22 0.27 0.31 0.36 0.37 0.41 0.46 0.51 0.53 0.61 0.70 0.74 0.71 0.67 0.60 0.57 0.64 0.82 1.09 1.20 1.03 0.82 0.76 0.65 0.65 0.79 0.82 0.88 0.89 0.94 1.01 0.98
0.15 0.13 0.13 0.13 0.12 0.11 0.12 0.10 0.10 0.14 0.18 0.22 0.25 0.31 0.35 0.33 0.39 0.47 0.53 0.56 0.63 0.72 0.74 0.71 0.68 0.64 0.63 0.70 0.88 0.90 0.97 1.05 0.92 0.85 0.86 0.76 0.79 0.80 0.74 0.76 0.86 0.88 0.84
0.12 0.11 0.12 0.14 0.13 0.11 0.11 0.10 0.11 0.15 0.19 0.22 0.25 0.29 0.36 0.37 0.37 0.44 0.53 0.58 0.62 0.76 0.81 0.77 0.74 0.67 0.65 0.78 0.99 0.92 0.85 0.95 0.96 0.94 0.91 0.86 0.85 0.83 0.76 0.75 0.74 0.72 0.76
0.13 0.12 0.12 0.12 0.13 0.13 0.10 0.09 0.12 0.17 0.21 0.23 0.25 0.30 0.37 0.41 0.39 0.41 0.47 0.55 0.58 0.77 0.92 0.85 0.85 0.83 0.83 0.92 1.12 1.11 1.04 1.06 1.09 1.08 1.04 0.96 0.92 0.91 0.84 0.76 0.70 0.69 0.74
0.13 0.13 0.11 0.12 0.12 0.11 0.10 0.11 0.13 0.18 0.24 0.28 0.30 0.34 0.40 0.41 0.41 0.41 0.45 0.52 0.55 0.62 0.66 0.72 0.80 0.79 0.89 0.95 0.91 0.98 1.02 1.05 1.11 1.12 1.06 0.89 0.79 0.79 0.76 0.75 0.72 0.67 0.65

GEFSMW_prec_meanprecacc_216.txt.gz
Total_Precipitation_Accumulation
0.09 0.11 0.16 0.20 0.24 0.32 0.41 0.46 0.50 0.59 0.72 0.83 0.89 0.88 0.94 0.89 0.80 0.74 0.77 0.78 0.75 0.69 0.63 0.57 0.51 0.54 0.55 0.53 0.48 0.45 0.46 0.45 0.44 0.46 0.44 0.41 0.39 0.36 0.33 0.37 0.49 0.59 0.61
0.10 0.11 0.16 0.24 0.27 0.32 0.40 0.48 0.50 0.54 0.62 0.65 0.73 0.79 0.80 0.82 0.81 0.75 0.74 0.80 0.80 0.74 0.70 0.66 0.58 0.51 0.52 0.52 0.51 0.47 0.45 0.44 0.39 0.42 0.48 0.43 0.40 0.39 0.31 0.27 0.34 0.44 0.52
0.10 0.10 0.13 0.23 0.28 0.30 0.38 0.44 0.51 0.51 0.59 0.65 0.78 0.86 0.92 0.92 0.89 0.84 0.79 0.77 0.79 0.77 0.71 0.66 0.63 0.57 0.52 0.49 0.49 0.48 0.47 0.46 0.41 0.38 0.54 0.59 0.43 0.31 0.22 0.21 0.25 0.27 0.31
0.11 0.10 0.12 0.19 0.25 0.28 0.37 0.44 0.52 0.59 0.60 0.69 0.79 0.79 0.79 0.79 0.72 0.72 0.73 0.78 0.80 0.79 0.76 0.71 0.67 0.63 0.58 0.53 0.48 0.48 0.47 0.49 0.50 0.44 0.42 0.45 0.45 0.48 0.32 0.16 0.16 0.15 0.16
0.12 0.11 0.11 0.17 0.23 0.29 0.37 0.46 0.50 0.63 0.66 0.67 0.74 0.74 0.70 0.68 0.69 0.74 0.78 0.79 0.82 0.84 0.79 0.75 0.72 0.65 0.59 0.56 0.54 0.50 0.51 0.52 0.52 0.50 0.46 0.42 0.37 0.39 0.50 0.33 0.19 0.18 0.16
0.15 0.15 0.14 0.17 0.23 0.30 0.38 0.44 0.51 0.62 0.71 0.70 0.75 0.75 0.71 0.69 0.73 0.77 0.85 0.86 0.87 0.91 0.88 0.78 0.76 0.70 0.60 0.55 0.57 0.56 0.53 0.53 0.52 0.50 0.49 0.53 0.54 0.45 0.49 0.45 0.27 0.23 0.21
0.19 0.19 0.16 0.19 0.22 0.29 0.38 0.43 0.47 0.60 0.71 0.72 0.73 0.74 0.70 0.68 0.70 0.74 0.80 0.84 0.87 0.90 0.90 0.85 0.79 0.75 0.67 0.57 0.58 0.62 0.60 0.57 0.58 0.56 0.53 0.51 0.51 0.49 0.55 0.59 0.44 0.31 0.25
0.20 0.21 0.18 0.20 0.23 0.28 0.35 0.42 0.44 0.53 0.68 0.70 0.70 0.72 0.70 0.66 0.66 0.70 0.73 0.79 0.76 0.76 0.83 0.88 0.87 0.79 0.73 0.68 0.64 0.64 0.62 0.63 0.65 0.62 0.59 0.57 0.50 0.51 0.58 0.68 0.75 0.64 0.37
0.14 0.21 0.19 0.22 0.26 0.31 0.33 0.41 0.46 0.52 0.65 0.72 0.69 0.71 0.72 0.70 0.63 0.65 0.69 0.76 0.75 0.69 0.73 0.83 0.91 0.92 0.86 0.79 0.75 0.73 0.66 0.65 0.68 0.70 0.70 0.69 0.61 0.55 0.55 0.62 0.80 1.02 0.82
0.13 0.17 0.17 0.22 0.28 0.32 0.32 0.37 0.47 0.52 0.60 0.68 0.70 0.72 0.75 0.73 0.67 0.66 0.67 0.68 0.73 0.74 0.72 0.74 0.81 0.87 0.92 0.92 0.87 0.83 0.77 0.74 0.72 0.74 0.78 0.80 0.77 0.73 0.67 0.64 0.67 0.83 0.98
0.13 0.16 0.16 0.21 0.27 0.32 0.31 0.33 0.41 0.52 0.60 0.64 0.66 0.72 0.80 0.78 0.76 0.73 0.68 0.65 0.67 0.75 0.77 0.77 0.83 0.88 0.89 0.90 0.96 0.95 0.90 0.87 0.83 0.79 0.80 0.81 0.83 0.90 0.89 0.84 0.80 0.77 0.85
0.14 0.14 0.16 0.19 0.24 0.27 0.31 0.34 0.38 0.46 0.57 0.66 0.68 0.70 0.79 0.83 0.81 0.85 0.84 0.74 0.67 0.69 0.77 0.81 0.83 0.91 0.96 0.95 0.98 1.01 1.02 1.06 1.02 0.93 0.88 0.87 0.87 0.93 0.96 1.01 0.97 0.87 0.81
0.16 0.15 0.15 0.17 0.22 0.25 0.30 0.33 0.36 0.41 0.51 0.65 0.70 0.74 0.77 0.84 0.85 0.87 0.93 0.93 0.90 0.91 0.91 0.96 1.00 1.03 1.07 1.11 1.13 1.14 1.19 1.24 1.24 1.18 1.13 1.02 0.99 1.03 1.00 1.02 1.04 0.97 0.88
0.17 0.15 0.15 0.16 0.21 0.24 0.28 0.31 0.32 0.39 0.48 0.64 0.75 0.76 0.79 0.80 0.84 0.88 0.92 1.04 1.11 1.18 1.24 1.22 1.23 1.25 1.30 1.42 1.50 1.49 1.47 1.42 1.38 1.35 1.32 1.25 1.19 1.17 1.15 1.16 1.11 1.05 1.05
0.13 0.13 0.15 0.17 0.19 0.23 0.25 0.26 0.29 0.35 0.44 0.60 0.70 0.76 0.82 0.91 0.98 1.00 1.02 1.07 1.19 1.26 1.27 1.30 1.33 1.33 1.49 1.79 1.91 1.76 1.55 1.41 1.33 1.28 1.27 1.30 1.39 1.39 1.41 1.47 1.35 1.25 1.28
0.11 0.11 0.13 0.17 0.19 0.21 0.24 0.23 0.25 0.32 0.41 0.56 0.64 0.72 0.86 0.97 1.09 1.11 1.15 1.17 1.22 1.30 1.32 1.28 1.29 1.28 1.39 1.78 1.90 1.55 1.24 1.16 1.21 1.21 1.14 1.12 1.26 1.32 1.37 1.48 1.48 1.48 1.52
0.09 0.09 0.11 0.15 0.18 0.20 0.20 0.21 0.24 0.29 0.35 0.46 0.59 0.66 0.80 0.92 1.02 1.05 1.09 1.12 1.06 1.05 1.15 1.21 1.15 1.11 1.19 1.52 1.62 1.33 0.95 0.85 0.93 0.97 0.98 0.96 1.00 1.16 1.13 1.19 1.23 1.30 1.41
0.11 0.11 0.12 0.13 0.15 0.17 0.18 0.18 0.19 0.24 0.33 0.41 0.54 0.59 0.68 0.82 0.88 0.94 0.99 1.01 0.93 0.92 1.02 1.04 0.95 0.88 0.92 1.25 1.40 1.19 0.85 0.79 0.84 0.86 0.88 0.87 0.87 1.01 1.18 1.22 1.10 1.03 1.13
0.11 0.11 0.12 0.12 0.12 0.15 0.17 0.17 0.17 0.19 0.26 0.34 0.45 0.52 0.60 0.76 0.77 0.83 0.92 0.91 0.91 0.90 0.87 0.86 0.81 0.75 0.77 1.03 1.32 1.19 0.82 0.85 0.85 0.84 0.88 0.83 0.76 1.00 1.19 1.19 1.10 0.98 0.99
0.10 0.10 0.10 0.09 0.10 0.13 0.14 0.14 0.15 0.17 0.22 0.29 0.37 0.43 0.48 0.62 0.65 0.67 0.73 0.75 0.77 0.81 0.81 0.79 0.74 0.72 0.68 0.85 1.22 1.27 0.88 0.85 0.83 0.82 0.84 0.93 0.91 1.05 1.11 1.04 1.07 1.09 0.98
0.11 0.10 0.10 0.10 0.10 0.12 0.14 0.14 0.14 0.16 0.20 0.25 0.30 0.35 0.40 0.46 0.51 0.56 0.60 0.64 0.67 0.72 0.77 0.77 0.71 0.63 0.63 0.71 0.99 1.33 1.08 0.88 0.80 0.80 0.83 0.84 0.96 0.99 1.03 1.05 1.05 1.17 1.04
0.14 0.12 0.11 0.10 0.10 0.12 0.13 0.11 0.12 0.16 0.18 0.23 0.28 0.33 0.38 0.39 0.43 0.48 0.54 0.56 0.64 0.75 0.78 0.75 0.72 0.65 0.62 0.68 0.87 1.13 1.23 1.07 0.86 0.80 0.69 0.70 0.85 0.89 0.96 0.97 1.03 1.09 1.06
0.15 0.13 0.13 0.13 0.12 0.11 0.12 0.11 0.11 0.15 0.19 0.23 0.27 0.32 0.37 0.34 0.41 0.48 0.55 0.58 0.66 0.76 0.78 0.74 0.71 0.69 0.67 0.74 0.92 0.94 1.00 1.08 0.95 0.89 0.89 0.80 0.83 0.85 0.80 0.83 0.94 0.96 0.93
0.13 0.12 0.12 0.14 0.13 0.12 0.11 0.10 0.11 0.15 0.20 0.23 0.26 0.31 0.38 0.39 0.39 0.45 0.54 0.59 0.64 0.79 0.85 0.81 0.78 0.71 0.69 0.81 1.03 0.96 0.89 0.99 1.00 0.97 0.94 0.90 0.89 0.87 0.80 0.80 0.80 0.78 0.83
0.13 0.12 0.12 0.13 0.13 0.13 0.10 0.10 0.13 0.18 0.22 0.24 0.26 0.31 0.39 0.43 0.41 0.43 0.49 0.57 0.61 0.80 0.96 0.89 0.90 0.88 0.88 0.98 1.18 1.16 1.09 1.12 1.14 1.12 1.09 1.01 0.97 0.95 0.88 0.81 0.75 0.75 0.81
0.14 0.13 0.12 0.12 0.12 0.11 0.10 0.11 0.14 0.19 0.25 0.29 0.31 0.35 0.42 0.43 0.43 0.43 0.47 0.55 0.59 0.66 0.70 0.76 0.85 0.84 0.94 1.00 0.96 1.02 1.07 1.10 1.15 1.15 1.10 0.93 0.83 0.82 0.79 0.78 0.76 0.72 0.70

GEFSMW_prec_meanprecacc_222.txt.gz
Total_Precipitation_Accumulation
0.09 0.11 0.16 0.20 0.24 0.32 0.41 0.46 0.50 0.59 0.72 0.83 0.89 0.88 0.94 0.90 0.82 0.75 0.79 0.80 0.77 0.70 0.64 0.58 0.52 0.55 0.55 0.53 0.49 0.45 0.46 0.46 0.44 0.47 0.44 0.42 0.40 0.36 0.34 0.38 0.50 0.61 0.62
0.10 0.11 0.16 0.24 0.27 0.32 0.40 0.48 0.50 0.54 0.62 0.65 0.73 0.79 0.80 0.83 0.84 0.77 0.76 0.81 0.82 0.76 0.71 0.67 0.59 0.52 0.52 0.52 0.51 0.47 0.46 0.44 0.39 0.43 0.49 0.44 0.41 0.39 0.32 0.28 0.35 0.44 0.52
0.10 0.10 0.13 0.23 0.28 0.30 0.38 0.44 0.51 0.51 0.59 0.65 0.78 0.87 0.93 0.94 0.93 0.88 0.82 0.80 0.81 0.79 0.72 0.67 0.64 0.58 0.52 0.50 0.49 0.48 0.47 0.46 0.42 0.38 0.55 0.60 0.45 0.32 0.24 0.23 0.26 0.28 0.32
0.11 0.10 0.12 0.19 0.25 0.28 0.37 0.44 0.52 0.59 0.60 0.69 0.79 0.79 0.80 0.81 0.75 0.75 0.76 0.80 0.82 0.81 0.76 0.71 0.68 0.64 0.59 0.53 0.49 0.48 0.47 0.49 0.50 0.45 0.43 0.47 0.47 0.50 0.35 0.19 0.18 0.18 0.19
0.12 0.11 0.12 0.17 0.23 0.29 0.37 0.46 0.51 0.63 0.66 0.67 0.74 0.74 0.70 0.69 0.72 0.77 0.82 0.82 0.85 0.86 0.80 0.76 0.73 0.67 0.61 0.57 0.54 0.50 0.51 0.53 0.53 0.51 0.47 0.44 0.39 0.41 0.52 0.35 0.21 0.21 0.19
0.15 0.15 0.14 0.17 0.23 0.30 0.39 0.44 0.51 0.62 0.71 0.70 0.75 0.75 0.72 0.70 0.76 0.81 0.89 0.89 0.90 0.93 0.89 0.79 0.77 0.71 0.61 0.56 0.57 0.56 0.54 0.53 0.53 0.51 0.50 0.54 0.55 0.46 0.50 0.46 0.27 0.24 0.23
0.20 0.20 0.17 0.19 0.22 0.29 0.39 0.44 0.48 0.61 0.71 0.72 0.74 0.75 0.71 0.69 0.73 0.78 0.83 0.87 0.89 0.92 0.92 0.85 0.80 0.76 0.68 0.58 0.59 0.63 0.62 0.59 0.59 0.57 0.54 0.52 0.52 0.50 0.56 0.61 0.46 0.33 0.26
0.21 0.23 0.19 0.20 0.24 0.28 0.35 0.42 0.45 0.54 0.69 0.70 0.71 0.73 0.72 0.68 0.70 0.74 0.77 0.81 0.79 0.78 0.83 0.89 0.88 0.80 0.74 0.70 0.65 0.65 0.62 0.64 0.67 0.63 0.60 0.58 0.52 0.52 0.60 0.70 0.77 0.67 0.39
0.15 0.22 0.20 0.23 0.26 0.31 0.33 0.41 0.47 0.53 0.66 0.73 0.71 0.72 0.74 0.73 0.66 0.70 0.73 0.80 0.79 0.71 0.74 0.84 0.92 0.93 0.87 0.80 0.77 0.74 0.67 0.66 0.70 0.71 0.72 0.71 0.63 0.57 0.56 0.64 0.83 1.06 0.85
0.14 0.18 0.18 0.22 0.28 0.33 0.32 0.37 0.48 0.52 0.61 0.71 0.73 0.76 0.78 0.77 0.71 0.70 0.72 0.72 0.77 0.76 0.73 0.75 0.81 0.88 0.93 0.93 0.88 0.85 0.78 0.76 0.75 0.76 0.80 0.82 0.80 0.75 0.69 0.67 0.70 0.87 1.03
0.14 0.16 0.17 0.21 0.27 0.32 0.32 0.33 0.41 0.52 0.61 0.67 0.70 0.76 0.86 0.84 0.81 0.78 0.73 0.69 0.70 0.77 0.78 0.78 0.83 0.88 0.90 0.91 0.97 0.96 0.92 0.89 0.85 0.82 0.83 0.84 0.87 0.94 0.93 0.88 0.84 0.82 0.90
0.14 0.14 0.16 0.20 0.24 0.27 0.31 0.34 0.38 0.47 0.58 0.68 0.70 0.73 0.83 0.90 0.87 0.91 0.89 0.79 0.70 0.71 0.78 0.82 0.84 0.91 0.96 0.96 0.99 1.03 1.04 1.08 1.04 0.95 0.91 0.90 0.91 0.97 1.00 1.05 1.02 0.93 0.86
0.17 0.15 0.15 0.17 0.22 0.25 0.30 0.34 0.37 0.42 0.52 0.67 0.71 0.75 0.79 0.87 0.89 0.92 0.99 0.98 0.93 0.93 0.93 0.97 1.00 1.04 1.08 1.12 1.15 1.17 1.22 1.27 1.27 1.21 1.16 1.05 1.02 1.05 1.03 1.06 1.08 1.02 0.94
0.17 0.16 0.15 0.16 0.21 0.25 0.28 0.31 0.32 0.40 0.49 0.65 0.76 0.78 0.81 0.82 0.86 0.91 0.96 1.08 1.15 1.21 1.26 1.23 1.24 1.25 1.31 1.43 1.51 1.51 1.49 1.45 1.41 1.38 1.36 1.29 1.22 1.20 1.19 1.20 1.15 1.09 1.09
0.14 0.13 0.15 0.17 0.19 0.23 0.26 0.27 0.29 0.36 0.45 0.60 0.71 0.77 0.83 0.93 0.99 1.02 1.04 1.08 1.21 1.28 1.29 1.31 1.34 1.33 1.50 1.80 1.92 1.78 1.57 1.43 1.36 1.31 1.31 1.34 1.43 1.44 1.46 1.52 1.40 1.29 1.33
0.11 0.12 0.13 0.17 0.20 0.22 0.24 0.23 0.25 0.33 0.42 0.56 0.65 0.73 0.86 0.98 1.10 1.12 1.17 1.19 1.23 1.31 1.33 1.30 1.31 1.30 1.40 1.80 1.92 1.58 1.27 1.19 1.24 1.25 1.17 1.16 1.31 1.36 1.43 1.55 1.54 1.54 1.58
0.10 0.10 0.12 0.16 0.18 0.20 0.21 0.22 0.24 0.30 0.35 0.47 0.59 0.66 0.80 0.93 1.03 1.06 1.10 1.13 1.06 1.05 1.16 1.22 1.16 1.12 1.20 1.54 1.64 1.36 0.98 0.88 0.97 1.02 1.02 1.00 1.04 1.21 1.18 1.26 1.30 1.37 1.50
0.11 0.11 0.13 0.14 0.15 0.18 0.19 0.19 0.20 0.25 0.34 0.41 0.54 0.59 0.69 0.83 0.89 0.95 1.00 1.01 0.93 0.92 1.03 1.05 0.97 0.89 0.94 1.26 1.41 1.21 0.87 0.81 0.86 0.91 0.92 0.91 0.92 1.06 1.24 1.27 1.15 1.08 1.18
0.11 0.11 0.12 0.13 0.13 0.16 0.18 0.18 0.18 0.21 0.27 0.35 0.45 0.52 0.61 0.77 0.78 0.84 0.93 0.92 0.92 0.91 0.88 0.88 0.83 0.76 0.78 1.04 1.33 1.20 0.83 0.86 0.87 0.88 0.93 0.88 0.83 1.08 1.26 1.24 1.14 1.03 1.03
0.10 0.10 0.11 0.10 0.11 0.14 0.16 0.16 0.16 0.19 0.24 0.31 0.38 0.44 0.49 0.64 0.67 0.68 0.74 0.76 0.78 0.82 0.83 0.81 0.76 0.73 0.69 0.87 1.24 1.28 0.89 0.86 0.85 0.86 0.90 1.02 1.00 1.13 1.19 1.10 1.11 1.14 1.02
0.11 0.10 0.10 0.11 0.11 0.13 0.15 0.15 0.15 0.18 0.23 0.28 0.32 0.37 0.41 0.48 0.53 0.58 0.61 0.65 0.69 0.74 0.79 0.80 0.73 0.65 0.65 0.73 1.02 1.36 1.11 0.90 0.82 0.83 0.88 0.91 1.05 1.07 1.12 1.14 1.13 1.23 1.09
0.14 0.13 0.12 0.11 0.11 0.13 0.14 0.13 0.14 0.18 0.20 0.26 0.31 0.35 0.40 0.42 0.45 0.50 0.56 0.58 0.67 0.77 0.80 0.77 0.75 0.68 0.65 0.71 0.89 1.16 1.26 1.10 0.90 0.84 0.73 0.76 0.92 0.97 1.05 1.07 1.13 1.18 1.14
0.15 0.14 0.13 0.14 0.12 0.12 0.13 0.12 0.12 0.17 0.21 0.27 0.30 0.36 0.40 0.38 0.45 0.51 0.58 0.61 0.69 0.78 0.81 0.77 0.74 0.72 0.70 0.77 0.95 0.97 1.03 1.12 0.99 0.92 0.93 0.85 0.89 0.92 0.89 0.92 1.04 1.06 1.00
0.13 0.12 0.13 0.14 0.14 0.12 0.12 0.11 0.13 0.17 0.22 0.26 0.29 0.34 0.41 0.42 0.43 0.48 0.57 0.62 0.67 0.82 0.88 0.84 0.81 0.73 0.72 0.84 1.05 0.99 0.92 1.02 1.03 1.00 0.98 0.94 0.94 0.93 0.88 0.89 0.89 0.87 0.91
0.13 0.12 0.12 0.13 0.14 0.13 0.11 0.10 0.14 0.19 0.23 0.25 0.28 0.34 0.42 0.46 0.43 0.45 0.51 0.58 0.62 0.82 0.99 0.92 0.92 0.90 0.91 1.00 1.21 1.20 1.13 1.16 1.18 1.17 1.13 1.06 1.03 1.01 0.93 0.87 0.82 0.83 0.89
0.14 0.14 0.12 0.12 0.12 0.11 0.10 0.12 0.15 0.20 0.27 0.30 0.32 0.36 0.44 0.45 0.44 0.45 0.48 0.56 0.60 0.67 0.72 0.78 0.87 0.86 0.97 1.03 1.00 1.07 1.12 1.15 1.20 1.21 1.16 0.99 0.89 0.88 0.84 0.82 0.81 0.78 0.76

GEFSMW_prec_meanprecacc_228.txt.gz
Total_Precipitation_Accumulation
0.09 0.11 0.16 0.20 0.24 0.32 0.41 0.46 0.50 0.59 0.72 0.83 0.89 0.88 0.95 0.91 0.82 0.76 0.79 0.81 0.79 0.73 0.67 0.60 0.53 0.56 0.56 0.53 0.49 0.46 0.46 0.46 0.44 0.47 0.45 0.42 0.40 0.36 0.34 0.38 0.50 0.62 0.63
0.10 0.11 0.16 0.24 0.28 0.32 0.40 0.48 0.50 0.54 0.62 0.65 0.73 0.79 0.80 0.84 0.84 0.78 0.77 0.82 0.84 0.78 0.74 0.69 0.60 0.53 0.53 0.53 0.51 0.47 0.46 0.44 0.39 0.43 0.49 0.44 0.41 0.39 0.32 0.28 0.35 0.45 0.53
0.10 0.10 0.13 0.23 0.28 0.30 0.38 0.44 0.51 0.51 0.59 0.65 0.78 0.87 0.93 0.95 0.93 0.88 0.83 0.81 0.83 0.81 0.74 0.69 0.66 0.60 0.54 0.51 0.51 0.50 0.47 0.47 0.42 0.39 0.55 0.61 0.45 0.33 0.24 0.23 0.26 0.28 0.32
0.11 0.10 0.12 0.19 0.25 0.28 0.37 0.44 0.52 0.59 0.60 0.69 0.79 0.79 0.80 0.81 0.75 0.75 0.77 0.81 0.84 0.83 0.79 0.74 0.70 0.66 0.61 0.55 0.50 0.50 0.49 0.50 0.51 0.45 0.43 0.47 0.47 0.51 0.35 0.19 0.18 0.18 0.19
0.12 0.11 0.12 0.17 0.23 0.29 0.37 0.46 0.51 0.63 0.66 0.67 0.74 0.74 0.70 0.69 0.72 0.78 0.82 0.83 0.86 0.89 0.83 0.79 0.75 0.69 0.62 0.59 0.56 0.52 0.53 0.55 0.55 0.52 0.47 0.44 0.40 0.41 0.52 0.35 0.21 0.21 0.19
0.15 0.15 0.14 0.17 0.23 0.30 0.39 0.44 0.51 0.62 0.71 0.70 0.75 0.75 0.72 0.70 0.76 0.81 0.89 0.90 0.91 0.95 0.92 0.82 0.80 0.74 0.64 0.58 0.59 0.58 0.55 0.55 0.54 0.52 0.51 0.54 0.55 0.46 0.50 0.46 0.28 0.24 0.23
0.20 0.20 0.17 0.19 0.22 0.29 0.39 0.44 0.48 0.61 0.71 0.72 0.74 0.75 0.71 0.70 0.73 0.78 0.83 0.87 0.90 0.94 0.94 0.89 0.83 0.79 0.71 0.61 0.61 0.65 0.63 0.60 0.60 0.58 0.54 0.53 0.52 0.51 0.56 0.61 0.46 0.33 0.26
0.21 0.23 0.19 0.21 0.24 0.28 0.35 0.42 0.45 0.54 0.69 0.70 0.71 0.73 0.72 0.69 0.70 0.74 0.77 0.82 0.80 0.80 0.86 0.92 0.92 0.84 0.77 0.72 0.68 0.68 0.65 0.65 0.67 0.65 0.62 0.59 0.52 0.53 0.61 0.71 0.78 0.68 0.40
0.15 0.22 0.20 0.23 0.26 0.31 0.33 0.41 0.47 0.53 0.67 0.74 0.71 0.73 0.75 0.73 0.67 0.70 0.74 0.81 0.80 0.73 0.77 0.87 0.95 0.97 0.91 0.83 0.80 0.76 0.69 0.67 0.70 0.72 0.73 0.72 0.64 0.58 0.57 0.65 0.84 1.07 0.86
0.14 0.18 0.18 0.22 0.28 0.33 0.32 0.37 0.48 0.52 0.61 0.71 0.74 0.76 0.79 0.78 0.72 0.71 0.73 0.74 0.78 0.79 0.76 0.78 0.85 0.91 0.96 0.96 0.91 0.87 0.80 0.77 0.76 0.77 0.81 0.84 0.81 0.77 0.71 0.68 0.72 0.88 1.05
0.14 0.16 0.17 0.21 0.28 0.32 0.32 0.33 0.41 0.52 0.61 0.67 0.70 0.77 0.87 0.85 0.83 0.80 0.75 0.71 0.72 0.80 0.82 0.81 0.87 0.91 0.93 0.94 1.00 0.99 0.94 0.91 0.87 0.83 0.85 0.86 0.90 0.96 0.95 0.91 0.87 0.84 0.93
0.14 0.15 0.16 0.20 0.24 0.28 0.32 0.34 0.39 0.47 0.58 0.68 0.70 0.73 0.84 0.91 0.89 0.94 0.91 0.81 0.73 0.75 0.81 0.85 0.87 0.95 0.99 0.98 1.02 1.06 1.06 1.10 1.06 0.97 0.93 0.91 0.93 0.99 1.03 1.10 1.06 0.96 0.89
0.17 0.16 0.15 0.18 0.22 0.25 0.31 0.34 0.37 0.42 0.52 0.67 0.72 0.75 0.79 0.88 0.90 0.93 1.00 0.99 0.96 0.97 0.97 1.00 1.04 1.07 1.11 1.15 1.17 1.19 1.23 1.28 1.28 1.22 1.17 1.07 1.04 1.08 1.07 1.11 1.13 1.05 0.97
0.17 0.16 0.16 0.17 0.21 0.25 0.29 0.32 0.33 0.40 0.49 0.65 0.76 0.78 0.81 0.82 0.86 0.91 0.96 1.09 1.17 1.25 1.30 1.28 1.27 1.28 1.34 1.46 1.54 1.52 1.50 1.46 1.42 1.39 1.36 1.30 1.23 1.22 1.21 1.23 1.18 1.12 1.12
0.14 0.14 0.15 0.17 0.20 0.23 0.26 0.28 0.30 0.36 0.45 0.61 0.71 0.77 0.83 0.93 1.00 1.02 1.05 1.10 1.23 1.32 1.33 1.35 1.37 1.36 1.53 1.83 1.95 1.79 1.58 1.44 1.37 1.32 1.31 1.34 1.43 1.45 1.48 1.54 1.43 1.33 1.36
0.12 0.12 0.14 0.18 0.20 0.22 0.25 0.25 0.26 0.33 0.42 0.57 0.65 0.73 0.87 0.98 1.11 1.13 1.18 1.20 1.25 1.34 1.36 1.32 1.33 1.32 1.43 1.83 1.95 1.59 1.28 1.19 1.25 1.25 1.18 1.16 1.32 1.38 1.46 1.58 1.58 1.58 1.62
0.11 0.11 0.13 0.17 0.20 0.22 0.22 0.23 0.26 0.30 0.36 0.48 0.60 0.67 0.81 0.94 1.04 1.07 1.11 1.15 1.09 1.08 1.18 1.24 1.18 1.14 1.22 1.56 1.66 1.37 0.99 0.88 0.97 1.03 1.03 1.01 1.07 1.24 1.20 1.29 1.34 1.41 1.53
0.12 0.12 0.14 0.15 0.16 0.19 0.20 0.20 0.22 0.26 0.35 0.42 0.55 0.59 0.69 0.83 0.90 0.96 1.01 1.03 0.97 0.95 1.04 1.07 0.98 0.91 0.95 1.27 1.41 1.21 0.87 0.81 0.87 0.91 0.93 0.92 0.93 1.08 1.26 1.30 1.18 1.11 1.21
0.11 0.12 0.13 0.13 0.13 0.16 0.19 0.19 0.19 0.22 0.28 0.35 0.46 0.53 0.62 0.78 0.79 0.85 0.95 0.94 0.95 0.92 0.90 0.89 0.84 0.77 0.78 1.05 1.33 1.21 0.83 0.86 0.88 0.89 0.94 0.89 0.84 1.09 1.28 1.27 1.18 1.06 1.06
0.10 0.10 0.11 0.10 0.12 0.14 0.16 0.16 0.17 0.20 0.25 0.32 0.39 0.44 0.50 0.65 0.68 0.70 0.76 0.78 0.81 0.83 0.84 0.82 0.77 0.74 0.70 0.87 1.24 1.28 0.89 0.86 0.85 0.86 0.91 1.03 1.02 1.15 1.22 1.14 1.16 1.18 1.05
0.12 0.11 0.11 0.11 0.12 0.14 0.16 0.16 0.16 0.19 0.24 0.29 0.33 0.38 0.42 0.50 0.54 0.59 0.62 0.67 0.71 0.75 0.80 0.81 0.74 0.66 0.66 0.74 1.02 1.37 1.11 0.91 0.83 0.85 0.89 0.93 1.07 1.10 1.16 1.19 1.17 1.28 1.12
0.16 0.14 0.13 0.11 0.12 0.13 0.14 0.14 0.15 0.19 0.21 0.27 0.32 0.36 0.41 0.43 0.47 0.51 0.57 0.59 0.67 0.77 0.81 0.78 0.76 0.68 0.65 0.71 0.90 1.17 1.27 1.12 0.92 0.87 0.76 0.78 0.94 0.99 1.08 1.11 1.16 1.21 1.17
0.15 0.14 0.14 0.14 0.13 0.13 0.14 0.13 0.13 0.18 0.22 0.28 0.32 0.38 0.41 0.39 0.46 0.52 0.58 0.62 0.69 0.79 0.81 0.77 0.75 0.72 0.71 0.77 0.97 0.98 1.04 1.14 1.01 0.95 0.96 0.87 0.91 0.94 0.91 0.95 1.07 1.09 1.04
0.13 0.12 0.13 0.15 0.14 0.13 0.12 0.12 0.13 0.18 0.23 0.27 0.30 0.36 0.43 0.44 0.44 0.50 0.58 0.63 0.68 0.82 0.88 0.85 0.81 0.74 0.73 0.85 1.07 1.00 0.94 1.04 1.05 1.03 1.00 0.96 0.96 0.95 0.90 0.91 0.93 0.91 0.96
0.14 0.13 0.13 0.13 0.14 0.13 0.11 0.11 0.14 0.20 0.24 0.26 0.29 0.35 0.44 0.48 0.45 0.47 0.53 0.60 0.63 0.83 1.00 0.94 0.94 0.92 0.93 1.02 1.23 1.22 1.16 1.18 1.20 1.19 1.16 1.08 1.05 1.03 0.95 0.89 0.85 0.87 0.93
0.15 0.15 0.13 0.13 0.13 0.12 0.11 0.12 0.15 0.21 0.28 0.32 0.34 0.38 0.46 0.48 0.46 0.47 0.51 0.59 0.62 0.70 0.74 0.81 0.90 0.89 0.99 1.05 1.02 1.09 1.14 1.17 1.22 1.24 1.19 1.01 0.91 0.90 0.86 0.84 0.84 0.82 0.80

GEFSMW_prec_meanprecacc_234.txt.gz
Total_Precipitation_Accumulation
0.10 0.13 0.18 0.22 0.26 0.34 0.41 0.47 0.51 0.59 0.73 0.84 0.90 0.89 0.97 0.93 0.85 0.78 0.82 0.83 0.81 0.75 0.69 0.61 0.54 0.57 0.58 0.55 0.50 0.47 0.47 0.46 0.45 0.47 0.45 0.42 0.40 0.36 0.34 0.38 0.50 0.62 0.63
0.12 0.13 0.18 0.25 0.29 0.33 0.40 0.48 0.50 0.54 0.62 0.66 0.74 0.80 0.82 0.85 0.85 0.79 0.78 0.84 0.86 0.80 0.76 0.71 0.62 0.55 0.55 0.55 0.53 0.49 0.47 0.45 0.40 0.43 0.50 0.45 0.41 0.39 0.32 0.28 0.35 0.45 0.53
0.12 0.11 0.14 0.24 0.29 0.31 0.38 0.44 0.51 0.51 0.59 0.66 0.78 0.87 0.93 0.95 0.93 0.88 0.83 0.81 0.84 0.83 0.76 0.71 0.68 0.62 0.56 0.53 0.53 0.52 0.49 0.48 0.43 0.39 0.56 0.61 0.45 0.33 0.24 0.23 0.26 0.28 0.32
0.12 0.11 0.13 0.20 0.26 0.29 0.38 0.44 0.52 0.59 0.60 0.69 0.79 0.79 0.80 0.81 0.75 0.75 0.77 0.81 0.84 0.84 0.80 0.75 0.71 0.68 0.63 0.57 0.53 0.52 0.51 0.53 0.53 0.47 0.44 0.48 0.47 0.51 0.35 0.19 0.18 0.18 0.19
0.13 0.12 0.12 0.17 0.24 0.29 0.38 0.46 0.51 0.63 0.66 0.67 0.74 0.74 0.70 0.69 0.72 0.78 0.82 0.83 0.86 0.89 0.84 0.79 0.76 0.70 0.64 0.61 0.58 0.54 0.55 0.57 0.58 0.55 0.49 0.46 0.41 0.42 0.53 0.35 0.21 0.21 0.19
0.16 0.16 0.15 0.18 0.24 0.30 0.39 0.44 0.51 0.62 0.71 0.71 0.75 0.75 0.72 0.71 0.77 0.81 0.89 0.90 0.91 0.95 0.92 0.83 0.81 0.75 0.65 0.60 0.61 0.60 0.57 0.57 0.57 0.55 0.54 0.57 0.57 0.48 0.52 0.47 0.28 0.24 0.23
0.21 0.20 0.18 0.20 0.23 0.30 0.39 0.44 0.48 0.61 0.71 0.72 0.74 0.75 0.71 0.70 0.73 0.78 0.83 0.87 0.90 0.94 0.94 0.89 0.83 0.79 0.72 0.62 0.63 0.67 0.66 0.63 0.63 0.61 0.58 0.57 0.56 0.53 0.59 0.63 0.48 0.34 0.27
0.21 0.23 0.19 0.21 0.24 0.29 0.35 0.42 0.45 0.54 0.69 0.71 0.71 0.73 0.72 0.69 0.70 0.75 0.77 0.82 0.80 0.80 0.86 0.92 0.92 0.84 0.78 0.73 0.69 0.70 0.67 0.69 0.71 0.68 0.65 0.63 0.56 0.56 0.63 0.73 0.80 0.70 0.41
0.16 0.23 0.20 0.23 0.27 0.32 0.34 0.41 0.47 0.53 0.67 0.74 0.71 0.73 0.75 0.73 0.67 0.71 0.74 0.81 0.80 0.73 0.77 0.87 0.96 0.97 0.91 0.84 0.81 0.79 0.72 0.71 0.74 0.75 0.76 0.77 0.68 0.62 0.60 0.66 0.85 1.09 0.89
0.14 0.18 0.18 0.23 0.29 0.33 0.32 0.37 0.48 0.52 0.62 0.71 0.74 0.76 0.79 0.78 0.72 0.71 0.73 0.74 0.78 0.79 0.77 0.79 0.85 0.92 0.97 0.97 0.92 0.90 0.84 0.81 0.80 0.81 0.84 0.87 0.85 0.80 0.75 0.71 0.73 0.90 1.07
0.14 0.16 0.17 0.21 0.28 0.32 0.32 0.33 0.42 0.53 0.61 0.68 0.71 0.77 0.87 0.85 0.83 0.81 0.75 0.72 0.73 0.80 0.82 0.82 0.88 0.92 0.94 0.95 1.01 1.01 0.97 0.95 0.91 0.88 0.89 0.90 0.92 0.99 0.98 0.93 0.89 0.86 0.95
0.14 0.15 0.16 0.20 0.25 0.28 0.32 0.34 0.39 0.47 0.58 0.68 0.71 0.73 0.84 0.92 0.90 0.94 0.92 0.81 0.74 0.75 0.82 0.86 0.88 0.96 1.01 1.00 1.04 1.08 1.09 1.13 1.10 1.00 0.96 0.95 0.97 1.02 1.05 1.11 1.08 0.98 0.92
0.17 0.16 0.15 0.18 0.23 0.25 0.31 0.34 0.37 0.42 0.52 0.67 0.72 0.76 0.80 0.88 0.91 0.93 1.01 1.00 0.97 0.98 0.97 1.01 1.05 1.08 1.13 1.17 1.19 1.21 1.26 1.32 1.32 1.26 1.20 1.10 1.07 1.11 1.09 1.12 1.14 1.08 1.00
0.17 0.16 0.16 0.17 0.21 0.25 0.29 0.32 0.33 0.40 0.49 0.65 0.77 0.78 0.81 0.83 0.87 0.92 0.97 1.10 1.18 1.26 1.31 1.29 1.28 1.30 1.35 1.47 1.55 1.54 1.53 1.50 1.46 1.43 1.40 1.33 1.26 1.24 1.22 1.24 1.19 1.13 1.13
0.15 0.15 0.16 0.17 0.20 0.24 0.27 0.28 0.31 0.36 0.46 0.61 0.72 0.78 0.83 0.93 1.00 1.02 1.05 1.10 1.23 1.33 1.34 1.37 1.39 1.37 1.55 1.84 1.96 1.81 1.60 1.47 1.40 1.35 1.33 1.37 1.45 1.46 1.49 1.56 1.44 1.34 1.37
0.15 0.15 0.16 0.19 0.21 0.23 0.25 0.25 0.27 0.34 0.43 0.59 0.66 0.74 0.87 0.99 1.11 1.13 1.18 1.20 1.25 1.35 1.36 1.34 1.36 1.34 1.44 1.85 1.97 1.61 1.29 1.21 1.27 1.27 1.19 1.18 1.33 1.39 1.46 1.59 1.59 1.59 1.63
0.14 0.14 0.17 0.21 0.22 0.23 0.23 0.24 0.26 0.32 0.38 0.51 0.62 0.68 0.81 0.94 1.04 1.08 1.11 1.15 1.10 1.08 1.18 1.25 1.20 1.16 1.24 1.58 1.68 1.39 1.00 0.90 0.99 1.04 1.04 1.01 1.07 1.24 1.21 1.30 1.35 1.42 1.54
0.13 0.14 0.16 0.17 0.19 0.22 0.22 0.22 0.23 0.28 0.36 0.45 0.57 0.60 0.70 0.84 0.91 0.97 1.02 1.03 0.97 0.95 1.05 1.08 1.00 0.93 0.97 1.29 1.43 1.23 0.88 0.83 0.88 0.92 0.94 0.92 0.93 1.08 1.26 1.30 1.19 1.12 1.22
0.12 0.13 0.14 0.14 0.15 0.18 0.21 0.21 0.22 0.25 0.30 0.38 0.48 0.54 0.62 0.78 0.80 0.86 0.96 0.95 0.96 0.94 0.92 0.91 0.86 0.79 0.81 1.07 1.34 1.22 0.84 0.87 0.88 0.89 0.94 0.90 0.84 1.09 1.29 1.28 1.19 1.07 1.07
0.11 0.12 0.12 0.11 0.12 0.15 0.17 0.17 0.19 0.23 0.29 0.35 0.42 0.46 0.51 0.65 0.68 0.70 0.77 0.81 0.83 0.86 0.87 0.84 0.79 0.75 0.72 0.89 1.25 1.29 0.89 0.87 0.86 0.87 0.92 1.04 1.02 1.16 1.23 1.16 1.18 1.20 1.06
0.14 0.12 0.12 0.12 0.12 0.14 0.16 0.16 0.16 0.20 0.25 0.31 0.36 0.40 0.44 0.51 0.55 0.60 0.64 0.69 0.73 0.77 0.82 0.82 0.75 0.67 0.67 0.75 1.03 1.37 1.12 0.92 0.84 0.85 0.90 0.94 1.08 1.12 1.17 1.21 1.19 1.30 1.14
0.18 0.16 0.14 0.13 0.12 0.14 0.15 0.14 0.15 0.19 0.23 0.29 0.34 0.38 0.42 0.44 0.48 0.53 0.59 0.61 0.69 0.79 0.81 0.79 0.77 0.70 0.67 0.72 0.91 1.18 1.28 1.12 0.93 0.87 0.76 0.79 0.96 1.01 1.10 1.12 1.18 1.23 1.18
0.17 0.16 0.16 0.16 0.15 0.14 0.15 0.14 0.14 0.19 0.24 0.30 0.34 0.40 0.43 0.40 0.47 0.53 0.60 0.64 0.70 0.80 0.82 0.78 0.76 0.74 0.72 0.79 0.98 1.00 1.05 1.15 1.02 0.95 0.97 0.89 0.93 0.96 0.92 0.97 1.08 1.10 1.05
0.15 0.14 0.15 0.17 0.16 0.14 0.13 0.13 0.14 0.19 0.24 0.29 0.33 0.39 0.46 0.46 0.46 0.51 0.59 0.64 0.69 0.83 0.89 0.86 0.82 0.75 0.73 0.86 1.08 1.01 0.95 1.05 1.06 1.04 1.01 0.98 0.98 0.96 0.90 0.92 0.93 0.92 0.97
0.15 0.14 0.14 0.15 0.15 0.14 0.12 0.11 0.15 0.21 0.25 0.28 0.31 0.37 0.46 0.50 0.47 0.49 0.54 0.61 0.64 0.84 1.01 0.95 0.95 0.93 0.94 1.03 1.24 1.24 1.17 1.20 1.21 1.21 1.18 1.10 1.06 1.04 0.95 0.89 0.86 0.88 0.94
0.16 0.15 0.13 0.14 0.14 0.13 0.12 0.13 0.15 0.22 0.29 0.33 0.35 0.40 0.47 0.50 0.49 0.49 0.53 0.61 0.64 0.71 0.75 0.82 0.92 0.90 1.00 1.07 1.04 1.11 1.16 1.19 1.24 1.26 1.21 1.03 0.93 0.91 0.86 0.85 0.84 0.82 0.81

GEFSMW_prec_meanprecacc_240.txt.gz
Total_Precipitation_Accumulation
0.11 0.14 0.20 0.24 0.28 0.36 0.43 0.48 0.53 0.61 0.74 0.86 0.91 0.90 0.98 0.95 0.87 0.82 0.84 0.85 0.83 0.77 0.71 0.63 0.56 0.58 0.58 0.56 0.51 0.47 0.48 0.47 0.45 0.48 0.45 0.42 0.40 0.37 0.34 0.39 0.51 0.62 0.64
0.12 0.14 0.20 0.28 0.31 0.34 0.42 0.49 0.51 0.56 0.63 0.67 0.76 0.83 0.85 0.88 0.87 0.81 0.81 0.87 0.88 0.82 0.78 0.73 0.64 0.56 0.56 0.55 0.54 0.49 0.48 0.45 0.40 0.44 0.50 0.45 0.41 0.39 0.32 0.28 0.35 0.45 0.53
0.12 0.12 0.17 0.27 0.31 0.33 0.40 0.46 0.52 0.52 0.60 0.66 0.79 0.88 0.95 0.97 0.95 0.90 0.84 0.83 0.86 0.85 0.79 0.73 0.69 0.63 0.57 0.54 0.53 0.52 0.50 0.49 0.44 0.40 0.56 0.62 0.46 0.33 0.24 0.23 0.26 0.28 0.32
0.12 0.12 0.15 0.22 0.28 0.30 0.39 0.46 0.54 0.61 0.61 0.69 0.79 0.79 0.80 0.81 0.76 0.76 0.77 0.82 0.84 0.85 0.82 0.79 0.75 0.69 0.64 0.58 0.53 0.53 0.52 0.53 0.54 0.48 0.45 0.49 0.48 0.52 0.36 0.20 0.19 0.19 0.20
0.13 0.12 0.13 0.19 0.25 0.31 0.39 0.48 0.53 0.64 0.67 0.68 0.75 0.74 0.70 0.69 0.72 0.78 0.82 0.83 0.86 0.89 0.84 0.80 0.79 0.74 0.67 0.63 0.59 0.54 0.56 0.58 0.58 0.55 0.50 0.47 0.42 0.43 0.54 0.36 0.21 0.21 0.20
0.16 0.17 0.15 0.19 0.26 0.32 0.40 0.46 0.52 0.63 0.72 0.71 0.75 0.75 0.72 0.71 0.77 0.82 0.89 0.90 0.91 0.95 0.92 0.83 0.81 0.76 0.67 0.63 0.65 0.62 0.58 0.58 0.58 0.56 0.55 0.58 0.58 0.49 0.53 0.48 0.29 0.25 0.24
0.21 0.21 0.18 0.21 0.25 0.32 0.40 0.45 0.49 0.61 0.72 0.72 0.74 0.75 0.71 0.70 0.74 0.78 0.84 0.87 0.90 0.94 0.94 0.89 0.83 0.80 0.72 0.63 0.65 0.69 0.68 0.64 0.65 0.63 0.59 0.58 0.58 0.55 0.61 0.65 0.50 0.37 0.29
0.21 0.24 0.19 0.21 0.27 0.32 0.37 0.43 0.47 0.54 0.69 0.71 0.71 0.73 0.72 0.69 0.70 0.75 0.78 0.82 0.80 0.80 0.86 0.92 0.92 0.84 0.78 0.73 0.70 0.71 0.69 0.70 0.73 0.69 0.66 0.64 0.57 0.59 0.67 0.77 0.84 0.73 0.44
0.16 0.23 0.21 0.24 0.29 0.35 0.36 0.43 0.48 0.53 0.67 0.74 0.71 0.73 0.75 0.73 0.67 0.71 0.74 0.81 0.80 0.73 0.77 0.87 0.96 0.97 0.91 0.84 0.81 0.79 0.72 0.72 0.75 0.76 0.77 0.78 0.69 0.63 0.63 0.70 0.90 1.14 0.93
0.14 0.18 0.18 0.23 0.30 0.36 0.36 0.39 0.48 0.52 0.62 0.71 0.74 0.76 0.79 0.78 0.72 0.72 0.73 0.74 0.79 0.79 0.77 0.79 0.85 0.92 0.97 0.97 0.93 0.90 0.84 0.82 0.80 0.82 0.85 0.87 0.85 0.82 0.77 0.73 0.77 0.94 1.11
0.14 0.16 0.17 0.22 0.30 0.35 0.35 0.35 0.42 0.53 0.61 0.68 0.71 0.77 0.87 0.85 0.83 0.81 0.76 0.72 0.73 0.80 0.82 0.82 0.88 0.92 0.94 0.95 1.01 1.01 0.97 0.95 0.91 0.88 0.90 0.90 0.93 1.00 1.00 0.96 0.93 0.89 0.98
0.15 0.15 0.16 0.20 0.26 0.31 0.34 0.36 0.40 0.47 0.58 0.68 0.71 0.73 0.84 0.92 0.90 0.94 0.92 0.82 0.74 0.76 0.82 0.86 0.88 0.96 1.01 1.00 1.04 1.08 1.09 1.13 1.10 1.01 0.97 0.96 0.98 1.04 1.07 1.14 1.11 1.02 0.95
0.17 0.16 0.15 0.18 0.24 0.29 0.34 0.36 0.38 0.43 0.52 0.67 0.72 0.76 0.80 0.88 0.91 0.94 1.01 1.00 0.97 0.98 0.97 1.01 1.05 1.08 1.13 1.17 1.19 1.21 1.27 1.33 1.33 1.27 1.22 1.12 1.09 1.14 1.11 1.16 1.18 1.11 1.03
0.18 0.16 0.16 0.17 0.22 0.28 0.33 0.35 0.34 0.40 0.49 0.66 0.77 0.78 0.82 0.83 0.87 0.92 0.98 1.10 1.18 1.26 1.31 1.29 1.29 1.30 1.36 1.48 1.55 1.54 1.53 1.50 1.47 1.44 1.41 1.34 1.28 1.26 1.25 1.27 1.22 1.16 1.17
0.16 0.15 0.16 0.18 0.21 0.26 0.30 0.30 0.32 0.37 0.46 0.61 0.72 0.78 0.84 0.94 1.00 1.03 1.05 1.10 1.24 1.33 1.34 1.37 1.39 1.37 1.55 1.84 1.96 1.81 1.61 1.48 1.41 1.35 1.34 1.38 1.47 1.48 1.51 1.58 1.47 1.36 1.40
0.16 0.16 0.17 0.20 0.22 0.25 0.29 0.27 0.29 0.35 0.44 0.59 0.66 0.74 0.87 0.99 1.11 1.14 1.19 1.21 1.26 1.35 1.37 1.35 1.36 1.34 1.45 1.85 1.97 1.62 1.30 1.23 1.28 1.28 1.20 1.19 1.35 1.41 1.49 1.61 1.61 1.62 1.66
0.15 0.15 0.18 0.22 0.24 0.26 0.26 0.27 0.28 0.32 0.38 0.51 0.62 0.68 0.82 0.95 1.05 1.08 1.12 1.16 1.10 1.09 1.19 1.26 1.21 1.17 1.25 1.59 1.69 1.40 1.01 0.92 1.01 1.05 1.05 1.02 1.08 1.26 1.23 1.32 1.37 1.44 1.57
0.14 0.15 0.17 0.19 0.21 0.25 0.26 0.26 0.26 0.29 0.37 0.46 0.58 0.61 0.71 0.85 0.92 0.98 1.03 1.04 0.97 0.95 1.05 1.09 1.00 0.94 0.98 1.30 1.44 1.24 0.89 0.84 0.89 0.93 0.95 0.93 0.94 1.10 1.28 1.32 1.21 1.14 1.24
0.13 0.14 0.15 0.15 0.17 0.21 0.25 0.25 0.25 0.28 0.33 0.40 0.50 0.56 0.64 0.79 0.80 0.87 0.97 0.96 0.97 0.94 0.92 0.91 0.86 0.80 0.81 1.07 1.35 1.23 0.85 0.88 0.89 0.90 0.95 0.90 0.84 1.11 1.30 1.29 1.20 1.08 1.08
0.12 0.14 0.14 0.13 0.15 0.17 0.19 0.20 0.21 0.25 0.32 0.39 0.45 0.49 0.54 0.68 0.69 0.71 0.77 0.82 0.84 0.86 0.87 0.85 0.79 0.76 0.73 0.90 1.27 1.31 0.90 0.88 0.87 0.87 0.93 1.05 1.04 1.18 1.25 1.17 1.19 1.22 1.07
0.16 0.15 0.15 0.16 0.16 0.17 0.18 0.18 0.18 0.21 0.27 0.33 0.39 0.44 0.48 0.55 0.57 0.61 0.65 0.70 0.74 0.78 0.83 0.83 0.77 0.69 0.69 0.77 1.05 1.39 1.13 0.93 0.85 0.86 0.91 0.95 1.10 1.14 1.19 1.22 1.20 1.31 1.15
0.20 0.18 0.18 0.17 0.17 0.17 0.17 0.16 0.17 0.20 0.24 0.31 0.37 0.41 0.46 0.48 0.51 0.55 0.60 0.62 0.70 0.80 0.83 0.81 0.79 0.72 0.69 0.74 0.92 1.19 1.30 1.14 0.94 0.89 0.77 0.80 0.97 1.02 1.12 1.14 1.19 1.23 1.19
0.19 0.19 0.19 0.20 0.19 0.18 0.18 0.16 0.16 0.20 0.25 0.31 0.35 0.42 0.45 0.43 0.50 0.56 0.63 0.66 0.72 0.81 0.84 0.80 0.77 0.76 0.74 0.81 1.00 1.02 1.08 1.16 1.03 0.97 0.98 0.90 0.95 0.98 0.94 0.98 1.09 1.11 1.05
0.17 0.16 0.18 0.20 0.20 0.18 0.17 0.16 0.16 0.20 0.25 0.30 0.34 0.40 0.47 0.48 0.47 0.53 0.61 0.66 0.70 0.84 0.90 0.87 0.84 0.77 0.76 0.88 1.11 1.05 0.98 1.07 1.07 1.05 1.03 0.99 0.99 0.97 0.91 0.92 0.93 0.92 0.97
0.18 0.16 0.17 0.18 0.19 0.17 0.15 0.14 0.17 0.22 0.26 0.29 0.33 0.39 0.48 0.52 0.48 0.50 0.56 0.63 0.65 0.85 1.02 0.96 0.96 0.95 0.96 1.05 1.27 1.27 1.20 1.22 1.23 1.22 1.19 1.11 1.07 1.05 0.96 0.90 0.86 0.88 0.94
0.18 0.17 0.15 0.16 0.16 0.15 0.14 0.15 0.17 0.23 0.30 0.34 0.37 0.41 0.49 0.52 0.50 0.50 0.55 0.62 0.65 0.72 0.76 0.83 0.93 0.92 1.02 1.09 1.06 1.14 1.18 1.21 1.25 1.28 1.23 1.04 0.93 0.91 0.87 0.85 0.85 0.83 0.82

GEFSMW_prec_meanprecacc_246.txt.gz
Total_Precipitation_Accumulation
0.11 0.14 0.20 0.28 0.33 0.38 0.45 0.51 0.56 0.64 0.76 0.88 0.93 0.92 0.99 0.96 0.89 0.85 0.86 0.86 0.84 0.78 0.73 0.65 0.57 0.59 0.59 0.56 0.51 0.47 0.48 0.47 0.45 0.48 0.46 0.43 0.40 0.37 0.35 0.39 0.51 0.62 0.64
0.12 0.14 0.21 0.31 0.35 0.37 0.43 0.51 0.53 0.58 0.65 0.69 0.77 0.84 0.86 0.90 0.89 0.84 0.86 0.91 0.90 0.83 0.79 0.75 0.65 0.57 0.56 0.56 0.54 0.50 0.48 0.45 0.41 0.44 0.51 0.45 0.42 0.40 0.32 0.28 0.36 0.45 0.53
0.12 0.12 0.17 0.29 0.34 0.35 0.42 0.48 0.53 0.54 0.61 0.67 0.79 0.89 0.96 0.97 0.95 0.91 0.85 0.86 0.90 0.89 0.81 0.75 0.71 0.65 0.58 0.54 0.54 0.52 0.50 0.49 0.44 0.40 0.57 0.63 0.46 0.33 0.24 0.23 0.26 0.29 0.33
0.12 0.12 0.15 0.24 0.30 0.32 0.41 0.48 0.56 0.62 0.61 0.70 0.80 0.80 0.81 0.82 0.76 0.77 0.78 0.82 0.85 0.86 0.84 0.82 0.78 0.72 0.66 0.59 0.54 0.53 0.52 0.54 0.54 0.48 0.45 0.49 0.48 0.52 0.36 0.20 0.19 0.19 0.20
0.13 0.13 0.14 0.20 0.27 0.32 0.40 0.49 0.54 0.66 0.68 0.69 0.77 0.76 0.72 0.70 0.73 0.79 0.83 0.83 0.86 0.89 0.84 0.81 0.80 0.77 0.71 0.67 0.63 0.57 0.57 0.58 0.59 0.56 0.51 0.47 0.42 0.43 0.54 0.36 0.22 0.21 0.20
0.16 0.17 0.16 0.20 0.27 0.33 0.41 0.46 0.53 0.64 0.74 0.72 0.76 0.76 0.72 0.71 0.77 0.82 0.89 0.90 0.91 0.95 0.92 0.83 0.81 0.76 0.68 0.65 0.67 0.66 0.62 0.60 0.59 0.58 0.56 0.59 0.59 0.49 0.53 0.49 0.30 0.26 0.25
0.21 0.21 0.19 0.21 0.26 0.33 0.41 0.45 0.49 0.62 0.73 0.74 0.75 0.76 0.71 0.70 0.74 0.79 0.84 0.87 0.90 0.94 0.94 0.89 0.83 0.80 0.72 0.63 0.65 0.70 0.69 0.67 0.67 0.65 0.60 0.59 0.59 0.56 0.62 0.66 0.51 0.37 0.29
0.21 0.24 0.20 0.22 0.27 0.33 0.38 0.44 0.47 0.56 0.70 0.71 0.71 0.74 0.72 0.69 0.71 0.75 0.78 0.83 0.80 0.80 0.86 0.92 0.92 0.84 0.78 0.73 0.70 0.71 0.69 0.71 0.73 0.70 0.67 0.65 0.58 0.59 0.68 0.78 0.85 0.74 0.45
0.16 0.23 0.21 0.24 0.29 0.35 0.37 0.43 0.49 0.55 0.68 0.74 0.72 0.73 0.75 0.73 0.67 0.71 0.75 0.81 0.80 0.74 0.77 0.87 0.96 0.97 0.91 0.84 0.81 0.79 0.73 0.72 0.75 0.77 0.78 0.78 0.70 0.64 0.64 0.71 0.91 1.16 0.95
0.14 0.19 0.18 0.23 0.30 0.36 0.36 0.40 0.50 0.55 0.63 0.72 0.74 0.77 0.79 0.78 0.73 0.72 0.73 0.74 0.79 0.79 0.77 0.79 0.85 0.92 0.97 0.97 0.93 0.90 0.84 0.82 0.81 0.82 0.86 0.88 0.86 0.83 0.77 0.74 0.78 0.96 1.13
0.14 0.17 0.17 0.22 0.30 0.35 0.35 0.37 0.44 0.55 0.63 0.68 0.71 0.77 0.87 0.85 0.84 0.81 0.76 0.72 0.73 0.80 0.82 0.82 0.88 0.92 0.94 0.95 1.02 1.01 0.97 0.95 0.92 0.88 0.90 0.91 0.94 1.01 1.00 0.97 0.94 0.91 0.99
0.15 0.15 0.17 0.20 0.26 0.31 0.35 0.38 0.42 0.49 0.60 0.69 0.71 0.73 0.84 0.92 0.90 0.94 0.92 0.82 0.74 0.76 0.82 0.86 0.88 0.96 1.01 1.00 1.04 1.08 1.09 1.13 1.10 1.01 0.97 0.97 0.98 1.05 1.08 1.15 1.12 1.03 0.96
0.18 0.16 0.15 0.18 0.24 0.29 0.35 0.38 0.42 0.45 0.54 0.69 0.73 0.76 0.80 0.89 0.91 0.94 1.01 1.00 0.97 0.98 0.98 1.01 1.05 1.09 1.13 1.17 1.19 1.21 1.27 1.33 1.33 1.27 1.22 1.12 1.09 1.14 1.12 1.16 1.19 1.12 1.04
0.18 0.16 0.16 0.17 0.22 0.29 0.33 0.35 0.36 0.43 0.50 0.66 0.77 0.79 0.82 0.83 0.87 0.92 0.98 1.10 1.18 1.26 1.31 1.29 1.29 1.30 1.36 1.48 1.56 1.54 1.54 1.50 1.47 1.44 1.41 1.35 1.28 1.26 1.26 1.28 1.23 1.17 1.18
0.17 0.15 0.16 0.18 0.21 0.27 0.31 0.31 0.33 0.38 0.47 0.62 0.72 0.78 0.84 0.94 1.00 1.03 1.06 1.10 1.24 1.33 1.34 1.37 1.39 1.38 1.55 1.84 1.96 1.81 1.61 1.48 1.41 1.35 1.34 1.38 1.47 1.48 1.52 1.59 1.47 1.37 1.41
0.17 0.16 0.17 0.20 0.22 0.26 0.29 0.28 0.30 0.36 0.44 0.60 0.67 0.74 0.88 0.99 1.11 1.14 1.19 1.21 1.26 1.35 1.37 1.35 1.37 1.34 1.45 1.86 1.98 1.62 1.30 1.23 1.28 1.28 1.20 1.19 1.35 1.42 1.49 1.62 1.62 1.62 1.67
0.15 0.15 0.18 0.22 0.24 0.26 0.27 0.27 0.29 0.33 0.39 0.51 0.62 0.69 0.82 0.95 1.05 1.08 1.12 1.16 1.10 1.09 1.19 1.26 1.21 1.17 1.25 1.59 1.69 1.40 1.01 0.92 1.01 1.06 1.05 1.02 1.08 1.27 1.24 1.33 1.38 1.45 1.58
0.15 0.15 0.17 0.19 0.21 0.25 0.27 0.27 0.27 0.30 0.38 0.46 0.59 0.62 0.71 0.86 0.92 0.98 1.03 1.04 0.98 0.95 1.06 1.09 1.01 0.94 0.98 1.30 1.44 1.24 0.89 0.84 0.89 0.94 0.95 0.93 0.94 1.10 1.28 1.32 1.21 1.14 1.25
0.14 0.15 0.15 0.16 0.17 0.21 0.25 0.26 0.27 0.29 0.34 0.41 0.50 0.56 0.64 0.79 0.81 0.87 0.97 0.96 0.97 0.94 0.92 0.92 0.87 0.80 0.81 1.08 1.36 1.24 0.85 0.88 0.89 0.90 0.95 0.91 0.85 1.12 1.31 1.30 1.21 1.09 1.09
0.14 0.15 0.15 0.14 0.16 0.18 0.20 0.21 0.23 0.26 0.33 0.40 0.46 0.50 0.54 0.68 0.70 0.71 0.78 0.82 0.84 0.87 0.88 0.85 0.80 0.77 0.73 0.91 1.27 1.31 0.91 0.88 0.87 0.88 0.93 1.06 1.04 1.19 1.26 1.18 1.20 1.23 1.08
0.18 0.17 0.17 0.17 0.17 0.18 0.20 0.20 0.20 0.23 0.28 0.34 0.40 0.45 0.49 0.56 0.59 0.62 0.65 0.70 0.75 0.79 0.83 0.84 0.77 0.69 0.70 0.77 1.05 1.39 1.14 0.94 0.86 0.87 0.92 0.96 1.11 1.15 1.21 1.24 1.22 1.32 1.16
0.21 0.19 0.19 0.19 0.19 0.19 0.19 0.18 0.19 0.22 0.25 0.32 0.38 0.42 0.47 0.50 0.53 0.57 0.63 0.64 0.72 0.82 0.84 0.82 0.80 0.73 0.69 0.75 0.93 1.20 1.30 1.14 0.95 0.90 0.79 0.82 0.99 1.04 1.14 1.16 1.21 1.25 1.20
0.21 0.20 0.21 0.22 0.22 0.20 0.20 0.18 0.18 0.21 0.26 0.32 0.36 0.43 0.46 0.45 0.52 0.59 0.66 0.69 0.74 0.83 0.85 0.81 0.79 0.77 0.75 0.81 1.01 1.03 1.09 1.17 1.04 0.98 1.01 0.93 0.97 1.00 0.98 1.02 1.12 1.13 1.06
0.19 0.18 0.19 0.22 0.23 0.21 0.20 0.18 0.18 0.21 0.26 0.31 0.35 0.41 0.48 0.49 0.49 0.56 0.64 0.69 0.74 0.87 0.92 0.89 0.85 0.78 0.77 0.90 1.12 1.06 0.99 1.08 1.08 1.07 1.05 1.01 1.01 1.00 0.95 0.96 0.96 0.94 0.98
0.19 0.18 0.18 0.20 0.21 0.20 0.18 0.17 0.18 0.23 0.27 0.30 0.34 0.40 0.50 0.54 0.51 0.53 0.59 0.66 0.69 0.89 1.06 0.98 0.98 0.96 0.97 1.07 1.28 1.28 1.21 1.23 1.24 1.24 1.21 1.12 1.08 1.07 0.98 0.92 0.87 0.89 0.95
0.20 0.19 0.17 0.18 0.19 0.18 0.17 0.18 0.19 0.24 0.31 0.35 0.38 0.42 0.51 0.54 0.53 0.53 0.57 0.65 0.68 0.75 0.79 0.86 0.95 0.94 1.04 1.11 1.08 1.15 1.20 1.22 1.27 1.29 1.24 1.05 0.95 0.93 0.89 0.87 0.86 0.83 0.82

GEFSMW_prec_meanprecacc_252.txt.gz
Total_Precipitation_Accumulation
0.12 0.15 0.22 0.30 0.37 0.43 0.50 0.56 0.62 0.71 0.83 0.93 0.97 0.95 1.02 0.99 0.93 0.88 0.89 0.89 0.86 0.81 0.75 0.67 0.60 0.61 0.61 0.58 0.52 0.48 0.48 0.47 0.46 0.48 0.46 0.43 0.40 0.37 0.35 0.39 0.51 0.62 0.64
0.14 0.16 0.23 0.33 0.38 0.40 0.47 0.55 0.57 0.64 0.70 0.73 0.82 0.89 0.90 0.93 0.93 0.88 0.90 0.94 0.94 0.86 0.82 0.77 0.68 0.59 0.58 0.57 0.55 0.51 0.48 0.46 0.41 0.45 0.51 0.46 0.42 0.40 0.32 0.28 0.36 0.45 0.53
0.13 0.13 0.19 0.31 0.36 0.38 0.45 0.52 0.57 0.58 0.66 0.72 0.84 0.93 1.00 1.00 0.98 0.92 0.87 0.88 0.92 0.92 0.84 0.79 0.75 0.69 0.62 0.57 0.55 0.53 0.51 0.49 0.44 0.40 0.57 0.63 0.46 0.33 0.24 0.23 0.26 0.29 0.33
0.14 0.15 0.17 0.26 0.32 0.36 0.45 0.52 0.59 0.66 0.66 0.74 0.83 0.83 0.82 0.83 0.78 0.79 0.79 0.84 0.86 0.87 0.85 0.83 0.80 0.74 0.69 0.62 0.56 0.55 0.54 0.55 0.55 0.48 0.45 0.49 0.48 0.52 0.36 0.20 0.19 0.19 0.20
0.14 0.14 0.15 0.22 0.30 0.37 0.46 0.54 0.58 0.69 0.73 0.74 0.81 0.79 0.75 0.73 0.75 0.81 0.85 0.85 0.87 0.89 0.84 0.81 0.80 0.77 0.71 0.68 0.64 0.59 0.60 0.61 0.60 0.56 0.51 0.48 0.42 0.44 0.54 0.36 0.22 0.21 0.20
0.16 0.17 0.17 0.22 0.29 0.36 0.45 0.51 0.57 0.67 0.77 0.76 0.80 0.79 0.75 0.72 0.78 0.83 0.91 0.91 0.92 0.95 0.92 0.83 0.81 0.76 0.68 0.65 0.68 0.66 0.62 0.61 0.60 0.58 0.57 0.59 0.60 0.50 0.54 0.49 0.30 0.26 0.25
0.21 0.21 0.19 0.22 0.27 0.35 0.43 0.49 0.53 0.65 0.75 0.76 0.77 0.78 0.74 0.72 0.75 0.80 0.86 0.89 0.91 0.94 0.95 0.89 0.84 0.80 0.72 0.63 0.65 0.70 0.69 0.67 0.67 0.65 0.61 0.60 0.59 0.57 0.62 0.66 0.51 0.37 0.29
0.21 0.24 0.20 0.22 0.27 0.33 0.39 0.47 0.51 0.59 0.72 0.73 0.73 0.76 0.75 0.71 0.72 0.77 0.79 0.84 0.80 0.81 0.87 0.92 0.92 0.84 0.78 0.73 0.70 0.71 0.70 0.71 0.73 0.70 0.67 0.65 0.58 0.60 0.68 0.78 0.85 0.75 0.45
0.16 0.23 0.21 0.24 0.29 0.36 0.38 0.45 0.53 0.59 0.71 0.76 0.73 0.75 0.77 0.75 0.69 0.73 0.76 0.83 0.81 0.74 0.78 0.88 0.96 0.97 0.91 0.84 0.81 0.79 0.73 0.72 0.75 0.77 0.78 0.78 0.70 0.64 0.64 0.72 0.92 1.16 0.96
0.14 0.19 0.18 0.23 0.31 0.36 0.38 0.42 0.52 0.58 0.66 0.74 0.75 0.77 0.80 0.79 0.74 0.74 0.75 0.75 0.80 0.81 0.78 0.80 0.86 0.92 0.97 0.97 0.93 0.90 0.85 0.82 0.81 0.82 0.86 0.88 0.86 0.83 0.78 0.75 0.78 0.96 1.14
0.14 0.17 0.17 0.22 0.30 0.35 0.36 0.40 0.46 0.57 0.66 0.70 0.72 0.78 0.88 0.86 0.85 0.82 0.77 0.73 0.74 0.82 0.84 0.83 0.88 0.92 0.94 0.96 1.02 1.01 0.97 0.95 0.92 0.89 0.90 0.91 0.94 1.01 1.01 0.97 0.94 0.91 1.00
0.15 0.16 0.17 0.20 0.26 0.31 0.35 0.40 0.45 0.50 0.62 0.70 0.72 0.74 0.85 0.93 0.91 0.95 0.94 0.83 0.76 0.77 0.84 0.87 0.89 0.97 1.01 1.00 1.04 1.08 1.09 1.14 1.10 1.01 0.97 0.97 0.99 1.05 1.08 1.15 1.12 1.03 0.96
0.18 0.17 0.16 0.18 0.24 0.29 0.35 0.38 0.44 0.47 0.55 0.69 0.73 0.76 0.80 0.89 0.92 0.94 1.02 1.01 0.98 1.00 0.99 1.03 1.06 1.10 1.14 1.17 1.19 1.22 1.27 1.33 1.33 1.27 1.22 1.12 1.09 1.14 1.12 1.17 1.19 1.12 1.04
0.19 0.17 0.16 0.17 0.22 0.29 0.33 0.35 0.37 0.44 0.52 0.67 0.78 0.79 0.82 0.84 0.87 0.93 0.98 1.11 1.19 1.27 1.32 1.30 1.30 1.31 1.36 1.48 1.56 1.55 1.54 1.51 1.47 1.44 1.41 1.35 1.28 1.26 1.26 1.28 1.23 1.18 1.19
0.17 0.16 0.17 0.18 0.21 0.27 0.31 0.31 0.33 0.39 0.48 0.63 0.73 0.78 0.84 0.94 1.01 1.04 1.06 1.11 1.24 1.33 1.35 1.38 1.40 1.38 1.55 1.85 1.96 1.81 1.61 1.48 1.41 1.35 1.34 1.38 1.47 1.48 1.52 1.59 1.48 1.38 1.42
0.17 0.16 0.17 0.20 0.23 0.26 0.29 0.28 0.30 0.36 0.45 0.60 0.67 0.74 0.88 0.99 1.12 1.15 1.20 1.21 1.27 1.36 1.37 1.35 1.37 1.35 1.45 1.86 1.98 1.62 1.30 1.23 1.28 1.28 1.20 1.19 1.35 1.42 1.49 1.62 1.62 1.63 1.67
0.16 0.16 0.18 0.22 0.24 0.26 0.27 0.27 0.29 0.33 0.39 0.52 0.63 0.69 0.83 0.95 1.05 1.09 1.13 1.16 1.11 1.09 1.19 1.26 1.22 1.18 1.26 1.60 1.70 1.40 1.01 0.92 1.01 1.06 1.05 1.02 1.08 1.27 1.24 1.33 1.38 1.45 1.58
0.15 0.16 0.17 0.19 0.21 0.25 0.27 0.27 0.27 0.30 0.38 0.46 0.59 0.62 0.72 0.86 0.92 0.99 1.03 1.05 0.98 0.96 1.06 1.09 1.01 0.94 0.99 1.31 1.44 1.24 0.89 0.84 0.89 0.94 0.95 0.93 0.95 1.10 1.28 1.33 1.22 1.14 1.25
0.15 0.15 0.16 0.16 0.17 0.22 0.25 0.26 0.27 0.29 0.34 0.41 0.51 0.56 0.64 0.80 0.81 0.87 0.98 0.97 0.98 0.96 0.94 0.93 0.88 0.81 0.82 1.08 1.36 1.24 0.85 0.88 0.89 0.90 0.96 0.91 0.85 1.12 1.32 1.30 1.21 1.09 1.09
0.15 0.16 0.15 0.14 0.16 0.18 0.20 0.22 0.23 0.26 0.33 0.40 0.47 0.50 0.55 0.69 0.70 0.72 0.79 0.83 0.86 0.88 0.89 0.87 0.81 0.78 0.75 0.92 1.29 1.32 0.92 0.89 0.87 0.88 0.94 1.06 1.05 1.19 1.26 1.18 1.21 1.23 1.08
0.19 0.17 0.17 0.17 0.17 0.18 0.20 0.20 0.20 0.23 0.28 0.35 0.40 0.45 0.50 0.57 0.59 0.63 0.66 0.71 0.76 0.80 0.85 0.85 0.78 0.71 0.71 0.79 1.07 1.41 1.15 0.95 0.87 0.87 0.92 0.96 1.11 1.15 1.21 1.24 1.22 1.32 1.17
0.23 0.21 0.20 0.19 0.19 0.19 0.19 0.18 0.19 0.22 0.25 0.32 0.38 0.42 0.47 0.50 0.53 0.58 0.63 0.65 0.73 0.83 0.86 0.83 0.81 0.74 0.70 0.76 0.94 1.21 1.32 1.16 0.96 0.90 0.80 0.83 1.00 1.05 1.15 1.17 1.22 1.26 1.21
0.23 0.22 0.22 0.23 0.22 0.21 0.20 0.18 0.18 0.21 0.26 0.32 0.37 0.43 0.47 0.45 0.53 0.59 0.66 0.69 0.75 0.84 0.86 0.82 0.80 0.78 0.77 0.83 1.02 1.04 1.09 1.18 1.05 0.99 1.01 0.93 0.98 1.01 0.98 1.03 1.13 1.13 1.07
0.22 0.20 0.21 0.24 0.24 0.22 0.21 0.19 0.18 0.22 0.26 0.32 0.35 0.41 0.49 0.49 0.50 0.56 0.65 0.70 0.74 0.88 0.94 0.90 0.87 0.80 0.78 0.90 1.12 1.07 1.00 1.09 1.09 1.07 1.05 1.02 1.02 1.01 0.96 0.96 0.96 0.94 0.99
0.23 0.20 0.20 0.22 0.23 0.22 0.19 0.17 0.19 0.24 0.28 0.31 0.34 0.40 0.50 0.54 0.51 0.54 0.60 0.67 0.70 0.91 1.08 1.01 1.01 0.98 0.99 1.08 1.29 1.29 1.22 1.24 1.25 1.24 1.22 1.14 1.10 1.08 0.99 0.92 0.88 0.90 0.96
0.23 0.22 0.20 0.20 0.20 0.19 0.18 0.19 0.20 0.25 0.32 0.36 0.39 0.43 0.51 0.54 0.53 0.54 0.58 0.67 0.70 0.77 0.81 0.89 0.98 0.96 1.06 1.12 1.09 1.16 1.21 1.24 1.28 1.31 1.26 1.07 0.97 0.95 0.90 0.88 0.87 0.85 0.84

GEFSMW_prec_meanprecacc_258.txt.gz
Total_Precipitation_Accumulation
0.13 0.17 0.25 0.35 0.41 0.47 0.54 0.60 0.68 0.78 0.90 1.01 1.05 1.02 1.10 1.10 1.02 0.97 0.98 0.97 0.94 0.87 0.79 0.71 0.64 0.65 0.63 0.59 0.53 0.49 0.49 0.47 0.46 0.48 0.46 0.43 0.40 0.37 0.35 0.39 0.51 0.62 0.64
0.16 0.18 0.26 0.37 0.41 0.43 0.51 0.58 0.61 0.69 0.75 0.79 0.89 0.94 0.95 0.99 1.01 0.97 0.97 1.01 1.00 0.91 0.86 0.81 0.73 0.64 0.62 0.61 0.59 0.54 0.50 0.47 0.41 0.45 0.51 0.46 0.42 0.40 0.32 0.28 0.36 0.45 0.53
0.16 0.16 0.22 0.34 0.39 0.42 0.49 0.56 0.61 0.63 0.71 0.79 0.92 1.00 1.06 1.07 1.04 0.99 0.93 0.93 0.97 0.96 0.88 0.82 0.79 0.75 0.69 0.63 0.60 0.58 0.56 0.54 0.47 0.42 0.57 0.63 0.46 0.33 0.24 0.23 0.26 0.29 0.33
0.16 0.17 0.20 0.29 0.36 0.39 0.49 0.57 0.65 0.72 0.73 0.81 0.91 0.89 0.88 0.87 0.81 0.83 0.83 0.87 0.90 0.92 0.90 0.86 0.83 0.77 0.72 0.65 0.60 0.60 0.60 0.62 0.61 0.53 0.49 0.51 0.49 0.52 0.37 0.20 0.19 0.19 0.20
0.14 0.15 0.17 0.25 0.33 0.40 0.50 0.58 0.62 0.74 0.79 0.80 0.88 0.87 0.81 0.78 0.80 0.85 0.89 0.88 0.89 0.92 0.87 0.84 0.82 0.79 0.73 0.68 0.65 0.61 0.63 0.66 0.66 0.62 0.55 0.51 0.44 0.44 0.55 0.36 0.22 0.21 0.20
0.16 0.17 0.17 0.23 0.31 0.38 0.48 0.54 0.61 0.71 0.81 0.81 0.86 0.85 0.81 0.78 0.83 0.87 0.94 0.94 0.94 0.97 0.94 0.85 0.83 0.77 0.69 0.66 0.69 0.67 0.63 0.63 0.64 0.62 0.60 0.63 0.62 0.52 0.55 0.50 0.30 0.26 0.25
0.22 0.22 0.19 0.22 0.27 0.36 0.45 0.52 0.56 0.69 0.78 0.79 0.81 0.83 0.80 0.77 0.80 0.84 0.89 0.92 0.94 0.97 0.98 0.92 0.86 0.81 0.73 0.64 0.66 0.71 0.71 0.68 0.69 0.68 0.64 0.62 0.61 0.58 0.63 0.67 0.52 0.38 0.29
0.22 0.24 0.20 0.22 0.27 0.34 0.40 0.49 0.54 0.63 0.76 0.76 0.76 0.79 0.79 0.77 0.77 0.81 0.83 0.87 0.83 0.84 0.90 0.96 0.96 0.87 0.80 0.75 0.71 0.72 0.71 0.72 0.74 0.71 0.69 0.67 0.60 0.61 0.69 0.79 0.86 0.76 0.46
0.16 0.24 0.22 0.25 0.29 0.36 0.39 0.46 0.55 0.63 0.76 0.81 0.77 0.78 0.80 0.79 0.73 0.77 0.80 0.87 0.85 0.77 0.80 0.90 0.98 1.00 0.93 0.86 0.82 0.80 0.74 0.73 0.77 0.78 0.79 0.79 0.71 0.65 0.65 0.72 0.92 1.17 0.96
0.15 0.19 0.19 0.24 0.31 0.36 0.38 0.42 0.54 0.61 0.70 0.80 0.81 0.83 0.84 0.83 0.78 0.78 0.78 0.78 0.83 0.85 0.81 0.82 0.87 0.94 0.98 0.98 0.93 0.91 0.85 0.83 0.82 0.84 0.87 0.89 0.86 0.83 0.78 0.75 0.79 0.97 1.14
0.15 0.18 0.18 0.23 0.30 0.35 0.36 0.40 0.47 0.59 0.69 0.75 0.78 0.83 0.92 0.90 0.88 0.86 0.80 0.76 0.77 0.84 0.87 0.87 0.91 0.94 0.95 0.97 1.02 1.02 0.98 0.96 0.93 0.90 0.92 0.92 0.95 1.02 1.01 0.97 0.94 0.91 1.00
0.16 0.16 0.17 0.21 0.27 0.32 0.35 0.41 0.46 0.51 0.63 0.74 0.77 0.79 0.90 0.97 0.94 0.99 0.96 0.86 0.78 0.80 0.86 0.91 0.93 1.01 1.04 1.02 1.06 1.10 1.10 1.14 1.11 1.02 0.99 0.98 0.99 1.05 1.08 1.15 1.13 1.03 0.97
0.19 0.17 0.17 0.19 0.25 0.29 0.35 0.39 0.44 0.47 0.56 0.71 0.76 0.80 0.85 0.94 0.95 0.98 1.04 1.03 1.00 1.02 1.01 1.05 1.09 1.13 1.18 1.21 1.23 1.25 1.30 1.35 1.34 1.28 1.23 1.13 1.10 1.15 1.13 1.17 1.19 1.13 1.05
0.19 0.17 0.17 0.18 0.23 0.29 0.34 0.36 0.38 0.45 0.53 0.68 0.80 0.82 0.85 0.87 0.91 0.96 1.00 1.12 1.20 1.28 1.34 1.32 1.32 1.33 1.39 1.52 1.60 1.59 1.58 1.55 1.50 1.46 1.43 1.36 1.28 1.27 1.26 1.28 1.23 1.18 1.19
0.17 0.16 0.17 0.19 0.22 0.27 0.31 0.32 0.34 0.40 0.50 0.64 0.74 0.81 0.87 0.96 1.03 1.05 1.08 1.12 1.25 1.34 1.36 1.40 1.42 1.40 1.57 1.88 2.00 1.85 1.64 1.51 1.44 1.39 1.37 1.41 1.49 1.49 1.52 1.59 1.48 1.38 1.42
0.18 0.17 0.18 0.20 0.23 0.26 0.30 0.29 0.30 0.37 0.46 0.62 0.69 0.76 0.90 1.01 1.13 1.16 1.21 1.22 1.28 1.37 1.38 1.36 1.38 1.36 1.47 1.88 2.00 1.64 1.32 1.25 1.30 1.30 1.22 1.21 1.37 1.43 1.50 1.62 1.62 1.63 1.68
0.18 0.17 0.19 0.23 0.25 0.26 0.27 0.28 0.30 0.34 0.40 0.53 0.64 0.71 0.85 0.97 1.06 1.09 1.13 1.17 1.12 1.11 1.20 1.27 1.22 1.19 1.27 1.62 1.72 1.42 1.02 0.93 1.02 1.07 1.06 1.04 1.10 1.28 1.25 1.33 1.38 1.46 1.59
0.17 0.17 0.18 0.19 0.22 0.25 0.27 0.27 0.28 0.32 0.39 0.47 0.60 0.64 0.74 0.87 0.93 0.99 1.04 1.05 0.99 0.97 1.08 1.11 1.03 0.95 1.00 1.32 1.47 1.27 0.91 0.85 0.91 0.95 0.96 0.94 0.95 1.11 1.29 1.33 1.22 1.14 1.25
0.16 0.17 0.17 0.16 0.17 0.22 0.25 0.26 0.27 0.30 0.35 0.41 0.51 0.58 0.66 0.81 0.82 0.88 0.98 0.98 0.99 0.96 0.94 0.94 0.89 0.82 0.83 1.10 1.39 1.27 0.88 0.90 0.91 0.91 0.97 0.92 0.86 1.13 1.32 1.31 1.21 1.09 1.09
0.16 0.17 0.17 0.15 0.16 0.18 0.20 0.22 0.23 0.26 0.33 0.40 0.47 0.51 0.57 0.70 0.71 0.72 0.79 0.84 0.86 0.89 0.90 0.87 0.82 0.80 0.76 0.94 1.31 1.35 0.94 0.92 0.89 0.89 0.95 1.07 1.05 1.20 1.27 1.19 1.21 1.23 1.08
0.21 0.19 0.18 0.18 0.18 0.19 0.20 0.21 0.21 0.23 0.29 0.35 0.40 0.46 0.51 0.57 0.60 0.64 0.67 0.72 0.76 0.81 0.85 0.85 0.79 0.72 0.73 0.81 1.09 1.43 1.17 0.97 0.89 0.90 0.95 0.98 1.13 1.17 1.23 1.25 1.23 1.33 1.17
0.25 0.22 0.22 0.21 0.20 0.20 0.20 0.18 0.20 0.23 0.26 0.32 0.38 0.43 0.48 0.50 0.54 0.58 0.64 0.66 0.74 0.83 0.86 0.84 0.82 0.75 0.71 0.77 0.96 1.23 1.33 1.17 0.97 0.92 0.82 0.85 1.02 1.06 1.16 1.18 1.23 1.27 1.22
0.25 0.24 0.24 0.25 0.23 0.22 0.21 0.19 0.19 0.22 0.27 0.33 0.37 0.43 0.47 0.45 0.53 0.60 0.67 0.70 0.76 0.85 0.87 0.83 0.81 0.79 0.77 0.84 1.03 1.05 1.10 1.19 1.06 1.00 1.02 0.94 0.99 1.02 1.00 1.04 1.14 1.15 1.08
0.23 0.21 0.23 0.25 0.26 0.24 0.22 0.20 0.19 0.23 0.27 0.32 0.36 0.42 0.49 0.50 0.50 0.57 0.65 0.70 0.75 0.89 0.94 0.91 0.88 0.80 0.79 0.91 1.13 1.08 1.01 1.10 1.10 1.08 1.06 1.03 1.03 1.02 0.97 0.98 0.98 0.95 0.99
0.24 0.22 0.22 0.23 0.24 0.23 0.21 0.19 0.20 0.25 0.29 0.32 0.35 0.41 0.51 0.55 0.52 0.54 0.60 0.67 0.70 0.91 1.08 1.01 1.01 0.99 1.00 1.09 1.30 1.31 1.24 1.25 1.26 1.26 1.23 1.15 1.11 1.09 1.01 0.94 0.89 0.90 0.96
0.24 0.23 0.21 0.22 0.22 0.20 0.19 0.20 0.21 0.26 0.33 0.37 0.40 0.44 0.52 0.55 0.54 0.54 0.58 0.67 0.70 0.77 0.82 0.90 0.99 0.97 1.08 1.14 1.11 1.18 1.23 1.25 1.30 1.33 1.28 1.09 0.98 0.96 0.91 0.89 0.88 0.85 0.84

GEFSMW_prec_meanprecacc_264.txt.gz
Total_Precipitation_Accumulation
0.17 0.21 0.31 0.41 0.47 0.52 0.59 0.65 0.73 0.83 0.97 1.09 1.14 1.12 1.18 1.17 1.08 1.03 1.05 1.07 1.07 0.99 0.88 0.79 0.71 0.70 0.66 0.61 0.55 0.51 0.51 0.50 0.48 0.50 0.47 0.44 0.41 0.37 0.35 0.39 0.51 0.62 0.64
0.20 0.22 0.31 0.44 0.48 0.48 0.56 0.63 0.66 0.74 0.80 0.84 0.94 1.02 1.02 1.05 1.06 1.02 1.02 1.07 1.08 1.01 0.96 0.89 0.80 0.71 0.68 0.64 0.61 0.55 0.52 0.48 0.43 0.47 0.52 0.47 0.43 0.40 0.33 0.29 0.36 0.45 0.53
0.18 0.19 0.25 0.40 0.47 0.48 0.53 0.60 0.66 0.68 0.77 0.84 0.98 1.06 1.14 1.14 1.08 1.02 0.97 0.99 1.03 1.02 0.95 0.89 0.87 0.82 0.75 0.68 0.65 0.61 0.58 0.55 0.48 0.43 0.59 0.64 0.47 0.34 0.25 0.23 0.27 0.29 0.33
0.18 0.19 0.22 0.32 0.42 0.45 0.55 0.62 0.71 0.78 0.79 0.87 0.97 0.96 0.94 0.93 0.85 0.87 0.88 0.93 0.96 0.97 0.95 0.92 0.89 0.83 0.78 0.70 0.63 0.62 0.62 0.64 0.63 0.54 0.50 0.53 0.50 0.53 0.37 0.20 0.19 0.19 0.20
0.16 0.16 0.19 0.27 0.38 0.46 0.56 0.66 0.68 0.81 0.87 0.87 0.95 0.96 0.90 0.85 0.86 0.91 0.96 0.96 0.95 0.96 0.91 0.88 0.86 0.84 0.79 0.75 0.70 0.64 0.65 0.67 0.68 0.64 0.58 0.53 0.46 0.46 0.56 0.37 0.22 0.22 0.20
0.18 0.19 0.19 0.25 0.34 0.42 0.52 0.59 0.67 0.76 0.88 0.89 0.93 0.93 0.89 0.85 0.88 0.92 0.99 1.00 0.99 1.01 0.97 0.87 0.86 0.80 0.73 0.72 0.74 0.71 0.66 0.65 0.65 0.65 0.63 0.65 0.65 0.54 0.56 0.51 0.31 0.26 0.25
0.24 0.23 0.21 0.24 0.30 0.38 0.47 0.55 0.61 0.74 0.83 0.85 0.87 0.88 0.86 0.84 0.85 0.89 0.94 0.97 0.98 1.01 1.01 0.94 0.88 0.83 0.76 0.67 0.70 0.74 0.73 0.70 0.71 0.70 0.66 0.65 0.64 0.61 0.65 0.69 0.53 0.39 0.30
0.25 0.26 0.22 0.25 0.29 0.36 0.42 0.52 0.57 0.67 0.79 0.79 0.80 0.84 0.84 0.82 0.82 0.85 0.88 0.92 0.88 0.89 0.95 1.00 0.99 0.89 0.82 0.76 0.72 0.73 0.72 0.74 0.76 0.73 0.70 0.69 0.62 0.63 0.72 0.82 0.88 0.77 0.47
0.18 0.26 0.23 0.27 0.31 0.38 0.40 0.48 0.57 0.65 0.78 0.82 0.80 0.82 0.84 0.84 0.80 0.83 0.86 0.92 0.90 0.83 0.87 0.95 1.03 1.03 0.97 0.89 0.84 0.81 0.75 0.75 0.78 0.80 0.81 0.82 0.73 0.67 0.67 0.75 0.95 1.20 0.98
0.16 0.21 0.21 0.26 0.33 0.38 0.40 0.44 0.55 0.63 0.72 0.81 0.82 0.85 0.89 0.89 0.85 0.84 0.83 0.83 0.88 0.90 0.86 0.86 0.91 0.97 1.01 1.00 0.96 0.93 0.87 0.85 0.84 0.86 0.89 0.92 0.90 0.86 0.81 0.77 0.81 0.99 1.17
0.16 0.19 0.20 0.25 0.32 0.38 0.38 0.41 0.48 0.60 0.70 0.76 0.79 0.84 0.95 0.94 0.93 0.92 0.87 0.82 0.81 0.88 0.91 0.90 0.94 0.97 0.98 0.98 1.04 1.04 1.00 0.98 0.95 0.91 0.94 0.95 0.98 1.05 1.04 1.00 0.97 0.94 1.03
0.17 0.17 0.19 0.24 0.29 0.34 0.37 0.42 0.47 0.52 0.64 0.75 0.78 0.81 0.92 0.99 0.97 1.03 1.01 0.91 0.83 0.84 0.90 0.93 0.95 1.02 1.06 1.04 1.08 1.11 1.12 1.16 1.13 1.03 1.00 1.00 1.02 1.09 1.12 1.18 1.16 1.06 0.99
0.20 0.18 0.18 0.22 0.27 0.31 0.36 0.39 0.45 0.48 0.57 0.72 0.78 0.82 0.87 0.96 0.97 1.01 1.09 1.07 1.04 1.06 1.05 1.07 1.11 1.15 1.20 1.23 1.24 1.27 1.32 1.36 1.36 1.30 1.25 1.15 1.13 1.18 1.16 1.20 1.22 1.15 1.07
0.20 0.18 0.18 0.21 0.26 0.30 0.34 0.36 0.39 0.46 0.54 0.69 0.81 0.83 0.87 0.90 0.94 0.99 1.04 1.16 1.23 1.31 1.37 1.35 1.34 1.35 1.41 1.54 1.62 1.61 1.60 1.57 1.53 1.49 1.46 1.39 1.31 1.30 1.29 1.31 1.26 1.21 1.21
0.19 0.18 0.19 0.22 0.25 0.29 0.32 0.32 0.34 0.40 0.50 0.65 0.75 0.82 0.88 0.99 1.06 1.08 1.10 1.14 1.27 1.36 1.38 1.42 1.44 1.42 1.59 1.89 2.02 1.87 1.66 1.53 1.47 1.42 1.41 1.45 1.53 1.53 1.56 1.63 1.51 1.41 1.45
0.20 0.19 0.20 0.24 0.25 0.27 0.31 0.29 0.31 0.38 0.47 0.62 0.69 0.77 0.91 1.03 1.16 1.18 1.23 1.24 1.29 1.38 1.40 1.38 1.41 1.39 1.49 1.90 2.02 1.66 1.33 1.27 1.32 1.33 1.25 1.25 1.42 1.48 1.55 1.67 1.66 1.67 1.71
0.20 0.20 0.22 0.26 0.27 0.28 0.28 0.29 0.31 0.36 0.41 0.54 0.65 0.71 0.85 0.98 1.08 1.12 1.15 1.18 1.12 1.11 1.21 1.29 1.24 1.21 1.28 1.63 1.73 1.44 1.04 0.95 1.04 1.09 1.08 1.06 1.13 1.32 1.29 1.38 1.43 1.49 1.62
0.20 0.20 0.21 0.22 0.24 0.27 0.28 0.28 0.29 0.33 0.41 0.48 0.61 0.64 0.74 0.88 0.94 1.01 1.06 1.06 0.99 0.98 1.08 1.12 1.04 0.98 1.02 1.35 1.49 1.28 0.92 0.87 0.92 0.97 0.98 0.96 0.98 1.14 1.33 1.37 1.25 1.17 1.27
0.19 0.20 0.19 0.19 0.20 0.23 0.27 0.27 0.29 0.31 0.36 0.44 0.53 0.59 0.67 0.82 0.83 0.89 0.99 0.98 0.99 0.96 0.95 0.94 0.90 0.84 0.86 1.13 1.41 1.29 0.89 0.91 0.92 0.93 0.98 0.94 0.88 1.15 1.35 1.34 1.25 1.12 1.11
0.18 0.20 0.19 0.17 0.19 0.21 0.22 0.23 0.25 0.28 0.35 0.42 0.49 0.53 0.59 0.71 0.72 0.73 0.80 0.85 0.87 0.89 0.90 0.88 0.83 0.80 0.77 0.96 1.33 1.37 0.96 0.93 0.92 0.92 0.97 1.09 1.08 1.22 1.30 1.22 1.24 1.26 1.10
0.23 0.21 0.21 0.20 0.21 0.21 0.22 0.22 0.23 0.25 0.30 0.36 0.42 0.48 0.53 0.60 0.62 0.65 0.68 0.73 0.77 0.82 0.86 0.86 0.80 0.72 0.73 0.81 1.10 1.45 1.19 0.99 0.91 0.92 0.97 1.01 1.16 1.20 1.26 1.28 1.25 1.35 1.19
0.27 0.24 0.24 0.23 0.22 0.23 0.22 0.20 0.22 0.24 0.27 0.33 0.39 0.45 0.50 0.52 0.55 0.59 0.65 0.67 0.76 0.86 0.88 0.85 0.83 0.76 0.72 0.78 0.96 1.24 1.35 1.19 0.99 0.94 0.84 0.86 1.04 1.08 1.19 1.21 1.26 1.30 1.24
0.27 0.25 0.26 0.27 0.26 0.25 0.24 0.21 0.21 0.23 0.28 0.34 0.38 0.45 0.48 0.47 0.54 0.61 0.68 0.71 0.78 0.87 0.90 0.86 0.82 0.80 0.79 0.85 1.04 1.06 1.12 1.20 1.07 1.01 1.04 0.96 1.01 1.03 1.01 1.05 1.16 1.16 1.10
0.24 0.22 0.25 0.28 0.28 0.27 0.25 0.23 0.21 0.25 0.29 0.34 0.38 0.44 0.51 0.51 0.51 0.58 0.67 0.71 0.75 0.89 0.95 0.92 0.89 0.82 0.80 0.92 1.14 1.09 1.02 1.11 1.11 1.09 1.08 1.04 1.04 1.03 0.98 0.98 0.99 0.96 1.01
0.25 0.23 0.23 0.25 0.27 0.26 0.23 0.22 0.23 0.28 0.31 0.34 0.38 0.44 0.53 0.56 0.53 0.55 0.61 0.68 0.71 0.92 1.09 1.02 1.02 1.00 1.00 1.09 1.31 1.31 1.24 1.26 1.27 1.27 1.25 1.16 1.12 1.10 1.02 0.95 0.90 0.92 0.97
0.26 0.24 0.22 0.23 0.24 0.22 0.22 0.23 0.25 0.30 0.36 0.40 0.43 0.46 0.54 0.57 0.55 0.55 0.60 0.68 0.71 0.78 0.83 0.90 1.00 0.97 1.08 1.14 1.11 1.19 1.24 1.26 1.31 1.35 1.30 1.11 1.00 0.98 0.93 0.91 0.90 0.87 0.86

GEFSMW_prec_meanprecacc_270.txt.gz
Total_Precipitation_Accumulation
0.20 0.27 0.36 0.47 0.53 0.59 0.65 0.72 0.81 0.90 1.07 1.21 1.27 1.26 1.35 1.30 1.18 1.09 1.09 1.10 1.09 1.01 0.90 0.81 0.74 0.73 0.69 0.64 0.57 0.53 0.55 0.55 0.52 0.54 0.51 0.47 0.43 0.39 0.35 0.39 0.51 0.63 0.65
0.24 0.27 0.38 0.51 0.53 0.54 0.61 0.69 0.74 0.81 0.87 0.93 1.06 1.13 1.15 1.20 1.18 1.11 1.08 1.11 1.11 1.04 0.98 0.91 0.82 0.73 0.70 0.66 0.63 0.57 0.54 0.51 0.46 0.50 0.56 0.50 0.45 0.42 0.34 0.29 0.36 0.46 0.54
0.22 0.24 0.32 0.48 0.53 0.53 0.59 0.65 0.72 0.75 0.84 0.92 1.06 1.16 1.25 1.27 1.23 1.13 1.04 1.04 1.08 1.07 0.99 0.93 0.90 0.85 0.77 0.71 0.68 0.64 0.60 0.57 0.50 0.45 0.61 0.66 0.49 0.35 0.26 0.24 0.27 0.29 0.33
0.21 0.24 0.28 0.40 0.50 0.51 0.60 0.69 0.77 0.85 0.86 0.94 1.03 1.03 1.00 1.02 0.96 0.99 0.98 1.00 1.02 1.02 1.00 0.97 0.95 0.89 0.83 0.73 0.66 0.66 0.66 0.67 0.66 0.57 0.52 0.54 0.51 0.54 0.38 0.21 0.20 0.19 0.20
0.20 0.20 0.24 0.33 0.46 0.53 0.62 0.74 0.76 0.88 0.94 0.95 1.00 1.00 0.95 0.90 0.93 1.00 1.06 1.06 1.05 1.04 0.96 0.92 0.91 0.88 0.83 0.79 0.74 0.68 0.69 0.71 0.71 0.67 0.60 0.55 0.47 0.47 0.57 0.38 0.23 0.23 0.21
0.23 0.23 0.24 0.30 0.41 0.49 0.59 0.67 0.77 0.83 0.96 0.97 0.99 0.98 0.93 0.88 0.92 0.96 1.06 1.09 1.09 1.10 1.04 0.92 0.89 0.84 0.77 0.76 0.79 0.77 0.72 0.70 0.69 0.68 0.66 0.67 0.67 0.55 0.58 0.52 0.31 0.27 0.26
0.29 0.28 0.25 0.28 0.35 0.45 0.55 0.62 0.69 0.83 0.90 0.91 0.93 0.94 0.92 0.87 0.88 0.91 0.97 1.01 1.03 1.07 1.06 0.99 0.91 0.87 0.79 0.71 0.74 0.80 0.79 0.75 0.76 0.75 0.71 0.68 0.66 0.62 0.66 0.70 0.54 0.40 0.31
0.29 0.30 0.26 0.28 0.33 0.41 0.50 0.60 0.66 0.78 0.87 0.87 0.87 0.90 0.90 0.87 0.85 0.88 0.90 0.95 0.90 0.92 0.99 1.06 1.05 0.94 0.86 0.81 0.77 0.78 0.78 0.79 0.81 0.77 0.75 0.74 0.66 0.66 0.74 0.83 0.90 0.79 0.49
0.23 0.30 0.27 0.31 0.35 0.43 0.48 0.57 0.67 0.77 0.87 0.91 0.87 0.88 0.89 0.89 0.83 0.85 0.88 0.94 0.92 0.85 0.89 0.99 1.08 1.09 1.02 0.94 0.89 0.86 0.80 0.80 0.82 0.84 0.85 0.86 0.77 0.71 0.69 0.77 0.96 1.21 1.00
0.20 0.26 0.25 0.31 0.38 0.43 0.47 0.53 0.64 0.73 0.82 0.88 0.89 0.91 0.94 0.93 0.89 0.87 0.86 0.85 0.90 0.92 0.88 0.88 0.94 1.00 1.05 1.04 1.00 0.96 0.91 0.88 0.87 0.89 0.93 0.96 0.94 0.91 0.84 0.80 0.82 1.00 1.18
0.20 0.23 0.24 0.30 0.37 0.43 0.44 0.48 0.56 0.68 0.78 0.82 0.84 0.88 0.98 0.97 0.97 0.96 0.90 0.84 0.83 0.91 0.94 0.93 0.97 1.00 1.01 1.02 1.07 1.06 1.02 1.01 0.97 0.94 0.97 0.97 1.01 1.09 1.08 1.04 0.98 0.95 1.04
0.20 0.20 0.22 0.29 0.34 0.38 0.42 0.47 0.53 0.57 0.70 0.80 0.82 0.84 0.95 1.01 0.99 1.05 1.04 0.93 0.85 0.86 0.92 0.96 0.99 1.06 1.09 1.08 1.11 1.14 1.13 1.18 1.15 1.05 1.03 1.02 1.05 1.12 1.15 1.22 1.18 1.07 0.99
0.23 0.20 0.21 0.26 0.32 0.37 0.41 0.44 0.50 0.53 0.61 0.77 0.82 0.85 0.90 0.99 1.00 1.03 1.11 1.09 1.06 1.08 1.06 1.09 1.13 1.17 1.21 1.25 1.27 1.28 1.32 1.37 1.37 1.31 1.27 1.17 1.15 1.20 1.19 1.23 1.25 1.17 1.08
0.22 0.20 0.21 0.24 0.30 0.36 0.40 0.41 0.43 0.52 0.59 0.73 0.85 0.87 0.90 0.93 0.97 1.02 1.07 1.18 1.25 1.33 1.39 1.37 1.36 1.37 1.43 1.55 1.63 1.62 1.61 1.58 1.54 1.50 1.47 1.41 1.34 1.32 1.31 1.34 1.29 1.23 1.23
0.21 0.20 0.21 0.25 0.29 0.33 0.36 0.36 0.38 0.45 0.55 0.69 0.79 0.87 0.92 1.03 1.10 1.12 1.14 1.18 1.31 1.40 1.41 1.46 1.48 1.45 1.62 1.91 2.04 1.89 1.67 1.54 1.48 1.43 1.42 1.46 1.56 1.56 1.59 1.66 1.54 1.45 1.48
0.23 0.22 0.23 0.27 0.30 0.32 0.34 0.32 0.34 0.41 0.50 0.65 0.72 0.80 0.95 1.06 1.20 1.22 1.26 1.27 1.32 1.41 1.43 1.42 1.45 1.43 1.52 1.93 2.05 1.69 1.35 1.28 1.33 1.33 1.26 1.26 1.43 1.50 1.59 1.71 1.70 1.70 1.75
0.24 0.23 0.25 0.29 0.33 0.32 0.32 0.32 0.34 0.38 0.44 0.56 0.67 0.74 0.88 1.00 1.10 1.14 1.17 1.20 1.14 1.13 1.23 1.31 1.28 1.25 1.33 1.67 1.77 1.47 1.06 0.97 1.06 1.11 1.10 1.08 1.15 1.34 1.32 1.43 1.48 1.54 1.66
0.24 0.24 0.25 0.27 0.30 0.32 0.32 0.32 0.32 0.36 0.43 0.51 0.63 0.67 0.77 0.91 0.96 1.03 1.07 1.08 1.01 0.99 1.10 1.14 1.07 1.00 1.05 1.39 1.52 1.31 0.95 0.90 0.95 1.00 1.01 0.99 1.00 1.16 1.35 1.41 1.31 1.23 1.32
0.23 0.24 0.24 0.25 0.25 0.29 0.31 0.32 0.32 0.34 0.39 0.46 0.56 0.60 0.68 0.84 0.85 0.92 1.01 1.00 1.00 0.98 0.96 0.96 0.92 0.85 0.88 1.16 1.44 1.32 0.91 0.94 0.95 0.96 1.01 0.96 0.90 1.18 1.38 1.37 1.29 1.17 1.15
0.22 0.24 0.25 0.22 0.23 0.26 0.26 0.26 0.27 0.30 0.37 0.44 0.51 0.55 0.60 0.73 0.74 0.75 0.81 0.86 0.87 0.90 0.91 0.89 0.84 0.81 0.78 0.98 1.36 1.39 0.98 0.96 0.94 0.94 0.98 1.11 1.10 1.25 1.33 1.25 1.27 1.30 1.14
0.26 0.25 0.25 0.25 0.25 0.26 0.26 0.26 0.25 0.27 0.32 0.38 0.44 0.50 0.55 0.62 0.63 0.66 0.68 0.73 0.78 0.82 0.86 0.87 0.81 0.73 0.74 0.83 1.12 1.47 1.20 1.00 0.93 0.94 0.99 1.02 1.18 1.22 1.28 1.30 1.28 1.39 1.22
0.30 0.28 0.28 0.27 0.27 0.27 0.26 0.24 0.25 0.27 0.29 0.35 0.41 0.46 0.52 0.55 0.57 0.61 0.66 0.68 0.76 0.87 0.89 0.86 0.84 0.77 0.73 0.79 0.98 1.26 1.37 1.20 1.00 0.95 0.85 0.87 1.05 1.09 1.20 1.22 1.27 1.32 1.26
0.30 0.28 0.29 0.31 0.31 0.30 0.29 0.25 0.24 0.27 0.31 0.37 0.41 0.47 0.51 0.50 0.57 0.63 0.69 0.73 0.79 0.89 0.91 0.87 0.84 0.81 0.79 0.86 1.05 1.07 1.13 1.22 1.09 1.02 1.05 0.97 1.02 1.04 1.01 1.06 1.17 1.18 1.11
0.27 0.25 0.28 0.31 0.33 0.32 0.30 0.27 0.25 0.29 0.33 0.38 0.40 0.46 0.54 0.55 0.55 0.61 0.69 0.73 0.77 0.91 0.96 0.93 0.90 0.83 0.81 0.93 1.16 1.10 1.04 1.13 1.13 1.11 1.09 1.05 1.05 1.04 0.99 1.00 1.00 0.98 1.02
0.27 0.25 0.27 0.28 0.31 0.30 0.28 0.27 0.28 0.32 0.37 0.39 0.41 0.47 0.56 0.59 0.56 0.58 0.64 0.71 0.73 0.94 1.11 1.03 1.03 1.01 1.02 1.11 1.33 1.33 1.26 1.27 1.28 1.29 1.27 1.18 1.13 1.11 1.03 0.96 0.92 0.93 0.99
0.27 0.26 0.24 0.26 0.27 0.26 0.26 0.28 0.30 0.35 0.42 0.44 0.46 0.50 0.57 0.59 0.58 0.58 0.63 0.71 0.74 0.81 0.85 0.93 1.02 0.99 1.10 1.16 1.13 1.21 1.26 1.28 1.33 1.36 1.32 1.13 1.02 1.00 0.95 0.92 0.91 0.88 0.87

GEFSMW_prec_meanprecacc_276.txt.gz
Total_Precipitation_Accumulation
0.27 0.32 0.42 0.54 0.63 0.69 0.74 0.80 0.88 0.96 1.15 1.31 1.38 1.37 1.43 1.38 1.28 1.23 1.22 1.20 1.18 1.09 0.95 0.85 0.77 0.77 0.72 0.65 0.58 0.54 0.56 0.55 0.53 0.55 0.52 0.48 0.45 0.41 0.39 0.42 0.53 0.64 0.65
0.30 0.34 0.46 0.59 0.61 0.62 0.71 0.78 0.82 0.87 0.93 1.00 1.16 1.25 1.27 1.30 1.27 1.21 1.22 1.25 1.22 1.13 1.05 0.97 0.86 0.76 0.73 0.68 0.64 0.58 0.54 0.51 0.47 0.51 0.57 0.51 0.46 0.43 0.35 0.30 0.37 0.46 0.54
0.25 0.28 0.39 0.57 0.61 0.61 0.68 0.74 0.81 0.83 0.90 0.97 1.14 1.28 1.40 1.41 1.34 1.23 1.16 1.19 1.21 1.16 1.07 0.99 0.95 0.89 0.80 0.73 0.69 0.65 0.61 0.58 0.51 0.46 0.63 0.69 0.51 0.36 0.27 0.25 0.28 0.29 0.34
0.25 0.27 0.34 0.50 0.61 0.60 0.69 0.79 0.87 0.94 0.93 1.00 1.09 1.08 1.10 1.16 1.11 1.11 1.07 1.11 1.19 1.19 1.12 1.07 1.03 0.95 0.87 0.76 0.68 0.67 0.67 0.69 0.67 0.58 0.54 0.56 0.54 0.57 0.40 0.22 0.21 0.20 0.21
0.24 0.24 0.29 0.43 0.59 0.65 0.72 0.84 0.88 0.98 1.03 1.03 1.07 1.06 1.00 0.98 1.06 1.16 1.21 1.16 1.15 1.19 1.15 1.08 1.03 0.98 0.92 0.84 0.77 0.69 0.70 0.72 0.74 0.70 0.63 0.57 0.50 0.49 0.60 0.40 0.24 0.24 0.22
0.26 0.27 0.30 0.41 0.51 0.60 0.70 0.78 0.89 0.94 1.06 1.07 1.07 1.05 0.98 0.93 0.98 1.06 1.20 1.23 1.19 1.18 1.15 1.08 1.07 0.98 0.90 0.87 0.87 0.83 0.76 0.72 0.71 0.71 0.69 0.71 0.70 0.58 0.61 0.55 0.34 0.29 0.28
0.31 0.31 0.30 0.35 0.43 0.53 0.65 0.72 0.81 0.96 1.02 1.06 1.03 1.01 0.98 0.92 0.92 0.96 1.04 1.11 1.14 1.15 1.14 1.07 1.04 1.00 0.91 0.81 0.84 0.88 0.86 0.81 0.81 0.79 0.74 0.72 0.70 0.66 0.71 0.75 0.58 0.43 0.34
0.32 0.33 0.30 0.32 0.37 0.47 0.57 0.68 0.76 0.91 1.00 1.01 1.00 0.98 0.96 0.92 0.90 0.93 0.95 1.01 0.98 0.99 1.07 1.13 1.12 1.00 0.91 0.87 0.84 0.87 0.86 0.88 0.89 0.84 0.80 0.78 0.70 0.71 0.79 0.89 0.95 0.84 0.52
0.27 0.33 0.30 0.34 0.38 0.47 0.54 0.63 0.74 0.86 0.98 1.04 1.03 0.98 0.95 0.94 0.88 0.91 0.94 1.01 0.98 0.91 0.94 1.05 1.13 1.14 1.07 0.98 0.94 0.91 0.86 0.87 0.91 0.91 0.90 0.90 0.80 0.74 0.74 0.82 1.02 1.27 1.04
0.24 0.29 0.28 0.34 0.40 0.47 0.52 0.58 0.71 0.80 0.90 0.98 1.03 1.03 1.01 1.00 0.95 0.93 0.91 0.90 0.96 0.97 0.92 0.93 0.98 1.05 1.10 1.10 1.05 1.02 0.95 0.92 0.91 0.92 0.96 0.98 0.96 0.92 0.86 0.83 0.86 1.05 1.22
0.23 0.27 0.27 0.33 0.41 0.48 0.50 0.54 0.62 0.76 0.87 0.94 0.96 1.01 1.08 1.04 1.02 1.01 0.96 0.89 0.87 0.94 0.97 0.96 1.01 1.04 1.05 1.06 1.12 1.11 1.07 1.05 1.01 0.98 0.99 0.99 1.02 1.10 1.10 1.05 1.01 0.98 1.07
0.23 0.24 0.26 0.33 0.38 0.44 0.49 0.54 0.59 0.65 0.78 0.91 0.95 0.96 1.06 1.10 1.06 1.10 1.09 0.98 0.89 0.90 0.96 1.00 1.02 1.09 1.13 1.11 1.15 1.18 1.17 1.21 1.18 1.08 1.05 1.04 1.06 1.13 1.17 1.24 1.21 1.10 1.03
0.25 0.24 0.25 0.31 0.37 0.43 0.48 0.51 0.57 0.61 0.68 0.84 0.91 0.97 1.01 1.08 1.07 1.08 1.15 1.13 1.10 1.11 1.09 1.12 1.16 1.20 1.24 1.27 1.30 1.31 1.36 1.41 1.40 1.34 1.29 1.18 1.16 1.22 1.21 1.25 1.27 1.20 1.11
0.25 0.23 0.25 0.29 0.36 0.43 0.47 0.48 0.50 0.59 0.66 0.81 0.94 0.96 1.00 1.03 1.05 1.09 1.12 1.23 1.29 1.36 1.42 1.40 1.39 1.40 1.45 1.58 1.65 1.65 1.64 1.60 1.56 1.53 1.50 1.43 1.36 1.34 1.34 1.36 1.31 1.25 1.26
0.24 0.23 0.26 0.30 0.35 0.41 0.45 0.44 0.46 0.53 0.63 0.77 0.88 0.95 1.00 1.11 1.19 1.20 1.21 1.24 1.36 1.44 1.45 1.49 1.51 1.48 1.64 1.94 2.06 1.91 1.70 1.56 1.50 1.45 1.44 1.48 1.58 1.58 1.62 1.68 1.57 1.47 1.51
0.26 0.26 0.27 0.32 0.36 0.39 0.43 0.40 0.41 0.48 0.58 0.73 0.80 0.89 1.02 1.12 1.25 1.28 1.31 1.32 1.36 1.44 1.46 1.46 1.49 1.47 1.56 1.97 2.09 1.72 1.38 1.31 1.35 1.35 1.27 1.27 1.45 1.52 1.60 1.73 1.72 1.73 1.79
0.27 0.26 0.29 0.34 0.39 0.40 0.40 0.40 0.40 0.44 0.50 0.62 0.73 0.80 0.96 1.06 1.14 1.18 1.20 1.23 1.17 1.15 1.25 1.34 1.31 1.29 1.37 1.72 1.81 1.51 1.11 1.02 1.11 1.15 1.13 1.11 1.17 1.36 1.33 1.45 1.51 1.57 1.70
0.28 0.27 0.28 0.31 0.35 0.38 0.40 0.40 0.40 0.42 0.49 0.57 0.67 0.71 0.83 0.96 1.00 1.06 1.09 1.09 1.03 1.01 1.12 1.16 1.10 1.04 1.09 1.43 1.57 1.37 1.00 0.95 1.01 1.05 1.07 1.05 1.06 1.20 1.39 1.45 1.35 1.27 1.36
0.27 0.28 0.28 0.29 0.30 0.34 0.38 0.39 0.40 0.40 0.45 0.52 0.60 0.64 0.73 0.88 0.88 0.95 1.04 1.01 1.02 0.99 0.97 0.97 0.94 0.89 0.92 1.20 1.48 1.35 0.94 0.97 0.99 1.01 1.08 1.03 0.96 1.24 1.45 1.43 1.35 1.23 1.21
0.26 0.27 0.30 0.27 0.28 0.31 0.32 0.33 0.34 0.36 0.42 0.49 0.56 0.59 0.64 0.77 0.77 0.78 0.84 0.88 0.89 0.91 0.93 0.90 0.86 0.84 0.81 1.01 1.39 1.43 1.00 0.98 0.97 0.98 1.03 1.17 1.15 1.30 1.39 1.30 1.32 1.35 1.19
0.30 0.29 0.30 0.30 0.31 0.32 0.33 0.33 0.33 0.33 0.37 0.42 0.47 0.54 0.60 0.66 0.67 0.69 0.72 0.77 0.80 0.84 0.88 0.89 0.83 0.76 0.76 0.85 1.15 1.51 1.23 1.03 0.95 0.97 1.01 1.06 1.21 1.25 1.32 1.33 1.30 1.42 1.26
0.35 0.33 0.33 0.33 0.33 0.33 0.33 0.32 0.34 0.33 0.34 0.39 0.45 0.50 0.57 0.60 0.61 0.64 0.70 0.71 0.79 0.89 0.91 0.88 0.86 0.79 0.75 0.81 1.00 1.29 1.41 1.24 1.03 0.97 0.86 0.89 1.08 1.12 1.23 1.24 1.29 1.35 1.29
0.34 0.33 0.35 0.37 0.37 0.36 0.35 0.33 0.33 0.33 0.36 0.41 0.44 0.50 0.55 0.55 0.61 0.66 0.73 0.76 0.82 0.91 0.93 0.89 0.86 0.83 0.81 0.87 1.07 1.09 1.16 1.25 1.12 1.05 1.07 0.99 1.05 1.07 1.04 1.08 1.19 1.20 1.13
0.30 0.30 0.33 0.37 0.39 0.38 0.37 0.35 0.34 0.35 0.37 0.41 0.42 0.48 0.57 0.59 0.59 0.64 0.72 0.75 0.79 0.93 0.98 0.95 0.92 0.85 0.83 0.95 1.17 1.11 1.05 1.15 1.16 1.14 1.13 1.08 1.07 1.06 1.01 1.02 1.02 0.99 1.04
0.29 0.28 0.31 0.34 0.37 0.37 0.35 0.35 0.36 0.39 0.41 0.41 0.43 0.48 0.58 0.62 0.60 0.62 0.67 0.73 0.75 0.96 1.13 1.06 1.05 1.03 1.04 1.12 1.35 1.35 1.27 1.29 1.31 1.32 1.29 1.21 1.15 1.13 1.04 0.97 0.93 0.94 1.00
0.29 0.28 0.27 0.30 0.32 0.32 0.33 0.35 0.39 0.42 0.46 0.47 0.48 0.52 0.60 0.62 0.62 0.63 0.67 0.74 0.77 0.84 0.88 0.95 1.04 1.02 1.12 1.19 1.15 1.22 1.28 1.30 1.36 1.39 1.34 1.15 1.03 1.01 0.96 0.94 0.92 0.89 0.88